GEFSSE_con_prob3kmehi_012.txt.gz
EHI
24 36 71 76 41 17 7 2 1 1 0 0 0 0 0 0 0 0 2 8 11 8 2 0 0 0 0 0 0 0 0 0 0 0 0 0 0 0 0 0 0 0 0
39 39 67 74 43 17 7 3 2 2 1 0 0 0 0 0 0 0 1 3 5 3 1 0 0 0 0 0 0 0 0 0 0 0 0 0 0 0 0 0 0 0 0
39 31 47 60 38 14 5 2 3 2 1 1 2 1 0 0 0 0 0 0 0 0 0 0 0 0 0 0 0 0 0 0 0 0 0 0 0 0 0 0 0 0 0
26 21 30 42 29 9 2 1 2 1 1 2 2 2 1 0 0 0 0 0 0 0 0 0 0 0 0 0 0 0 0 0 0 0 0 2 3 2 1 0 0 0 0
41 36 38 38 25 8 1 0 0 0 1 1 1 1 0 0 0 0 0 0 0 0 0 0 0 1 0 0 0 0 0 0 0 0 2 6 9 8 7 5 3 1 0
71 63 52 43 27 9 2 0 1 1 1 0 0 0 0 0 0 0 0 0 0 0 0 0 0 0 0 0 0 0 0 0 0 2 10 19 22 21 18 13 8 4 2
84 75 56 42 28 9 2 1 2 2 1 1 1 0 0 0 0 0 0 0 0 0 0 0 0 0 0 0 0 0 0 0 0 5 20 32 33 29 21 13 10 6 3
83 70 45 29 18 5 1 1 2 1 1 0 0 0 0 0 0 0 0 0 0 0 0 0 0 0 0 0 0 0 0 0 0 5 17 25 26 22 12 5 4 3 2
76 58 29 11 6 1 1 1 2 1 0 0 0 0 0 0 0 0 0 0 0 0 0 0 0 0 0 0 0 0 0 0 0 2 5 8 9 8 4 0 0 0 1
69 56 30 10 2 1 0 1 2 1 0 0 0 0 0 0 0 0 0 0 0 0 0 0 0 0 0 0 0 0 0 0 0 0 0 1 2 2 1 0 0 0 0
75 70 52 26 8 1 0 0 1 1 0 0 0 0 0 0 0 0 0 0 0 0 0 0 0 0 0 0 0 0 0 0 0 0 2 4 5 3 1 1 0 0 0
77 70 57 39 19 10 6 2 0 0 0 2 3 2 0 0 0 0 0 0 0 0 0 0 0 0 0 0 0 0 0 0 0 0 7 18 19 10 4 2 1 1 1
58 44 39 38 29 21 13 5 4 8 13 17 16 7 0 0 1 2 2 2 1 0 0 0 0 0 0 0 0 0 0 0 0 0 10 27 30 17 8 5 4 5 6
32 22 23 34 35 30 23 13 16 30 40 42 30 9 0 0 1 4 6 6 3 0 0 1 0 0 0 0 0 0 0 0 0 0 7 20 26 20 10 6 8 12 14
33 21 26 47 55 53 44 31 35 55 63 54 29 8 1 6 16 24 23 16 8 6 8 8 5 1 1 2 1 0 0 0 0 0 3 10 16 15 10 7 10 14 16
60 44 49 71 82 79 60 42 47 62 66 54 39 24 16 23 40 51 49 39 29 23 22 19 13 9 8 7 5 3 2 1 1 1 1 4 9 10 8 7 8 10 11
87 77 71 79 90 86 60 42 46 59 66 70 69 60 44 40 46 57 65 63 52 40 33 29 25 23 20 13 10 8 4 2 2 2 1 1 3 6 8 8 8 7 6
98 94 80 74 87 87 67 55 60 71 80 87 89 80 61 41 36 48 62 62 52 40 35 30 27 26 21 12 8 6 3 2 2 2 1 0 1 4 6 7 7 6 4
100 96 85 81 90 92 86 83 86 89 91 89 84 73 54 32 26 38 45 40 32 27 24 19 15 13 9 5 2 1 1 1 1 1 0 0 1 2 3 3 3 3 2
100 98 95 95 97 97 96 96 95 92 85 76 66 54 37 21 15 20 23 18 13 12 10 6 2 1 1 0 0 0 0 0 0 0 0 0 0 1 0 0 1 1 0
100 100 100 100 99 98 97 95 91 83 71 55 42 30 19 10 7 7 8 6 4 3 2 1 0 0 0 0 0 0 0 0 0 0 0 0 0 0 0 0 0 0 0
99 100 100 99 98 97 96 93 84 70 52 34 20 12 7 3 2 2 2 1 1 0 0 0 0 0 0 0 0 0 0 0 0 0 0 0 0 0 0 0 0 0 0
98 99 99 98 97 96 93 84 69 51 34 20 11 5 2 0 0 0 0 0 0 0 0 0 0 0 0 0 0 0 0 0 0 0 0 0 0 0 0 0 0 0 0
97 97 97 97 97 95 88 75 59 43 29 18 9 3 1 0 0 0 0 0 0 0 0 0 0 0 0 0 0 0 0 0 0 0 0 0 0 0 0 0 0 0 0
96 96 97 96 95 92 84 72 58 43 29 16 7 2 0 0 0 0 0 0 0 0 0 0 0 0 0 0 0 0 0 0 0 0 0 0 0 0 0 0 0 0 0
96 96 96 95 92 88 80 69 55 40 26 13 4 1 0 0 0 0 0 0 0 0 0 0 0 0 0 0 0 0 0 0 0 0 0 0 0 0 0 0 0 0 0

GEFSSE_con_prob3kmehi_018.txt.gz
EHI
0 17 53 81 86 85 81 74 68 64 55 41 27 21 28 44 58 64 62 54 44 29 14 5 2 1 0 0 0 0 0 0 0 0 0 0 0 0 0 0 0 0 0
2 19 56 83 88 86 84 79 73 64 50 36 26 19 19 26 34 37 35 31 25 15 6 2 1 0 0 0 0 0 0 1 1 0 0 0 0 0 0 0 0 0 0
6 21 57 85 90 86 82 77 69 55 38 26 18 11 7 7 9 9 8 7 5 2 0 0 0 0 0 0 0 0 1 2 2 1 0 0 0 0 0 0 0 0 0
7 22 57 87 90 80 67 57 48 36 23 14 9 5 1 0 1 1 0 0 0 0 0 0 0 0 0 0 0 0 1 2 2 1 0 0 0 0 0 0 0 0 0
4 23 62 88 86 67 44 31 24 18 11 7 5 3 1 0 0 0 0 0 0 0 0 0 0 0 0 0 0 0 1 2 2 1 0 0 0 0 0 0 0 0 0
3 20 54 77 71 48 27 14 9 6 4 3 2 2 1 0 0 0 0 0 0 0 0 0 0 0 0 0 0 0 0 1 1 0 0 0 0 1 1 1 1 0 0
2 11 32 50 46 29 15 6 3 2 1 1 1 1 0 0 0 1 1 0 0 0 0 0 0 0 0 0 0 0 0 0 0 0 0 0 1 2 4 5 6 4 2
3 6 16 25 22 12 6 3 2 1 0 0 0 0 0 0 1 2 2 1 0 0 0 0 0 0 0 0 0 0 0 0 0 0 0 1 3 5 6 8 10 9 7
6 8 11 11 8 4 2 2 2 1 0 0 0 0 0 1 2 3 3 2 1 0 0 0 0 0 0 0 0 0 0 0 0 0 0 1 5 7 6 5 6 8 9
9 10 10 6 2 1 0 1 1 0 0 0 0 0 0 1 2 2 3 2 1 0 0 0 0 0 0 0 0 0 0 0 0 0 0 2 7 8 5 1 1 3 5
20 14 9 5 1 0 0 0 0 0 0 0 0 0 0 0 1 1 1 1 1 0 0 0 0 0 0 0 0 0 0 0 0 0 0 3 7 7 3 1 0 1 2
37 23 11 6 2 0 0 0 0 0 0 0 0 0 0 0 0 0 0 0 0 0 0 0 0 0 0 0 0 0 0 0 0 0 0 2 5 4 2 1 0 0 1
49 36 22 13 5 1 0 0 0 0 0 0 0 0 0 0 0 0 0 0 0 0 0 0 0 0 0 0 0 0 0 0 0 0 0 3 7 8 6 5 6 7 6
65 58 43 27 11 3 1 0 0 0 0 0 0 0 0 0 0 0 0 0 0 0 0 0 0 0 0 0 0 0 0 0 0 0 1 5 15 22 20 15 15 17 18
84 79 65 44 22 8 4 2 0 0 0 0 0 0 0 0 0 0 0 0 0 0 0 0 0 0 0 0 0 0 0 0 0 0 1 6 18 32 37 28 21 20 21
87 86 77 59 36 21 14 10 6 3 1 1 0 0 0 0 0 0 0 0 0 0 0 0 0 0 0 0 0 0 0 0 0 0 0 3 11 27 41 39 27 19 14
79 83 83 71 52 35 25 23 22 18 11 5 1 1 1 1 1 1 0 0 0 0 0 0 0 0 0 0 0 0 0 0 0 0 0 0 3 12 27 35 30 19 10
76 83 89 84 68 47 33 34 41 41 28 13 3 1 2 2 1 1 0 0 0 0 0 0 0 0 0 0 0 0 0 0 0 0 0 0 0 2 8 16 22 17 9
80 87 94 94 82 63 50 48 51 48 34 16 5 1 1 1 1 0 0 0 0 0 0 0 0 0 0 0 0 0 0 0 0 0 0 0 0 0 0 4 9 9 6
82 88 95 96 91 82 74 65 52 38 24 11 3 0 0 0 0 0 0 0 0 0 0 0 0 0 0 0 0 0 0 0 0 0 0 0 0 0 0 0 2 2 2
83 87 92 95 95 91 85 71 49 29 14 4 1 0 0 0 0 0 0 0 0 0 0 0 0 0 0 0 0 0 0 0 0 0 0 0 0 0 0 0 0 0 0
83 85 89 94 95 92 82 62 39 19 7 1 0 0 0 0 0 0 0 0 0 0 0 0 0 0 0 0 0 0 0 0 0 0 0 0 0 0 0 0 0 0 0
86 87 90 94 93 85 70 47 23 8 2 0 0 0 0 0 0 0 0 0 0 0 0 0 0 0 0 0 0 0 0 0 0 0 0 0 0 0 0 0 0 0 0
93 93 93 93 86 71 51 30 12 3 0 0 0 0 0 0 0 0 0 0 0 0 0 0 0 0 0 0 0 0 0 0 0 0 0 0 0 0 0 0 0 0 0
96 94 90 83 68 46 26 13 5 1 0 0 0 0 0 0 0 0 0 0 0 0 0 0 0 0 0 0 0 0 0 0 0 0 0 0 0 0 0 0 0 0 0
95 91 83 71 49 26 11 4 1 0 0 0 0 0 0 0 0 0 0 0 0 0 0 0 0 0 0 0 0 0 0 0 0 0 0 0 0 0 0 0 0 0 0

GEFSSE_con_prob3kmehi_024.txt.gz
EHI
1 3 10 21 31 36 37 41 50 65 81 92 97 98 95 91 85 76 62 41 21 9 4 2 1 0 0 0 0 0 0 0 0 0 0 0 0 0 0 0 0 0 0
3 7 17 33 48 52 47 43 47 58 73 85 93 95 92 89 83 70 52 32 15 5 3 2 1 0 0 0 0 0 0 0 0 0 0 0 0 0 0 0 0 0 0
9 12 25 49 70 76 67 57 54 57 62 71 78 80 80 76 68 51 31 16 6 2 1 1 1 0 0 0 0 0 0 0 0 0 0 0 0 0 0 0 0 0 0
14 14 30 61 83 89 84 75 67 58 52 51 52 51 50 47 39 25 12 4 1 0 0 0 0 0 0 0 0 0 0 0 0 0 0 0 0 0 0 0 0 0 0
14 12 32 66 85 90 89 82 71 55 39 30 25 20 18 17 13 7 2 0 0 0 0 0 0 0 0 0 0 0 0 0 0 0 0 0 0 0 0 0 0 0 0
11 10 29 62 80 84 84 79 66 47 29 17 10 4 2 2 2 1 0 0 0 0 0 0 0 0 1 1 0 0 0 0 0 0 0 0 0 0 0 0 0 0 0
10 9 22 49 67 70 69 63 52 36 21 12 5 2 0 0 0 0 0 0 0 0 0 0 0 1 2 2 1 0 0 0 0 0 0 0 0 0 0 0 0 0 0
12 10 15 30 41 46 45 39 32 21 12 6 3 1 0 0 0 0 0 0 0 0 0 0 0 1 2 2 1 0 0 0 0 0 0 0 0 0 0 1 1 0 0
10 9 10 12 17 20 21 18 14 8 3 1 1 1 0 0 0 0 0 0 0 0 0 0 1 1 1 1 0 0 0 0 0 0 0 0 0 0 0 1 1 1 0
6 7 7 7 8 8 7 5 4 3 2 1 0 0 0 0 0 0 0 0 0 0 0 0 0 0 0 0 0 0 0 0 0 0 0 0 0 1 1 2 2 1 0
6 6 7 8 9 7 3 1 2 4 4 2 0 0 0 0 0 0 0 0 0 0 0 0 0 0 0 0 0 0 0 0 0 0 0 0 1 3 5 5 4 2 1
7 7 8 10 11 8 5 3 3 4 4 2 0 0 0 0 0 0 0 0 0 0 0 0 1 0 0 0 0 0 0 0 0 0 0 0 1 3 6 7 5 2 0
6 6 8 11 11 9 6 5 4 3 2 1 0 0 0 0 0 0 0 0 0 0 0 0 0 0 0 0 0 0 0 0 0 0 0 1 3 5 6 7 6 2 1
4 5 7 9 10 9 8 8 7 4 2 1 0 0 0 0 0 0 0 0 0 0 0 0 0 0 0 0 0 0 0 0 0 0 0 4 11 13 11 8 6 5 5
4 4 6 8 10 11 11 11 9 6 3 1 0 0 0 0 0 0 0 0 0 0 0 0 0 0 0 0 0 0 0 0 0 0 0 6 15 19 15 11 9 9 10
5 5 8 11 12 12 12 10 8 5 2 0 0 0 0 0 0 0 0 0 0 0 0 0 0 0 0 0 0 0 0 0 0 0 0 3 8 12 12 9 8 8 8
9 8 11 15 16 14 11 7 4 2 1 0 0 0 0 0 0 0 0 0 0 0 0 0 0 0 0 0 0 0 0 0 0 0 0 0 1 3 4 5 4 3 2
26 20 19 24 25 21 15 8 3 1 0 0 0 0 0 0 0 0 0 0 0 0 0 0 0 0 0 0 0 0 0 0 0 0 0 0 0 0 1 1 1 0 0
55 47 41 42 42 36 25 13 6 2 1 0 0 0 0 0 0 0 0 0 0 0 0 0 0 0 0 0 0 0 0 0 0 0 0 0 0 0 0 0 0 0 0
76 71 66 65 64 56 41 24 13 5 1 0 0 0 0 0 0 0 0 0 0 0 0 0 0 0 0 0 0 0 0 0 0 0 0 0 0 0 0 0 0 0 0
81 81 80 79 79 74 58 36 17 6 1 0 0 0 0 0 0 0 0 0 0 0 0 0 0 0 0 0 0 0 0 0 0 0 0 0 0 0 0 0 0 0 0
78 82 84 84 83 77 60 34 12 3 0 0 0 0 0 0 0 0 0 0 0 0 0 0 0 0 0 0 0 0 0 0 0 0 0 0 0 0 0 0 0 0 0
76 81 84 82 76 62 42 20 5 1 0 0 0 0 0 0 0 0 0 0 0 0 0 0 0 0 0 0 0 0 0 0 0 0 0 0 0 0 0 0 0 0 0
74 79 81 75 60 40 22 10 2 0 0 0 0 0 0 0 0 0 0 0 0 0 0 0 0 0 0 0 0 0 0 0 0 0 0 0 0 0 0 0 0 0 0
68 72 70 57 39 22 10 4 1 0 0 0 0 0 0 0 0 0 0 0 0 0 0 0 0 0 0 0 0 0 0 0 0 0 0 0 0 0 0 0 0 0 0
63 65 58 41 23 11 5 2 0 0 0 0 0 0 0 0 0 0 0 0 0 0 0 0 0 0 0 0 0 0 0 0 0 0 0 0 0 0 0 0 0 0 0

GEFSSE_con_prob3kmehi_030.txt.gz
EHI
4 6 5 2 0 0 0 3 12 27 43 51 55 55 49 45 41 40 46 56 58 48 32 19 9 2 0 0 0 0 0 0 0 0 0 0 0 0 0 0 0 0 0
8 10 8 2 0 1 2 7 21 42 61 68 70 69 61 55 51 50 54 58 55 42 28 16 7 1 0 0 0 0 0 0 0 0 0 0 0 0 0 0 0 0 0
12 12 8 2 0 1 4 13 36 64 82 88 89 86 78 69 63 58 53 49 42 30 18 10 3 0 0 0 0 0 0 0 0 0 0 0 0 0 0 0 0 0 0
11 12 9 5 2 1 3 15 43 73 90 95 97 93 86 76 63 48 37 29 22 14 8 3 1 0 0 0 0 0 0 0 0 0 0 0 0 0 0 0 0 0 0
6 10 17 15 7 3 2 10 34 63 81 89 94 90 81 69 49 29 17 10 6 3 2 1 0 0 0 0 0 0 0 0 0 0 0 0 0 0 0 0 0 0 0
3 8 22 28 19 9 4 5 17 40 60 74 82 79 68 53 33 15 5 1 0 0 0 0 0 0 0 0 0 0 0 0 0 0 0 0 1 1 1 0 0 0 0
1 6 22 34 27 14 7 5 9 19 34 50 60 58 49 35 19 6 1 0 0 0 0 0 0 0 0 0 0 0 0 0 0 0 0 0 1 2 1 0 0 0 0
0 5 18 25 21 14 11 10 10 10 15 24 31 31 26 17 8 2 0 0 0 0 0 0 0 0 0 0 0 0 0 0 0 0 0 1 2 1 0 0 0 0 0
0 3 8 11 10 9 11 12 11 8 7 8 10 10 8 4 2 0 0 0 0 0 0 0 0 0 0 0 0 0 0 0 0 0 0 1 1 1 0 0 0 0 0
1 1 2 3 4 5 6 8 7 4 3 3 3 2 1 0 0 0 0 0 0 0 0 0 0 0 0 0 0 0 0 0 0 0 0 1 1 1 0 1 1 1 0
7 4 1 2 3 3 3 3 2 1 0 0 0 0 0 0 0 2 4 3 0 0 0 0 0 0 0 0 0 0 0 0 0 0 0 1 2 1 1 2 2 1 0
16 9 2 1 2 1 1 2 1 0 0 0 0 1 1 0 0 3 7 5 1 0 0 0 0 0 0 0 0 0 0 0 0 0 0 1 1 2 2 3 2 2 1
15 10 3 1 1 0 0 0 0 0 0 1 2 2 2 2 1 2 4 3 0 0 0 0 0 0 0 0 0 0 0 0 0 0 0 1 2 4 4 4 4 3 3
9 8 4 4 5 4 2 0 0 0 0 2 5 6 4 3 2 0 0 1 1 0 0 0 0 0 0 0 0 0 0 0 0 0 1 2 4 5 6 6 5 3 2
13 10 8 12 18 16 8 2 0 0 0 3 7 8 6 4 3 2 2 2 2 1 0 0 0 0 0 0 0 0 0 0 0 0 1 3 6 7 6 6 5 2 1
30 24 19 23 32 30 17 5 1 1 1 3 6 8 7 6 5 4 3 3 3 2 1 0 0 0 0 0 0 0 0 0 0 0 0 2 5 6 5 4 3 2 1
52 47 37 34 39 41 29 14 6 3 3 5 7 9 9 8 9 11 11 10 9 5 1 1 0 0 0 0 0 0 0 0 0 0 0 1 2 3 2 2 2 2 2
71 69 60 49 51 56 49 32 18 12 12 14 16 19 19 17 20 27 29 26 18 8 3 2 0 0 0 0 0 0 0 0 0 0 0 0 0 0 0 0 1 1 1
84 85 79 73 73 75 70 57 43 36 33 32 31 33 34 32 34 39 39 32 20 10 5 2 0 0 0 0 0 0 0 0 0 0 0 0 0 0 0 0 0 0 0
90 92 92 90 90 90 87 79 71 63 52 43 38 36 36 36 35 34 30 22 12 6 3 1 0 0 0 0 0 0 0 0 0 0 0 0 0 0 0 0 0 0 0
89 92 95 97 97 97 95 91 82 66 47 33 25 21 20 21 21 19 15 9 4 2 2 1 0 0 0 0 0 0 0 0 0 0 0 0 0 0 0 0 0 0 0
80 85 92 97 98 97 93 85 68 44 25 13 8 6 6 7 8 7 5 3 1 1 1 0 0 0 0 0 0 0 0 0 0 0 0 0 0 0 0 0 0 0 0
66 75 86 93 94 92 85 70 47 25 10 3 1 1 0 1 2 1 1 1 0 0 0 0 0 0 0 0 0 0 0 0 0 0 0 0 0 0 0 0 0 0 0
61 70 83 89 87 84 75 57 36 19 7 2 0 0 0 0 0 0 0 0 0 0 0 0 0 0 0 0 0 0 0 0 0 0 0 0 0 0 0 0 0 0 0
72 75 81 82 78 72 59 42 26 13 5 2 0 0 0 0 0 0 0 0 0 0 0 0 0 0 0 0 0 0 0 0 0 0 0 0 0 0 0 0 0 0 0
81 78 77 76 71 62 46 29 15 6 3 1 0 0 0 0 0 0 0 0 0 0 0 0 0 0 0 0 0 0 0 0 0 0 0 0 0 0 0 0 0 0 0

GEFSSE_con_prob3kmehi_036.txt.gz
EHI
41 51 72 74 51 22 3 0 0 0 0 0 0 1 4 11 21 32 38 30 13 2 0 0 0 0 0 0 0 1 1 1 1 2 3 4 7 9 11 10 6 2 0
55 62 77 77 52 22 4 0 0 0 0 0 0 0 2 5 13 20 22 16 7 1 0 0 0 0 0 0 0 0 0 0 0 1 1 2 3 5 8 10 8 3 0
62 61 69 73 53 25 5 0 0 0 0 0 0 0 0 3 9 12 10 5 2 0 0 0 0 0 0 0 0 0 0 0 0 0 0 0 0 1 3 6 5 2 0
44 41 53 65 55 30 9 1 0 0 0 1 2 4 5 8 14 16 11 4 1 0 0 0 0 0 0 0 0 0 0 0 0 0 0 0 0 0 0 1 1 0 0
24 28 47 64 59 36 14 3 1 2 4 9 15 18 20 22 23 20 12 4 1 1 0 0 0 0 0 0 0 0 0 0 0 0 0 0 0 0 0 0 0 0 0
25 30 43 61 61 38 15 5 3 5 12 24 36 42 43 39 30 21 10 3 0 0 0 0 0 0 0 0 0 0 0 0 0 0 1 2 1 1 2 1 0 0 0
47 39 39 52 53 32 13 4 3 7 18 36 53 61 60 48 31 16 6 1 0 0 0 0 0 0 0 0 0 0 0 0 0 1 3 5 4 5 5 4 2 0 0
71 52 36 38 36 20 8 3 3 6 18 37 55 63 59 43 24 9 2 0 0 0 0 0 0 0 0 0 0 0 0 0 0 1 3 7 12 15 12 6 3 1 0
81 58 29 20 18 10 5 4 4 6 16 31 42 44 38 26 13 4 0 0 0 0 0 0 0 0 0 0 0 0 0 0 0 1 4 12 25 29 18 7 3 1 0
82 59 24 7 7 4 2 3 5 7 12 19 21 18 13 8 3 1 5 8 6 2 1 0 0 0 0 0 0 1 1 1 1 3 8 18 32 32 20 8 3 1 0
84 65 29 6 3 1 1 3 4 4 5 6 5 3 1 0 0 4 20 33 23 8 3 1 0 0 0 0 1 2 2 1 3 7 13 20 28 25 16 8 4 1 0
82 71 43 19 8 3 5 8 5 1 1 1 1 2 1 0 4 18 43 53 36 15 5 1 0 0 0 0 1 1 1 0 4 10 14 18 21 19 12 7 4 2 1
70 68 61 46 26 14 18 20 8 3 4 3 5 8 5 2 11 33 52 49 30 11 3 1 1 0 0 0 0 0 0 1 4 8 10 13 17 15 10 5 4 4 3
60 58 67 72 53 36 40 36 16 9 13 11 14 19 14 8 15 31 42 34 17 7 4 3 2 2 1 0 0 0 0 1 3 4 5 9 13 13 7 4 4 6 7
67 60 70 84 76 63 64 57 31 22 28 31 35 39 30 21 23 33 42 39 27 22 18 12 9 8 4 2 1 0 0 0 1 1 3 6 11 11 9 7 8 8 10
84 79 81 91 91 85 83 76 54 41 46 53 61 64 54 46 49 56 62 59 53 49 44 31 22 16 10 6 4 2 1 1 1 1 1 3 6 9 10 10 9 8 9
97 95 94 97 98 97 93 88 73 58 60 71 79 82 77 74 78 81 79 73 65 62 60 49 35 24 17 14 13 9 5 4 3 2 1 0 1 4 5 6 5 5 5
100 99 99 99 100 99 98 94 81 71 74 83 86 86 84 84 86 86 81 73 64 59 55 46 35 27 21 20 18 13 9 7 5 2 0 0 0 1 1 1 1 1 2
100 100 100 100 100 100 100 96 86 82 85 85 81 77 73 71 74 76 73 67 59 51 40 29 25 22 18 16 13 9 7 5 3 2 0 0 0 0 0 0 0 0 0
99 100 100 100 100 100 100 97 93 89 84 76 68 61 54 50 54 59 58 53 45 37 26 17 14 13 10 7 4 3 2 1 1 1 0 0 0 0 0 0 0 0 0
99 100 100 100 100 100 100 99 96 88 75 61 50 42 35 31 34 39 39 34 27 20 14 9 6 5 4 2 1 0 0 0 0 0 0 0 0 0 0 0 0 0 0
99 100 100 100 100 100 99 96 89 76 61 45 34 26 20 18 18 19 20 18 13 9 5 3 1 1 1 0 0 0 0 0 0 0 0 0 0 0 0 0 0 0 0
98 99 100 100 99 98 94 87 76 61 45 32 23 15 11 9 6 6 6 6 4 2 1 0 0 0 0 0 0 0 0 0 0 0 0 0 0 0 0 0 0 0 0
95 97 99 98 96 93 88 80 67 52 37 25 15 9 6 3 1 1 1 1 1 0 0 0 0 0 0 0 0 0 0 0 0 0 0 0 0 0 0 0 0 0 0
90 92 94 92 89 85 81 73 59 44 29 17 9 5 2 1 0 0 0 0 0 0 0 0 0 0 0 0 0 0 0 0 0 0 0 0 0 0 0 0 0 0 0
85 87 88 87 83 80 75 66 50 34 21 11 5 3 1 0 0 0 0 0 0 0 0 0 0 0 0 0 0 0 0 0 0 0 0 0 0 0 0 0 0 0 0

GEFSSE_con_prob3kmehi_042.txt.gz
EHI
3 22 56 81 90 92 87 78 70 66 65 65 66 70 76 80 82 82 80 71 51 28 12 4 1 0 1 1 1 0 0 0 1 0 0 2 4 3 5 6 3 2 4
16 30 59 81 90 92 85 72 60 52 50 51 56 64 69 73 76 76 70 58 38 18 7 2 1 0 0 0 0 0 0 0 1 1 1 1 2 2 4 6 5 4 4
42 42 58 79 89 89 78 60 44 32 29 31 38 48 55 59 60 55 46 34 20 7 2 1 0 0 0 0 0 0 0 0 1 2 1 1 1 1 2 4 5 5 5
53 46 55 76 86 83 68 48 29 18 14 15 19 27 34 36 33 28 20 13 7 2 0 0 0 0 0 0 0 0 0 1 1 1 1 0 0 0 0 1 2 4 6
44 44 56 75 83 77 60 37 18 8 6 7 8 11 15 16 13 9 6 3 2 0 0 0 0 0 0 0 0 0 0 1 1 0 0 0 0 0 0 0 0 3 5
37 41 55 72 79 72 54 30 12 5 4 4 4 5 7 7 5 2 1 1 0 0 0 0 0 0 0 0 0 0 0 0 0 0 0 0 1 2 1 0 0 1 3
38 40 49 63 71 67 49 27 13 7 4 3 3 4 5 5 4 2 0 0 0 0 0 0 0 0 0 0 0 0 0 0 0 0 0 0 1 2 1 0 0 0 1
41 39 40 47 57 57 44 26 14 8 6 4 5 6 7 7 5 2 0 0 0 0 0 0 0 0 0 0 0 0 0 0 0 0 0 0 1 1 1 0 0 0 0
38 38 33 30 35 39 34 23 14 9 7 7 9 12 12 9 6 3 1 0 0 0 0 0 0 0 0 0 0 0 1 0 0 0 0 0 0 1 1 0 0 0 0
26 30 29 23 21 23 23 20 14 10 10 11 15 17 15 9 4 3 2 2 2 1 0 0 0 0 0 0 1 1 1 0 0 0 0 0 1 1 1 0 0 0 0
14 18 22 23 21 20 20 17 12 8 10 11 12 14 11 4 1 1 1 3 3 1 0 0 0 1 1 1 1 1 0 0 0 0 0 1 1 1 0 0 0 0 0
9 9 13 21 24 22 19 14 7 3 4 4 5 5 4 1 0 0 1 2 2 1 0 0 0 1 1 1 1 1 0 0 0 0 1 3 3 2 1 1 1 1 1
13 9 9 16 21 19 16 11 4 0 0 0 0 0 0 0 0 0 0 1 1 0 0 0 0 1 1 0 0 0 0 0 0 0 1 3 4 3 2 2 3 3 4
21 15 11 14 16 14 11 7 2 0 0 0 0 0 0 0 0 0 1 1 0 0 0 0 0 0 0 0 0 0 0 0 0 0 1 3 4 3 2 2 2 4 6
34 23 14 13 12 9 6 3 1 0 0 0 0 0 0 0 0 0 1 1 1 1 0 0 0 0 0 0 0 0 0 0 0 0 2 5 6 6 5 4 4 5 5
50 35 21 15 13 11 8 3 0 0 0 0 0 0 0 0 0 1 1 1 0 0 0 0 0 0 0 0 0 0 0 0 0 0 1 4 8 10 10 9 7 6 6
61 50 37 29 27 27 22 12 6 4 2 1 1 2 3 3 3 2 1 0 0 0 0 0 0 0 0 0 0 0 0 0 0 0 0 2 5 8 9 8 7 6 6
60 59 56 52 52 55 51 36 24 18 13 9 9 10 11 10 9 5 2 0 0 0 0 0 0 0 0 0 0 0 0 0 0 0 0 0 1 2 3 3 3 3 2
55 60 67 71 76 80 78 67 53 43 35 29 27 23 19 16 13 8 3 0 0 0 0 0 0 0 0 0 0 0 0 0 0 0 0 0 0 0 0 0 0 0 0
53 59 69 79 87 91 91 85 75 62 50 42 37 29 21 16 13 8 3 1 0 0 0 0 0 0 0 0 0 0 0 0 0 0 0 0 0 0 0 0 0 0 0
52 58 68 79 87 91 91 85 74 60 44 34 27 20 15 11 9 6 3 1 0 0 0 0 0 0 0 0 0 0 0 0 0 0 0 0 0 0 0 0 0 0 0
52 58 68 78 86 90 85 73 57 41 28 17 11 7 6 5 4 4 2 1 0 0 0 0 0 0 0 0 0 0 0 0 0 0 0 0 0 0 0 0 0 0 0
56 61 70 78 84 85 76 61 44 30 18 9 3 1 1 1 1 1 0 0 0 0 0 0 0 0 0 0 0 0 0 0 0 0 0 0 0 0 0 0 0 0 0
62 65 73 79 80 76 67 54 42 28 15 5 1 0 0 0 0 0 0 0 0 0 0 0 0 0 0 0 0 0 0 0 0 0 0 0 0 0 0 0 0 0 0
63 66 72 75 71 64 56 47 37 23 10 2 0 0 0 0 0 0 0 0 0 0 0 0 0 0 0 0 0 0 0 0 0 0 0 0 0 0 0 0 0 0 0
61 64 68 69 64 56 47 39 29 16 5 0 0 0 0 0 0 0 0 0 0 0 0 0 0 0 0 0 0 0 0 0 0 0 0 0 0 0 0 0 0 0 0

GEFSSE_con_prob3kmehi_048.txt.gz
EHI
11 11 11 15 40 74 94 99 100 100 100 100 99 97 92 86 78 69 62 56 49 40 30 23 15 8 4 2 1 0 0 0 0 0 0 0 0 0 0 0 0 1 1
22 19 16 22 44 74 93 98 100 100 100 100 99 97 95 92 87 78 70 61 52 41 31 20 12 6 3 2 1 0 0 0 0 0 0 0 0 0 0 0 0 1 2
41 30 24 31 51 75 91 97 98 99 99 100 99 98 98 98 95 87 76 64 52 40 28 17 8 3 2 1 0 0 0 0 0 0 0 0 0 0 1 1 0 1 2
53 38 28 37 56 76 89 95 96 96 97 99 100 99 99 98 94 84 70 56 45 35 23 12 5 2 1 0 0 0 0 0 0 0 0 0 0 1 2 2 1 0 1
50 38 31 41 60 77 87 91 92 91 93 95 97 97 96 92 84 71 55 41 32 26 18 8 2 0 0 0 0 0 0 0 0 0 0 0 1 2 3 2 1 0 0
41 33 32 43 59 73 81 83 83 81 83 86 88 87 84 76 64 50 35 23 17 15 11 4 1 0 0 0 0 0 0 0 0 0 0 0 1 2 2 1 0 0 0
42 35 33 41 52 62 67 67 66 64 65 70 72 69 62 52 38 25 16 10 6 6 4 2 0 0 0 0 0 0 0 0 0 0 0 0 1 1 1 0 0 0 0
49 40 31 31 36 42 46 48 46 43 44 47 48 43 36 26 16 9 5 2 1 1 1 1 0 0 0 0 0 0 0 0 0 0 0 0 0 0 0 0 0 0 0
47 38 26 18 16 20 25 27 27 26 26 27 24 20 15 9 5 3 1 0 0 0 0 0 0 0 0 0 0 0 0 0 0 0 0 0 0 0 0 0 0 0 0
31 26 18 11 7 7 9 12 12 14 14 13 10 7 4 2 1 1 0 0 0 0 0 0 0 0 0 0 0 0 0 0 0 0 0 1 1 1 0 0 0 0 0
16 12 10 10 9 7 4 4 6 6 6 5 3 2 1 0 0 0 0 1 1 0 0 1 2 1 0 0 0 0 0 0 0 0 0 1 2 1 0 0 0 0 0
12 7 5 9 13 12 9 6 5 3 1 0 0 0 0 0 0 0 0 1 1 0 0 2 3 2 0 0 0 0 0 0 0 0 0 1 1 1 0 0 0 0 0
12 8 5 8 14 16 15 14 10 4 0 0 0 0 0 0 0 0 0 1 1 0 0 1 1 1 0 0 0 0 0 0 0 0 0 1 1 2 1 1 2 1 1
9 7 6 9 15 17 18 22 18 7 1 0 0 0 0 0 0 0 0 0 0 0 0 0 0 0 0 0 0 0 0 0 1 1 1 3 5 5 4 3 3 2 3
6 6 7 10 14 16 19 23 20 9 2 0 0 0 0 0 0 0 0 0 0 0 0 0 0 0 0 0 0 0 0 0 1 1 3 6 9 8 6 4 3 2 1
3 5 8 11 12 14 18 20 16 9 3 1 0 0 0 0 0 0 0 0 0 0 0 0 0 0 0 0 0 0 0 0 0 1 3 5 8 10 7 4 3 1 1
2 3 7 8 9 11 14 14 11 8 4 1 0 0 0 0 0 0 0 0 0 0 0 0 0 0 0 0 0 0 0 0 0 1 1 2 4 6 5 3 2 3 3
3 3 5 7 7 8 9 8 7 6 4 1 0 0 0 0 0 0 0 0 0 0 0 0 0 0 0 0 0 0 0 0 0 0 0 1 1 1 2 3 4 4 4
11 8 8 10 10 7 6 5 3 2 2 1 0 0 0 0 0 0 0 0 0 0 0 0 0 0 0 0 0 0 0 0 0 0 0 0 0 0 1 2 3 4 4
25 20 18 20 19 14 8 5 4 2 1 0 0 0 0 0 0 0 0 0 0 0 0 0 0 0 0 0 0 0 0 0 0 0 0 0 0 0 0 1 1 2 3
39 34 31 32 33 30 23 17 14 9 3 0 0 0 1 0 0 0 0 0 0 0 0 0 0 0 0 0 0 0 0 0 0 0 0 0 0 0 0 0 1 1 1
45 44 42 44 47 47 42 34 25 15 6 2 0 0 0 0 0 0 0 0 0 0 0 0 0 0 0 0 0 0 0 0 0 0 0 0 0 0 0 0 0 0 0
43 44 47 50 53 55 51 43 31 21 12 6 2 0 0 0 0 0 0 0 0 0 0 0 0 0 0 0 0 0 0 0 0 0 0 0 0 0 0 0 0 0 0
37 38 43 48 49 48 45 39 34 26 17 9 4 1 0 0 0 0 0 0 0 0 0 0 0 0 0 0 0 0 0 0 0 0 0 0 0 0 0 0 0 0 0
30 32 36 40 38 35 33 32 29 22 12 5 2 0 0 0 0 0 0 0 0 0 0 0 0 0 0 0 0 0 0 0 0 0 0 0 0 0 0 0 0 0 0
28 30 33 32 29 27 27 27 23 14 6 1 0 0 0 0 0 0 0 0 0 0 0 0 0 0 0 0 0 0 0 0 0 0 0 0 0 0 0 0 0 0 0

GEFSSE_con_prob3kmehi_054.txt.gz
EHI
32 30 23 11 6 15 33 50 57 55 47 39 34 34 32 26 22 20 15 9 6 7 12 20 22 17 11 7 5 4 4 4 3 2 2 1 0 0 0 0 0 1 1
51 41 26 13 10 20 40 58 68 69 65 59 54 50 46 40 34 28 22 15 11 9 12 15 16 12 8 5 4 3 2 1 1 1 1 0 0 0 0 0 1 1 1
66 49 26 17 19 33 53 71 82 86 86 84 80 73 65 59 51 42 33 24 17 14 11 10 8 5 3 3 2 1 0 0 0 0 0 0 0 0 0 0 1 1 1
58 44 28 25 33 48 67 82 92 95 96 96 94 88 80 72 63 51 39 29 21 15 11 7 4 2 1 2 1 0 0 0 0 0 0 0 0 0 0 0 1 1 0
40 35 34 37 45 59 75 88 95 97 98 99 99 96 89 81 69 54 40 28 20 15 11 6 3 1 0 0 0 0 0 0 0 0 0 0 0 0 0 0 0 1 1
28 27 35 44 50 61 76 88 95 97 99 100 100 98 93 86 73 54 37 27 20 15 11 7 4 2 1 0 0 0 0 0 0 0 0 0 1 1 0 0 0 1 2
25 22 26 37 46 56 71 84 92 96 99 100 99 97 93 85 70 50 33 24 20 16 11 7 5 4 2 1 0 0 0 0 1 0 0 2 4 3 1 0 0 1 1
21 17 17 22 29 41 58 74 84 90 94 97 97 93 88 79 62 41 27 21 19 16 10 5 3 3 2 1 0 0 0 0 0 0 0 2 5 4 1 0 0 0 0
13 11 9 8 10 19 36 54 69 79 85 89 89 84 77 65 47 31 21 18 17 15 9 4 2 1 1 0 0 0 0 0 0 0 0 3 5 3 0 0 0 0 0
8 7 4 1 1 4 13 26 42 58 67 70 70 64 53 39 27 17 12 13 14 11 7 4 3 2 1 0 0 0 0 0 0 0 2 6 7 3 0 0 0 0 0
13 9 4 1 0 0 1 6 15 28 37 40 39 34 23 14 9 9 10 10 9 7 4 3 2 2 1 0 0 0 0 0 0 0 6 12 10 3 0 0 0 0 0
26 15 5 2 1 1 1 1 2 6 10 13 13 10 6 3 3 7 10 8 4 4 3 2 1 1 0 0 0 0 0 0 0 0 8 16 10 2 0 0 0 0 0
31 18 6 2 1 2 3 3 3 2 1 3 5 4 2 3 4 5 6 4 2 2 1 1 0 0 0 0 0 0 0 0 0 1 8 14 9 2 0 0 0 0 0
23 15 6 3 2 3 5 5 4 3 3 6 9 8 5 4 4 4 2 1 1 1 1 1 0 0 0 0 0 0 0 0 0 1 7 13 10 4 2 2 2 2 2
16 12 7 4 2 3 6 6 3 2 4 8 11 9 5 4 4 4 3 1 0 1 1 0 0 0 0 0 0 0 0 0 1 2 7 13 12 9 7 5 3 4 4
13 11 7 5 4 4 5 5 3 2 4 6 8 7 5 5 5 5 5 4 2 1 1 1 1 1 0 0 0 0 0 1 2 3 6 10 12 12 11 7 3 3 3
13 12 10 7 6 7 6 4 2 2 4 6 7 8 8 10 12 11 10 10 8 5 5 5 5 3 2 1 1 1 1 3 4 6 7 7 8 10 11 10 5 3 2
16 17 14 10 10 12 10 7 6 7 8 9 11 14 16 18 20 18 18 21 21 17 15 14 11 8 5 3 3 3 4 5 6 6 6 6 5 7 9 10 7 4 3
20 22 20 17 18 19 17 16 17 19 20 19 19 22 26 27 27 26 28 33 34 30 27 23 18 14 10 7 5 4 4 5 6 4 3 3 5 5 6 6 5 4 2
24 27 29 28 31 33 31 30 31 33 34 31 28 29 31 33 32 31 36 42 42 37 33 27 22 18 12 9 5 3 2 3 3 1 0 1 3 3 3 3 3 2 1
29 34 39 42 46 51 50 47 46 46 43 38 32 29 29 31 34 33 36 44 44 37 32 26 21 15 10 7 5 3 2 1 1 0 0 1 1 1 1 1 2 1 0
36 41 47 53 58 62 64 63 61 55 46 35 29 26 23 24 28 29 31 36 38 33 27 22 17 11 6 4 4 3 2 1 0 0 0 0 0 0 0 1 1 1 0
43 48 54 58 63 68 70 71 70 60 46 35 28 23 19 17 19 21 22 25 27 25 19 15 11 7 3 1 1 1 1 1 1 0 0 0 0 0 0 0 0 0 0
48 55 60 62 66 69 71 71 68 58 45 35 28 21 14 11 12 12 13 14 14 13 10 7 5 3 1 0 0 0 0 0 0 0 0 0 0 0 0 0 0 0 0
50 56 61 62 64 68 69 67 60 47 35 28 22 15 8 5 5 5 5 4 4 4 3 2 1 0 0 0 0 0 0 0 0 0 0 0 0 0 0 0 0 0 0
51 55 58 58 61 67 68 63 53 39 25 19 16 10 4 1 1 1 0 0 0 1 0 0 0 0 0 0 0 0 0 0 0 0 0 0 0 0 0 0 0 0 0

GEFSSE_con_prob3kmehi_060.txt.gz
EHI
92 92 91 78 46 16 2 0 0 0 0 0 0 0 0 0 1 1 1 0 0 0 0 0 0 0 0 2 7 12 15 20 26 35 44 50 53 50 35 18 9 4 2
94 94 94 81 51 20 5 1 0 0 0 0 0 0 0 0 0 1 1 1 0 0 0 0 0 0 0 1 3 5 7 10 13 16 21 27 35 40 39 35 28 16 8
96 96 96 85 58 27 10 3 0 0 0 0 0 0 0 0 0 1 2 1 0 0 0 0 0 0 0 0 0 0 0 1 2 2 2 5 12 25 39 50 45 26 13
93 93 94 89 66 37 18 8 2 1 2 3 4 3 1 1 2 2 2 1 0 0 0 0 0 0 0 0 0 0 0 0 0 0 0 2 6 15 27 37 34 21 12
87 88 93 92 77 52 30 14 6 4 7 13 15 11 7 6 5 3 2 1 0 0 0 0 0 0 0 0 0 0 0 0 0 0 0 3 10 14 16 17 14 8 5
80 82 89 95 86 68 46 26 15 15 21 29 31 26 22 18 12 7 3 1 0 0 0 0 0 0 0 0 0 0 0 0 1 0 2 6 14 19 16 10 6 2 1
76 77 86 95 92 79 61 44 33 33 40 48 49 44 40 34 23 14 6 2 1 0 0 0 0 0 0 0 0 0 0 1 2 2 9 19 25 27 19 9 3 1 0
75 73 78 87 88 82 72 61 51 49 53 60 61 58 51 42 31 18 8 4 2 1 0 0 0 0 0 0 0 0 0 0 1 4 17 33 40 38 26 11 3 1 0
72 65 61 66 71 70 67 62 55 52 55 60 60 56 48 37 26 17 9 5 3 1 0 0 0 0 0 0 0 0 0 0 0 4 17 35 50 51 32 12 3 1 0
67 54 43 42 45 45 45 46 43 41 43 46 44 40 32 20 14 11 9 8 5 1 0 0 0 0 0 0 0 0 0 0 0 4 14 34 57 55 32 11 3 1 0
65 47 28 23 23 22 23 25 24 22 23 24 21 19 14 6 3 7 16 21 14 4 0 0 1 1 0 0 0 0 0 0 1 4 15 38 59 54 29 10 3 2 1
68 45 19 10 9 11 15 16 12 9 8 6 5 4 3 1 2 12 30 37 24 8 1 0 1 1 0 0 0 0 0 1 2 5 18 42 59 53 30 11 4 2 0
67 43 18 8 6 10 16 14 8 5 2 2 3 3 1 0 5 18 34 36 22 7 1 0 1 1 0 0 0 0 0 2 4 8 23 45 58 53 34 16 7 2 0
61 40 24 22 19 24 28 19 9 5 4 8 13 12 5 2 4 14 26 26 16 7 4 2 1 2 2 1 0 0 0 2 6 12 25 43 55 53 39 22 12 5 1
62 46 40 47 47 51 52 38 18 14 14 21 30 25 10 4 4 10 22 28 21 15 14 9 7 10 11 6 1 0 1 2 6 11 20 34 49 54 45 32 20 10 4
76 65 64 73 75 75 72 56 36 30 30 36 46 39 21 14 16 23 36 41 32 25 26 25 23 25 24 15 5 2 2 5 7 8 11 22 38 49 50 42 29 16 8
90 87 84 85 86 85 78 65 47 39 41 50 59 57 40 32 40 52 58 55 44 37 41 44 43 41 35 26 17 10 9 11 10 7 8 13 22 33 44 45 35 23 16
97 96 91 86 87 88 82 70 53 45 52 65 73 74 63 54 61 74 74 66 59 56 57 58 56 51 46 38 29 22 19 19 14 9 9 9 10 17 28 33 32 27 22
98 97 92 87 88 89 85 76 65 61 68 78 84 86 81 72 73 81 81 75 72 72 68 61 58 55 49 41 31 24 23 22 17 11 9 7 7 9 12 15 19 20 17
98 97 93 90 90 90 87 82 77 77 80 82 83 84 83 79 78 81 81 77 75 72 64 55 49 46 40 32 23 17 17 16 13 9 6 5 7 7 5 4 6 7 6
99 96 92 91 91 91 88 86 84 83 82 78 72 71 72 73 74 74 72 68 63 57 48 40 35 30 26 22 16 11 8 7 5 4 3 3 4 5 4 2 1 1 1
97 95 92 91 91 90 88 86 84 81 78 70 60 55 54 55 57 56 53 49 42 36 31 27 23 21 17 14 10 6 3 1 1 1 1 1 2 2 1 1 0 0 0
87 88 88 87 88 88 85 83 81 78 73 62 49 41 35 33 34 34 31 27 23 21 20 18 17 15 11 8 5 3 1 0 0 0 0 0 0 0 0 0 0 0 0
72 75 76 77 80 82 82 79 77 72 63 50 37 27 20 17 17 17 15 12 12 13 12 12 10 8 6 5 3 1 0 0 0 0 0 0 0 0 0 0 0 0 0
58 59 62 64 67 72 74 73 70 61 47 35 25 18 13 10 9 9 7 6 6 6 6 6 5 3 2 1 1 0 0 0 0 0 0 0 0 0 0 0 0 0 0
50 51 53 56 59 62 65 66 63 51 36 26 19 13 10 7 6 6 5 3 2 2 2 3 2 1 0 0 0 0 0 0 0 0 0 0 0 0 0 0 0 0 0

GEFSSE_con_prob3kmehi_066.txt.gz
EHI
10 13 16 16 19 22 22 20 17 18 25 34 40 41 39 40 38 33 27 18 11 6 2 0 0 0 1 4 5 3 1 5 10 14 22 29 31 35 36 30 18 9 7
26 24 23 23 24 23 20 16 13 15 22 28 32 32 31 29 25 21 17 12 7 3 1 0 0 0 0 1 2 1 1 3 8 13 20 25 27 32 37 36 25 14 11
52 41 33 34 34 28 20 13 9 11 15 19 20 20 19 15 11 7 6 4 2 0 0 0 0 0 0 0 0 0 0 1 4 9 12 13 19 30 41 44 36 25 18
68 56 44 45 46 37 23 13 7 6 8 9 9 9 8 6 4 2 1 1 0 0 0 0 0 0 0 0 1 2 1 1 1 3 3 3 10 25 40 45 41 30 22
73 63 56 57 57 45 27 14 6 2 2 3 2 2 2 1 1 0 0 0 0 0 0 0 0 0 0 0 1 2 2 1 0 0 0 0 7 23 37 41 36 27 20
73 67 63 65 63 50 33 18 8 2 1 0 0 0 0 0 0 0 0 0 0 0 0 0 0 0 0 0 0 1 1 0 0 0 0 0 7 25 39 39 30 21 16
77 70 63 64 64 56 42 27 14 7 3 1 0 0 0 0 0 0 0 0 0 0 0 0 0 0 0 0 0 0 0 0 0 0 0 0 9 27 40 37 28 18 14
85 74 60 55 57 58 51 38 24 13 6 2 1 0 0 0 0 0 0 0 0 0 0 0 0 0 0 0 0 0 0 0 0 0 0 1 11 27 34 30 25 18 13
90 80 63 50 48 52 51 43 31 19 10 4 1 0 0 0 0 0 0 0 0 0 0 0 0 0 0 0 0 0 0 0 0 0 0 4 16 29 28 21 17 14 12
85 80 69 56 47 44 42 38 30 21 12 6 2 0 0 0 0 0 0 0 0 0 0 0 0 0 0 0 0 0 0 0 0 0 0 7 23 32 26 16 11 10 8
76 74 68 60 51 44 38 33 27 19 12 7 3 1 0 0 0 0 0 0 0 0 0 0 0 0 0 0 0 0 0 0 0 0 2 11 26 33 27 19 13 10 7
73 68 61 56 51 45 43 39 31 21 12 6 3 1 0 0 0 0 0 0 0 0 0 0 0 0 0 0 0 0 0 0 0 0 5 15 25 30 29 24 19 13 8
70 64 54 47 42 41 45 44 35 23 12 5 2 1 0 0 0 0 0 0 1 1 1 0 0 0 0 0 0 0 0 0 0 0 7 19 26 28 29 27 21 14 9
65 58 49 41 34 34 38 38 29 18 8 3 1 0 0 0 0 0 0 1 2 2 1 0 0 0 0 0 0 0 0 0 0 0 8 21 29 30 31 30 23 14 10
60 53 44 37 31 29 29 25 18 11 5 1 0 0 0 0 0 0 0 1 2 1 1 0 0 0 0 0 0 0 0 0 0 0 7 21 30 31 33 31 25 17 12
58 50 38 30 28 26 22 15 10 6 2 0 0 0 0 0 0 0 0 1 1 0 0 0 0 0 0 0 0 0 0 0 0 0 5 16 25 27 28 30 28 22 17
61 52 36 27 26 25 17 9 5 3 1 0 0 0 0 0 0 0 0 0 0 0 0 0 0 0 0 0 0 0 0 0 0 0 3 9 14 16 19 23 26 24 20
70 60 47 40 39 35 26 16 10 8 5 2 0 0 0 1 1 1 1 1 1 0 0 0 0 0 0 0 0 0 0 0 0 0 2 4 6 7 10 14 18 20 18
77 71 64 62 61 56 48 37 27 21 15 8 4 1 2 3 3 2 2 2 2 1 0 0 0 0 0 0 0 0 0 0 0 1 1 1 2 3 4 6 10 11 12
77 75 74 76 75 71 66 58 47 37 27 19 11 6 5 6 6 4 3 2 2 1 0 0 0 0 0 0 0 0 0 0 0 0 0 0 1 1 1 3 4 5 5
68 69 72 77 78 76 71 66 57 44 32 23 16 11 9 8 7 6 5 3 1 1 0 0 0 0 0 0 0 0 0 0 0 0 0 0 0 0 0 1 1 1 1
55 57 62 68 73 73 69 63 54 42 30 20 14 11 11 10 8 8 7 4 2 2 1 0 0 0 0 0 0 0 0 0 0 0 0 0 0 0 0 0 0 0 0
43 44 46 51 58 62 60 55 47 38 28 18 10 8 8 7 7 7 6 4 3 3 2 1 1 0 0 0 0 0 0 0 0 0 0 0 0 0 0 0 0 0 0
31 32 31 32 38 45 48 45 40 33 25 15 7 4 3 4 4 5 4 3 2 2 2 2 1 0 0 0 0 0 0 0 0 0 0 0 0 0 0 0 0 0 0
18 19 20 20 23 29 33 33 29 24 17 10 4 1 1 3 3 3 3 2 1 1 1 1 1 0 0 0 0 0 0 0 0 0 0 0 0 0 0 0 0 0 0
10 11 14 17 20 22 25 25 22 17 12 7 3 1 1 2 3 3 2 1 0 0 0 0 0 0 0 0 0 0 0 0 0 0 0 0 0 0 0 0 0 0 0

GEFSSE_con_prob3kmehi_072.txt.gz
EHI
19 19 19 18 26 53 80 92 93 93 93 91 86 78 68 55 40 23 11 6 2 0 0 0 1 3 6 9 12 13 12 7 4 2 1 0 0 0 1 2 2 1 1
32 27 23 22 28 48 73 87 90 92 93 92 88 82 73 60 43 26 13 6 3 1 0 0 1 3 4 5 5 6 5 3 1 1 0 0 0 0 0 1 2 2 2
49 38 28 25 29 44 65 79 85 88 91 91 89 84 77 66 51 32 15 6 4 3 1 1 2 3 2 1 0 0 0 0 0 0 0 0 0 0 2 4 6 6 5
59 44 29 26 31 44 60 73 80 85 88 89 88 83 75 66 53 33 15 6 5 5 3 2 2 2 2 1 0 0 0 0 0 0 0 0 1 1 3 8 12 12 11
59 44 29 29 36 47 59 70 77 82 85 87 86 81 70 58 43 26 13 7 6 5 3 2 2 1 1 1 0 0 0 0 0 0 0 0 1 3 5 8 13 14 13
53 41 33 38 45 52 60 68 73 76 80 82 78 71 59 45 30 17 10 7 5 4 2 1 1 0 0 0 0 0 0 0 0 0 0 0 2 5 7 8 9 10 9
55 47 43 48 53 56 61 67 70 71 73 73 67 58 46 34 22 13 9 5 3 2 1 0 0 0 0 0 0 0 0 0 0 0 0 1 4 8 9 7 5 4 4
65 61 56 53 53 56 61 66 68 69 67 65 61 51 39 27 17 11 7 4 2 1 0 0 0 0 0 0 0 0 0 0 0 0 0 1 4 9 10 7 4 2 2
71 72 67 57 51 54 60 63 65 66 63 60 55 46 34 21 13 9 6 3 1 0 0 0 0 0 0 0 0 0 0 0 0 0 0 1 4 7 10 10 6 4 3
69 71 70 63 57 55 55 55 56 58 57 52 46 38 27 16 8 5 3 1 0 0 0 0 0 0 0 0 0 0 0 0 0 0 0 2 6 11 15 14 9 5 5
60 61 63 64 62 59 55 52 51 52 51 44 36 30 22 10 4 3 2 1 0 0 0 0 0 0 0 0 0 0 0 0 0 0 0 3 10 17 21 17 9 4 4
51 51 52 57 63 65 63 60 56 55 49 37 27 22 14 6 3 3 2 0 0 0 0 0 0 0 0 0 0 0 0 0 0 0 0 3 10 18 21 17 9 5 3
44 45 45 49 58 65 68 67 63 59 50 34 22 15 8 3 3 2 1 0 0 0 0 0 0 0 0 0 0 0 0 0 0 0 0 2 8 15 19 16 12 7 4
38 41 43 44 48 55 61 65 62 55 46 32 19 12 6 2 1 1 1 0 0 0 0 0 0 0 0 0 0 0 0 0 0 0 0 2 8 15 18 18 15 11 6
39 41 43 43 40 42 49 54 52 45 38 28 17 9 4 1 0 0 0 0 0 0 0 0 0 0 0 0 0 0 0 0 0 0 1 3 9 15 17 18 17 12 8
45 45 46 42 36 35 39 40 37 33 28 21 13 6 2 0 0 0 0 0 0 1 1 1 0 0 0 0 0 0 0 0 0 0 0 2 6 11 15 18 17 12 8
46 49 49 42 35 33 33 30 26 23 18 12 7 3 1 0 0 0 0 0 0 1 2 1 0 0 0 0 0 0 0 0 0 0 0 0 2 4 9 14 15 11 8
46 50 49 44 39 35 30 24 20 16 11 5 2 1 0 0 0 0 0 0 0 1 1 1 0 0 0 0 0 0 0 0 0 0 0 0 0 1 3 6 10 9 6
47 48 48 45 43 37 29 21 16 11 5 2 1 1 0 0 0 0 0 0 0 0 0 0 0 0 0 0 0 0 0 0 0 0 0 0 0 0 0 2 4 5 3
45 45 44 41 39 37 29 20 13 6 2 1 2 1 0 0 0 0 0 0 0 0 0 0 0 0 0 0 0 0 0 0 0 0 0 0 0 0 0 1 2 2 2
43 41 39 35 33 34 29 20 13 7 2 1 1 1 0 0 0 0 0 0 0 0 0 0 0 0 0 0 0 0 0 0 0 0 0 0 0 0 0 0 1 1 1
41 38 35 34 33 31 26 20 15 9 4 1 0 0 0 0 0 0 0 0 0 0 0 0 0 0 0 0 0 0 0 0 0 0 0 0 0 0 0 0 0 0 0
32 31 30 32 33 30 24 20 16 10 5 2 1 0 0 0 0 0 0 0 0 0 0 0 0 0 0 0 0 0 0 0 0 0 0 0 0 0 0 0 0 0 0
20 21 23 26 29 27 23 19 16 12 7 3 1 0 0 0 0 0 0 0 0 0 0 0 0 0 0 0 0 0 0 0 0 0 0 0 0 0 0 0 0 0 0
12 14 17 20 22 20 17 15 14 11 7 4 2 1 0 0 0 0 0 0 0 0 0 0 0 0 0 0 0 0 0 0 0 0 0 0 0 0 0 0 0 0 0
9 11 14 17 18 15 13 12 12 10 6 4 3 2 1 0 0 0 0 0 0 0 0 0 0 0 0 0 0 0 0 0 0 0 0 0 0 0 0 0 0 0 0

GEFSSE_con_prob3kmehi_078.txt.gz
EHI
25 39 48 44 36 30 28 31 37 37 33 29 24 20 14 10 7 5 5 3 2 4 11 18 21 20 18 18 17 14 12 12 13 10 6 2 0 0 0 0 0 1 1
37 48 57 56 51 43 40 45 52 55 52 48 42 34 26 17 10 8 7 5 4 8 14 20 23 22 20 20 17 13 10 9 8 5 2 1 0 0 0 0 1 2 3
48 55 62 69 71 63 57 63 72 75 74 70 62 53 41 28 18 13 11 8 7 9 13 17 20 20 19 16 13 9 6 4 3 1 0 0 0 0 0 0 2 3 3
54 57 63 74 82 78 72 76 83 84 83 80 74 64 52 38 26 18 15 11 9 8 9 10 12 14 12 8 6 4 2 1 1 0 0 0 0 0 0 0 2 2 2
53 57 68 78 84 84 80 81 85 85 84 83 78 70 60 49 36 24 17 13 10 7 6 5 7 8 7 4 2 1 0 0 0 0 0 0 0 0 0 0 1 1 0
50 57 71 82 85 84 81 81 84 85 86 85 81 75 68 57 44 30 19 12 8 6 4 4 6 6 4 3 1 0 0 0 0 0 0 0 2 3 2 0 0 0 0
51 57 71 83 85 82 80 82 85 87 88 87 83 78 72 62 48 33 21 12 7 5 4 5 6 6 4 3 2 1 0 0 0 0 0 1 5 8 5 1 2 2 2
54 58 68 75 76 75 76 80 85 87 88 86 83 80 74 62 46 33 22 13 8 6 6 6 6 5 3 2 2 1 0 0 0 0 0 2 8 11 7 4 4 4 4
51 56 62 61 59 58 61 69 79 85 86 84 81 77 70 55 39 28 22 16 11 7 6 6 6 5 2 1 1 0 0 0 0 0 0 3 9 11 7 4 5 5 5
46 52 56 53 46 39 37 46 60 71 75 73 70 65 54 38 25 18 17 18 13 7 4 5 5 4 1 0 0 0 0 0 0 0 1 7 12 10 6 4 4 4 6
50 54 56 53 43 30 25 30 36 45 50 48 46 43 32 20 12 12 19 23 15 7 5 5 5 3 1 0 0 0 0 0 0 0 3 10 13 9 5 4 4 4 5
60 59 58 55 46 35 33 35 29 26 26 23 24 25 20 14 10 13 23 24 15 7 5 6 5 2 1 0 0 0 0 0 0 0 6 12 10 6 4 5 5 4 4
64 61 58 56 52 47 47 47 38 29 25 23 26 29 27 24 18 15 18 17 10 5 3 5 3 1 1 1 0 0 0 0 0 2 7 10 8 4 4 5 8 7 6
61 58 56 58 60 62 61 58 53 46 40 40 45 46 40 33 24 17 15 11 6 2 2 2 2 2 1 1 0 0 0 0 1 2 5 6 5 4 4 5 8 9 8
56 53 54 60 66 73 75 72 66 60 55 54 57 54 44 35 27 23 21 16 7 4 3 3 3 2 1 1 0 0 1 1 1 1 3 4 5 5 5 5 6 7 7
55 53 53 60 68 77 81 79 71 65 62 60 59 54 45 36 32 29 26 19 12 8 7 6 4 2 0 0 0 0 1 2 1 0 1 3 5 6 6 6 6 5 4
56 55 52 53 59 68 74 73 65 60 61 63 61 55 47 39 37 35 28 20 15 14 14 13 9 5 3 2 1 1 2 3 2 1 2 4 5 6 5 6 7 5 4
51 53 50 44 45 54 63 65 60 57 61 64 62 57 50 43 41 39 31 23 20 21 22 19 12 7 6 5 4 4 4 4 4 4 3 4 5 5 4 3 4 4 3
44 49 48 41 39 46 56 61 62 62 63 63 61 56 52 48 45 42 37 31 27 26 24 19 14 11 9 7 5 5 4 4 4 3 2 3 5 4 2 1 1 2 1
39 45 45 40 41 47 55 60 62 61 60 57 54 51 48 46 44 43 41 36 31 28 24 20 17 14 9 6 4 3 2 2 2 2 2 3 3 2 1 0 0 0 0
33 37 39 38 42 48 54 58 59 56 49 45 43 39 36 35 35 36 35 34 31 29 26 21 17 11 6 6 6 4 2 1 2 3 3 2 1 1 0 0 0 0 0
31 35 38 40 43 48 51 54 55 48 40 34 31 28 25 24 25 26 26 26 26 26 23 19 14 8 5 6 7 5 3 3 3 2 2 1 0 0 0 0 0 0 0
33 37 41 44 45 47 48 50 48 41 34 28 23 19 17 16 17 17 17 17 18 18 16 14 12 9 7 5 4 4 3 3 3 1 0 0 0 0 0 0 0 0 0
32 36 41 44 46 47 47 47 42 36 29 23 16 11 9 8 8 8 8 10 11 11 10 8 7 7 6 4 2 2 2 1 1 1 0 0 0 0 0 0 0 0 0
29 32 36 41 44 45 45 43 37 30 23 15 10 6 5 4 4 3 4 5 6 6 5 4 4 5 5 4 2 1 1 0 0 1 0 0 0 0 0 0 0 0 0
29 29 32 37 42 43 44 41 33 25 17 10 7 5 4 4 4 3 3 3 3 3 3 3 4 4 4 4 3 2 1 0 0 1 0 0 0 0 0 0 0 0 0

GEFSSE_con_prob3kmehi_084.txt.gz
EHI
85 88 89 74 45 19 6 2 0 0 0 0 0 0 0 0 1 2 4 4 4 2 1 0 0 0 0 1 1 1 0 1 2 7 14 17 16 12 7 4 1 0 0
88 90 90 78 52 26 10 3 1 0 0 0 0 0 0 0 0 1 2 4 5 4 2 1 1 0 0 0 0 0 0 1 1 3 6 8 8 7 5 5 4 2 0
90 89 88 82 65 41 19 7 3 1 1 1 2 1 0 0 0 1 1 4 7 7 5 3 2 1 0 0 0 0 0 0 0 0 1 1 1 2 3 6 7 3 0
86 84 85 84 75 59 36 15 6 5 4 4 4 2 1 1 1 2 2 3 6 7 4 3 2 1 0 0 0 0 0 0 0 1 0 0 0 1 2 4 4 3 1
80 83 89 89 83 73 54 29 13 10 9 8 7 6 4 3 3 3 2 2 3 3 2 1 1 1 0 0 0 0 0 0 1 3 1 0 0 0 0 1 1 1 0
80 87 93 93 89 82 69 47 28 21 18 15 14 13 11 8 5 4 2 1 1 1 1 1 0 0 0 0 0 0 0 1 3 5 3 2 2 1 0 0 0 0 0
85 89 94 94 93 88 78 64 51 43 39 33 27 22 18 14 10 6 2 1 1 1 0 0 0 0 0 0 0 0 0 2 5 6 7 10 10 6 2 1 1 0 0
86 90 93 93 92 89 81 74 70 65 59 52 43 32 25 19 13 7 3 2 1 0 0 0 0 0 0 0 0 0 0 2 5 5 9 17 18 12 7 4 2 1 0
84 87 89 88 85 81 76 76 77 73 65 57 47 36 27 19 12 7 4 2 1 0 0 0 0 0 0 0 0 0 0 1 2 3 7 16 22 18 11 6 3 1 0
80 81 79 75 72 66 63 67 72 70 61 50 38 28 21 13 7 4 3 3 1 0 0 0 0 0 0 1 2 1 0 0 1 1 5 16 25 23 14 7 3 0 0
76 73 64 59 57 50 48 55 59 56 48 36 25 18 13 7 3 2 5 7 4 0 0 0 0 0 0 1 2 1 0 0 0 1 11 26 33 26 15 8 4 1 0
73 67 52 44 44 39 42 52 49 38 31 22 14 11 7 3 2 5 13 16 9 1 0 0 0 0 0 1 1 1 0 0 0 3 17 35 35 23 14 9 6 3 1
71 63 48 41 40 39 48 56 45 32 25 18 13 11 5 1 4 14 23 20 10 2 0 0 0 0 0 0 0 0 0 0 1 4 16 29 27 16 10 8 7 4 2
70 61 51 50 49 50 60 59 43 34 31 25 25 23 12 5 8 20 27 20 8 1 0 0 0 1 1 1 1 0 0 0 1 3 10 19 20 15 12 10 8 5 3
73 64 58 61 63 65 70 65 47 41 38 37 41 37 22 13 15 26 32 24 10 5 6 4 3 4 6 6 4 2 2 2 3 4 8 17 22 21 18 15 11 8 6
77 72 68 70 71 73 75 71 58 50 48 49 52 47 31 24 29 37 40 33 19 17 21 18 12 11 11 9 7 6 6 6 8 9 10 14 19 18 15 13 11 9 7
75 75 74 74 73 73 75 74 66 60 59 60 60 54 41 36 43 48 46 39 30 31 37 33 23 19 17 13 9 9 10 11 13 14 11 9 9 8 5 6 7 7 6
72 73 74 74 75 74 74 75 70 67 66 66 65 60 49 43 48 53 51 45 42 42 42 36 29 25 22 17 11 10 11 13 13 11 7 5 5 3 1 1 3 4 4
70 71 72 74 75 74 73 73 71 68 66 64 63 58 50 45 47 53 54 52 51 47 38 30 30 28 23 16 10 7 10 11 9 6 5 5 6 5 2 0 1 2 1
68 68 70 72 73 70 66 63 64 63 59 56 54 52 50 46 46 49 52 54 55 48 34 26 28 26 20 12 6 3 6 7 6 5 4 5 5 4 2 1 1 1 1
63 64 66 66 64 61 56 52 53 51 47 45 45 47 50 49 46 44 46 51 53 46 32 27 26 21 15 10 5 2 2 3 3 4 4 3 3 2 1 1 1 1 1
57 58 60 58 55 52 48 43 41 39 37 34 33 36 41 43 41 38 39 43 44 38 30 27 25 18 11 8 6 3 1 1 2 3 3 1 1 1 0 0 0 0 0
48 50 52 51 50 46 41 36 31 28 26 22 20 22 25 28 29 30 29 30 29 26 23 21 19 15 9 6 5 3 1 0 1 1 1 0 0 0 0 0 0 0 0
42 44 46 47 46 43 39 34 26 21 17 13 12 13 13 15 17 19 18 17 17 16 13 11 11 10 7 5 4 3 1 0 0 0 0 0 0 0 0 0 0 0 0
38 40 41 41 40 40 40 36 27 18 13 9 7 6 7 8 9 11 11 10 10 10 8 6 7 7 6 4 3 2 1 0 0 0 0 0 0 0 0 0 0 0 0
36 37 38 37 34 36 39 37 28 17 11 8 4 2 3 5 7 7 8 8 8 7 6 6 6 7 7 5 3 2 1 0 0 0 0 0 0 0 0 0 0 0 0

GEFSSE_con_prob3kmehi_090.txt.gz
EHI
13 20 26 24 21 20 21 24 28 30 32 38 44 47 50 51 47 39 30 24 20 16 10 6 4 1 0 0 0 0 1 2 2 1 2 7 7 6 6 4 1 0 0
23 26 28 27 23 21 21 23 26 28 29 33 37 40 42 43 40 33 25 20 16 11 7 5 3 2 1 0 0 0 0 1 1 0 2 5 6 5 5 3 1 0 0
43 39 35 33 30 25 20 18 19 21 21 23 25 27 28 30 30 25 19 14 9 5 2 2 2 2 1 0 0 0 0 0 0 0 1 2 4 5 6 4 1 0 0
60 56 48 45 43 35 23 13 12 14 14 14 14 15 16 19 21 19 14 9 5 2 0 0 0 1 1 0 0 0 0 0 0 0 0 0 2 4 5 3 1 0 0
69 67 63 60 56 46 30 16 11 11 11 9 8 8 8 10 12 11 8 5 3 1 0 0 0 0 0 0 0 0 0 0 0 0 0 0 0 1 1 1 0 0 0
70 72 74 72 65 54 40 26 17 12 8 5 4 4 4 4 4 4 3 2 1 1 0 0 0 0 0 0 0 0 0 0 0 0 0 0 0 1 1 1 0 0 0
71 76 82 82 75 63 50 36 25 16 9 4 2 3 3 1 1 1 1 0 0 0 0 0 0 0 0 0 0 0 1 0 0 0 0 0 1 4 5 2 0 0 0
77 81 86 85 79 70 57 45 35 26 17 9 5 3 2 1 0 0 0 0 0 0 0 0 0 0 0 0 0 0 1 1 0 0 0 0 2 7 7 4 1 1 0
81 84 87 84 78 72 63 53 44 37 28 20 12 5 1 0 0 0 0 0 0 0 0 0 0 0 0 0 0 0 0 1 0 0 0 0 3 7 8 5 2 1 1
81 83 85 84 80 76 69 58 49 44 38 30 19 9 2 0 0 0 0 0 0 0 0 0 0 0 0 0 0 0 0 0 0 0 0 0 2 6 7 5 3 2 1
81 83 85 87 86 85 77 64 55 50 46 37 25 13 6 1 0 0 0 0 0 0 0 0 0 0 0 0 0 0 0 0 0 0 0 0 2 4 5 5 5 4 2
81 83 87 89 90 90 85 75 66 60 54 43 31 20 11 4 1 0 0 0 0 0 0 0 0 0 0 0 0 0 0 0 0 0 0 0 1 3 4 5 5 3 2
80 80 81 82 85 86 85 81 74 66 58 46 35 26 15 6 2 1 0 0 0 0 0 0 0 0 0 0 0 0 0 0 0 0 1 2 4 5 7 6 4 4 4
76 73 69 66 66 69 74 75 70 64 55 44 35 27 17 7 2 1 0 1 0 0 0 0 0 0 0 0 0 0 0 0 1 2 5 9 11 10 10 8 6 7 7
70 66 57 50 46 47 54 60 58 53 46 36 29 23 15 7 2 1 1 1 0 0 0 0 0 0 0 0 0 0 0 0 2 4 7 12 14 13 11 9 8 8 7
63 59 48 39 35 35 39 44 44 42 37 28 21 17 12 6 2 2 2 1 0 0 0 0 0 0 0 0 0 0 0 0 1 2 4 7 11 11 10 9 9 7 5
57 53 44 35 31 31 32 35 35 33 29 21 15 13 10 6 3 3 3 1 0 0 0 0 0 0 0 0 0 0 0 0 0 1 1 2 5 7 8 8 8 6 4
50 48 41 34 30 28 29 31 30 25 21 17 14 11 8 5 4 4 3 1 0 0 0 0 0 0 0 0 0 0 0 0 0 0 0 1 1 3 4 5 5 4 3
39 38 34 31 28 27 29 30 25 19 16 13 12 11 8 6 5 5 3 1 0 0 0 0 0 0 0 0 0 0 0 0 0 0 0 0 0 1 1 2 3 2 2
28 28 27 25 25 27 32 32 24 17 13 11 10 9 8 8 7 6 4 1 0 0 0 0 0 0 0 0 0 0 0 0 0 0 0 0 0 0 0 1 1 1 1
23 22 21 20 20 24 29 28 21 16 12 7 5 4 5 6 7 6 5 3 1 0 0 0 0 0 0 0 0 0 0 0 0 0 0 0 0 0 0 0 0 0 0
20 18 16 17 18 21 23 22 18 15 10 5 2 1 1 2 3 4 5 4 2 1 0 0 0 0 0 0 0 0 0 0 0 0 0 0 0 0 0 0 0 0 0
14 13 13 15 18 20 21 19 16 13 8 5 3 2 1 1 1 2 4 4 2 1 0 0 0 0 0 0 0 0 0 0 0 0 0 0 0 0 0 0 0 0 0
9 10 11 13 16 18 18 16 13 10 7 5 3 2 2 2 2 2 3 3 1 0 0 0 0 0 0 0 0 0 0 0 0 0 0 0 0 0 0 0 0 0 0
8 8 9 11 12 12 12 11 9 7 5 4 3 1 1 1 1 2 2 2 1 0 0 0 0 0 0 0 0 0 0 0 0 0 0 0 0 0 0 0 0 0 0
9 8 9 9 8 7 8 7 6 4 4 3 2 1 0 0 0 1 1 2 1 0 0 0 0 0 0 0 0 0 0 0 0 0 0 0 0 0 0 0 0 0 0

GEFSSE_con_prob3kmehi_096.txt.gz
EHI
33 39 45 44 44 54 71 86 94 97 98 97 93 87 75 55 38 27 17 10 6 6 4 1 0 0 0 1 2 2 1 1 0 0 0 0 0 0 0 0 0 0 0
49 51 53 53 52 59 72 85 92 95 97 96 94 91 81 65 47 32 21 14 10 8 6 2 0 1 1 2 3 2 1 0 0 0 0 0 0 0 0 0 0 0 0
72 65 61 61 64 66 73 82 89 93 94 94 94 91 84 72 57 40 28 21 17 12 7 4 2 3 3 3 2 1 0 1 1 0 0 0 0 0 0 0 0 0 0
84 74 64 66 70 71 75 80 83 88 90 90 90 87 81 73 62 49 37 28 22 16 10 6 4 5 3 2 1 1 1 2 1 1 1 0 0 0 0 0 0 0 1
83 77 71 74 76 75 78 79 77 78 81 82 81 79 74 69 64 56 44 32 24 19 13 8 5 4 2 1 2 2 2 2 1 0 0 0 0 0 0 0 0 0 1
80 79 81 85 85 82 80 77 71 67 69 69 66 63 60 57 57 53 42 31 24 18 12 8 4 3 2 2 2 2 2 1 0 0 0 0 0 0 0 0 0 0 1
81 82 85 90 91 87 83 79 72 67 64 60 54 47 44 44 44 41 33 25 18 13 8 5 3 3 3 3 2 1 1 0 0 0 0 0 0 1 0 0 0 0 0
85 85 87 90 90 88 85 83 79 74 67 58 47 37 34 35 33 28 23 17 11 7 4 3 2 3 3 4 3 2 0 0 0 0 0 0 0 0 0 0 0 0 0
84 87 89 88 88 88 87 84 83 79 70 56 42 31 25 25 23 18 13 10 6 3 1 1 1 1 3 4 4 3 1 0 0 0 0 0 0 0 0 0 0 0 0
78 82 86 88 88 90 89 86 83 78 69 55 41 28 18 14 13 10 7 5 3 2 1 0 0 1 2 3 3 2 1 0 0 0 0 0 0 0 0 1 0 0 0
68 73 81 87 90 91 91 88 83 78 68 57 46 34 22 13 9 8 5 2 1 1 0 0 0 0 1 2 2 1 0 0 0 0 0 0 0 0 0 0 0 0 0
60 67 77 84 87 89 90 88 85 80 71 62 55 47 34 22 15 11 6 3 2 0 0 0 0 0 0 1 1 0 0 0 0 0 0 0 0 0 0 1 1 0 1
55 63 71 76 79 81 84 86 85 82 75 67 62 56 44 32 23 16 9 6 4 1 0 0 0 1 0 0 0 0 0 0 0 1 2 4 3 2 1 2 2 1 1
55 60 64 68 71 75 77 78 79 78 74 69 65 61 52 39 28 18 10 6 5 2 1 0 0 0 0 0 0 0 1 1 2 4 7 8 6 3 2 3 2 1 1
57 59 61 62 66 69 69 68 69 69 68 65 62 61 55 43 29 18 10 5 4 3 2 1 1 1 0 0 0 1 1 2 3 6 8 9 7 4 3 4 3 2 2
55 58 60 60 61 61 60 60 61 60 58 57 55 53 51 42 29 17 10 5 4 4 3 2 2 2 1 0 0 1 1 1 2 3 5 6 7 7 6 5 3 2 3
50 53 55 55 53 51 50 50 51 51 50 48 46 43 43 38 26 16 10 6 4 4 3 2 3 2 1 0 0 0 0 0 0 1 1 3 6 7 7 6 4 2 2
43 45 46 44 43 41 41 40 41 43 43 40 37 36 35 31 23 15 10 7 4 3 3 3 2 1 0 0 0 0 0 0 0 0 0 1 3 5 5 6 5 3 2
34 35 36 34 31 30 30 30 30 32 33 31 27 27 25 23 19 15 11 8 5 3 2 2 2 1 0 0 0 0 0 0 0 0 0 1 2 2 3 3 3 2 2
27 27 28 25 21 20 23 23 21 20 21 20 18 16 14 13 13 11 8 6 5 3 2 1 1 0 0 0 0 0 0 0 0 0 0 0 1 1 1 1 1 1 1
20 19 19 17 14 15 20 21 17 14 13 12 10 7 6 5 6 6 4 3 3 2 1 0 0 0 0 0 0 0 0 0 0 0 0 0 0 0 0 0 0 0 0
11 12 11 10 10 11 14 16 14 10 9 9 7 3 2 1 1 2 2 1 1 1 0 0 0 0 0 0 0 0 0 0 0 0 0 0 0 0 0 0 0 0 0
6 6 6 5 5 6 7 8 9 7 6 5 4 2 1 0 0 1 1 0 0 0 0 0 0 0 0 0 0 0 0 0 0 0 0 0 0 0 0 0 0 0 0
3 4 4 3 2 3 4 6 7 7 5 4 3 2 0 0 0 0 0 0 0 0 0 0 0 0 0 0 0 0 0 0 0 0 0 0 0 0 0 0 0 0 0
1 3 4 4 3 2 2 4 6 6 5 4 2 1 0 0 0 0 0 1 1 0 0 0 1 0 0 0 0 0 0 0 0 0 0 0 0 0 0 0 0 0 0
1 2 4 5 4 2 1 3 5 5 5 3 1 0 0 0 0 0 0 1 1 1 0 0 1 0 0 0 0 0 0 0 0 0 0 0 0 0 0 0 0 0 0

GEFSSE_con_prob3kmehi_102.txt.gz
EHI
35 36 32 25 21 24 34 45 50 45 36 29 24 19 15 11 8 5 6 8 8 6 3 2 3 4 3 1 0 1 2 2 1 0 0 0 0 0 0 0 0 0 0
44 43 39 33 30 34 46 58 63 59 53 45 38 31 25 18 12 8 9 10 9 7 3 2 4 5 4 2 2 3 4 3 1 0 0 0 0 0 0 0 0 0 0
53 48 43 42 45 52 65 75 79 78 75 67 60 54 46 35 26 19 15 14 13 9 5 4 5 6 5 4 4 5 5 3 2 1 0 0 0 0 0 0 0 0 0
47 43 42 46 55 66 77 85 88 89 88 83 78 75 68 57 45 33 24 21 18 13 8 6 6 7 7 5 6 6 5 3 2 1 0 0 0 0 0 0 0 0 0
34 35 42 51 61 72 82 88 92 94 94 92 89 87 82 73 60 45 33 27 24 18 11 7 8 10 8 6 6 6 4 2 1 0 0 0 0 0 0 0 0 0 0
24 30 43 55 64 73 83 88 91 94 96 96 94 91 88 82 70 53 38 31 27 22 14 8 8 10 9 6 5 4 2 1 0 0 0 0 0 0 0 0 0 0 0
20 28 42 54 62 70 78 85 89 91 94 95 93 91 89 86 75 60 45 35 30 25 18 10 7 8 7 5 3 1 0 0 1 0 0 1 1 1 0 0 0 0 0
19 26 37 42 46 56 65 74 82 86 88 91 92 90 86 82 75 64 54 44 34 27 21 12 6 6 6 5 2 1 0 0 0 0 0 1 1 1 0 0 0 0 0
16 22 25 23 24 32 42 54 66 73 77 84 87 83 77 72 65 59 54 46 36 27 21 13 7 6 5 4 2 1 0 0 0 0 0 1 1 1 1 1 1 0 0
18 19 19 15 12 14 21 34 47 56 62 69 72 69 61 51 42 37 38 38 33 24 17 12 9 8 5 3 1 0 0 0 0 0 0 1 2 1 1 1 1 0 0
31 27 24 20 16 13 17 25 32 37 42 43 47 48 38 24 18 18 28 37 30 21 16 13 12 9 4 1 0 0 0 0 0 0 1 2 2 1 0 0 0 0 0
47 39 33 31 26 22 26 32 30 30 30 26 29 33 26 17 12 16 34 40 30 20 15 13 11 6 2 0 0 0 0 0 0 0 2 2 2 1 1 1 1 1 0
54 46 40 41 37 32 38 44 41 42 43 39 41 44 41 35 26 26 36 37 27 19 14 12 8 3 0 0 0 0 0 0 0 3 6 7 5 3 3 2 2 1 1
47 44 42 45 46 44 46 52 54 57 62 64 67 68 62 54 42 36 38 36 29 22 20 17 10 4 1 0 0 0 0 1 2 7 12 12 9 6 4 3 2 1 1
37 37 37 43 50 53 53 56 57 60 64 70 75 75 69 61 54 49 48 46 38 32 30 25 18 12 8 4 2 2 2 4 7 11 14 12 9 6 4 3 3 2 1
32 33 36 40 47 53 54 54 54 55 59 62 66 67 63 62 61 60 59 55 48 41 38 34 28 24 20 13 8 5 5 7 10 12 11 9 8 6 5 5 5 3 2
31 34 37 37 42 48 49 48 46 48 52 55 55 55 56 58 62 64 63 60 55 49 46 44 39 37 34 26 17 10 7 9 11 10 8 8 8 7 6 7 7 5 4
32 35 37 37 40 47 49 47 43 43 47 49 49 50 53 54 57 60 60 60 58 54 54 53 51 50 45 34 24 16 11 12 11 8 6 8 10 9 9 10 9 7 6
32 36 38 38 41 48 52 49 45 44 45 46 47 50 53 52 51 53 54 54 52 52 54 54 54 54 47 34 22 16 14 12 10 8 6 6 9 12 11 9 8 7 6
27 32 36 37 42 49 52 50 46 44 44 45 47 50 50 47 45 46 48 47 43 43 44 45 47 47 41 30 17 11 9 6 5 5 4 4 8 10 9 6 5 4 4
21 24 28 32 39 47 52 50 45 42 43 43 45 47 45 40 38 41 43 43 40 38 38 38 39 38 36 30 19 9 4 1 1 1 1 3 5 5 5 3 2 1 2
19 19 21 23 30 40 47 47 43 41 40 39 38 39 37 33 33 36 39 39 37 36 34 34 34 34 33 30 22 11 4 2 1 0 1 2 3 2 2 1 0 0 1
18 17 17 19 22 29 35 37 37 36 33 30 29 28 26 26 27 29 31 32 31 30 29 28 27 28 29 26 20 13 9 5 2 1 0 1 1 1 0 0 0 0 0
13 13 16 18 18 20 24 26 28 28 24 23 24 23 20 19 18 19 22 25 26 24 22 20 18 19 21 17 14 13 12 9 4 1 0 0 0 0 0 0 0 0 0
9 11 14 16 16 17 18 21 24 24 20 19 22 22 18 14 12 11 13 18 20 18 16 14 13 12 13 11 9 9 10 8 5 2 1 0 0 0 0 0 0 0 0
8 10 12 12 14 16 16 19 25 25 20 19 21 20 16 12 9 7 7 11 14 14 12 10 10 9 9 9 7 6 7 7 5 3 2 1 0 0 0 0 0 0 0

GEFSSE_con_prob3kmehi_108.txt.gz
EHI
62 59 57 48 30 14 5 1 0 0 0 0 0 0 0 1 5 9 11 9 4 1 0 0 0 0 0 0 0 0 0 2 7 13 15 13 11 7 3 2 2 1 0
65 62 59 50 31 13 4 1 0 0 0 0 0 0 0 1 3 5 8 7 4 1 1 1 0 0 1 1 0 0 0 1 3 5 6 6 5 4 2 3 4 2 0
63 58 54 47 31 14 6 3 1 1 0 1 1 0 0 0 1 2 3 4 3 3 3 2 2 1 2 2 1 0 0 0 0 0 0 0 1 1 2 4 4 2 1
46 45 46 44 31 16 10 7 5 3 3 3 3 1 0 0 1 1 1 2 3 5 5 5 4 4 4 3 1 0 0 0 0 0 0 0 0 1 2 3 2 1 1
29 35 44 43 31 20 15 12 10 9 8 9 9 5 2 2 3 3 1 2 4 6 6 6 6 6 4 2 1 0 0 0 0 0 0 0 1 1 2 2 1 1 1
27 34 42 43 32 21 17 16 16 15 16 17 16 12 7 7 8 6 4 4 5 6 7 7 6 6 4 1 0 0 0 0 1 1 2 2 2 3 3 2 1 0 1
37 36 39 43 36 23 17 18 20 22 25 25 24 19 16 15 14 11 10 9 8 7 7 7 6 4 3 1 0 0 0 1 3 3 6 8 6 5 4 2 1 0 0
45 38 36 40 37 27 21 21 24 29 34 36 32 26 23 22 19 16 15 15 13 10 7 6 5 4 3 1 0 0 0 3 5 5 9 13 11 8 6 2 0 0 0
45 36 28 29 29 25 22 25 30 36 41 43 37 30 25 22 18 15 15 16 14 9 6 5 4 3 3 2 1 0 0 3 5 5 7 11 12 11 8 2 0 0 0
41 30 20 18 17 13 14 22 31 37 41 41 33 25 21 16 11 8 10 14 12 6 4 4 3 3 3 2 1 0 0 2 3 4 6 9 11 12 8 3 0 0 0
41 29 18 15 12 6 8 17 23 26 29 28 21 16 12 7 4 4 12 21 17 7 4 3 3 2 1 1 0 0 0 0 1 4 10 15 16 15 10 4 0 0 0
40 31 23 20 16 12 16 19 14 12 16 14 14 14 9 4 5 12 28 38 29 14 7 5 3 1 0 0 1 1 0 0 1 5 14 22 23 21 15 8 3 1 0
35 31 28 27 25 25 29 26 14 13 17 14 17 22 14 8 12 25 43 47 35 20 11 8 5 2 1 1 2 2 1 1 3 8 18 27 30 26 20 13 6 2 0
35 32 30 33 35 40 44 36 25 25 29 27 32 36 26 17 20 33 47 46 33 19 12 10 8 4 2 2 3 3 2 3 7 13 20 28 33 30 23 15 8 3 1
45 41 41 46 51 57 60 51 39 40 42 43 48 48 37 27 26 36 48 46 32 21 16 13 10 9 9 8 9 10 10 10 13 18 22 27 31 29 22 16 11 6 4
52 52 56 61 66 71 71 63 52 51 53 54 58 56 45 36 37 44 51 47 34 27 26 23 18 19 21 20 21 22 22 21 21 24 25 24 23 22 20 17 13 10 7
51 55 61 66 71 74 71 63 56 56 60 62 63 61 52 46 49 52 53 50 41 37 39 37 31 30 32 32 31 30 29 29 29 29 26 19 15 14 15 15 14 12 11
50 54 58 62 67 68 64 58 55 59 65 67 67 64 58 53 54 54 53 53 52 51 49 44 41 39 40 39 35 31 30 32 31 29 24 17 12 8 9 12 13 12 11
49 52 54 57 61 62 59 57 56 60 65 67 66 64 61 57 56 55 54 54 58 60 55 49 46 45 43 37 30 27 28 30 30 27 22 17 12 9 7 8 9 9 8
46 50 53 55 57 58 58 59 60 60 62 63 64 63 63 61 58 55 54 54 57 58 55 51 50 47 41 31 22 19 22 24 24 23 19 15 13 11 8 6 5 5 6
44 46 50 52 54 56 58 61 62 61 60 59 59 60 61 59 55 53 53 54 55 53 50 49 49 46 37 28 20 16 15 15 15 15 15 13 12 10 8 5 4 3 2
38 41 45 49 52 56 58 60 61 60 58 54 55 57 57 53 49 49 52 53 52 49 45 44 43 39 32 25 20 15 10 8 7 8 9 11 10 9 7 5 3 1 1
26 31 39 45 50 52 54 55 56 56 55 53 53 54 52 48 44 45 47 47 47 44 40 37 34 30 24 20 18 13 8 5 4 4 5 7 7 5 4 4 2 1 1
16 21 29 36 41 43 45 47 50 51 51 51 50 50 48 44 42 41 40 41 43 41 36 30 27 24 18 15 14 12 7 4 2 1 2 3 3 2 1 1 1 0 1
12 16 22 26 30 33 34 37 42 45 45 42 42 44 44 42 40 38 38 38 38 37 32 27 25 23 18 13 12 11 7 3 1 0 0 0 0 0 0 0 0 0 0
11 14 19 22 24 26 27 30 35 39 39 35 34 38 41 41 40 37 36 36 35 32 30 27 24 22 18 14 12 11 7 2 0 0 0 0 0 0 0 0 0 0 0

GEFSSE_con_prob3kmehi_114.txt.gz
EHI
10 14 22 31 39 40 34 27 24 23 24 26 31 39 45 44 38 31 24 16 7 2 0 0 0 0 0 0 1 2 2 2 3 5 7 9 10 10 8 4 2 1 0
28 28 31 37 42 41 33 25 20 19 20 21 24 30 35 33 29 25 21 14 7 2 0 0 0 0 0 1 1 1 2 2 3 4 8 9 10 9 7 4 1 0 0
55 48 43 46 48 42 33 23 17 14 14 14 15 18 20 19 17 17 16 12 6 1 0 0 0 0 0 1 2 2 2 2 2 3 4 5 5 6 5 2 1 0 0
69 60 52 53 54 45 32 22 15 10 8 8 9 10 10 10 9 10 10 8 4 1 1 1 1 0 0 1 1 1 1 1 1 1 1 0 1 2 2 1 0 0 0
70 64 57 59 60 50 34 21 12 6 4 5 6 5 4 3 4 4 4 3 2 1 1 2 1 0 0 0 0 0 0 0 1 0 0 0 0 0 0 0 0 0 0
71 65 63 66 65 55 38 23 13 6 2 2 3 2 1 1 1 1 1 1 1 0 1 2 1 0 0 0 0 0 0 0 0 0 0 0 0 1 1 0 0 0 0
70 65 65 69 67 59 43 27 16 8 2 1 1 0 0 0 0 0 0 0 0 0 0 0 0 0 0 0 0 0 0 0 0 0 0 0 1 3 3 1 1 0 0
64 62 61 61 60 57 45 30 19 10 4 1 1 1 1 0 0 0 0 0 0 0 0 0 0 0 0 0 0 0 1 0 0 0 0 0 3 6 5 3 2 1 0
59 59 56 51 48 48 42 30 21 13 6 3 2 3 2 1 0 0 0 0 0 0 0 0 0 0 0 0 0 0 1 1 0 0 0 1 4 8 7 6 4 2 1
55 56 53 47 44 42 35 26 20 14 7 3 2 2 1 0 0 0 0 0 1 0 0 0 0 0 0 0 0 0 0 1 0 0 0 1 5 10 9 6 5 3 2
50 50 49 48 46 40 31 23 16 11 6 2 2 1 1 1 1 0 1 1 1 0 0 0 0 0 0 0 0 0 0 0 0 0 0 1 5 10 10 7 4 3 1
41 39 39 42 43 37 30 23 16 9 5 3 3 3 2 2 1 1 1 1 1 1 0 0 0 0 0 0 0 0 0 0 0 0 0 2 7 11 11 9 6 3 1
30 26 26 29 31 30 28 24 17 10 5 4 4 4 4 2 1 1 1 3 3 3 2 1 0 0 0 0 0 0 0 0 0 0 0 3 9 12 12 11 9 6 4
20 16 14 14 16 19 22 19 13 7 4 3 4 5 4 2 1 2 4 6 7 7 5 3 1 0 0 0 0 0 0 0 0 0 1 4 8 10 11 11 11 9 7
11 10 9 9 9 12 14 11 6 3 2 2 3 4 5 2 2 6 8 9 9 9 7 4 2 1 0 0 0 0 0 0 0 1 3 5 8 10 12 12 11 10 8
7 6 7 9 10 13 13 10 6 4 3 3 3 5 5 4 4 8 11 10 9 7 5 5 3 1 0 0 0 0 0 0 0 1 3 5 8 11 14 14 12 10 8
9 9 9 10 13 17 16 15 12 10 8 7 6 6 7 7 7 10 11 10 7 5 4 4 3 1 0 0 0 0 0 0 0 1 2 3 5 8 12 13 11 9 7
12 13 13 13 16 18 19 19 18 15 13 12 11 11 12 11 11 13 12 8 6 5 3 2 1 1 0 0 0 0 0 0 0 0 0 1 2 5 8 8 8 8 6
13 14 15 15 17 19 21 23 24 22 19 18 18 17 16 16 14 13 13 9 7 6 3 1 1 1 0 0 0 0 0 0 0 0 0 0 1 3 4 4 5 6 6
13 14 14 14 16 20 23 26 29 27 24 22 22 20 19 17 14 14 14 12 9 7 5 2 1 1 0 1 1 0 0 0 0 0 0 0 0 1 2 3 4 5 6
14 13 13 12 13 18 23 27 28 26 23 22 21 19 17 16 15 15 14 13 11 9 7 5 2 2 2 2 2 1 0 0 0 0 0 0 0 0 1 2 3 4 4
11 11 11 10 10 13 19 22 23 22 21 20 18 15 13 15 17 16 14 12 10 10 9 7 5 4 5 4 3 2 0 0 0 0 0 0 0 0 0 1 1 2 2
6 6 7 7 7 9 12 15 16 18 17 16 14 11 10 14 18 17 14 11 9 9 7 6 6 6 7 6 3 1 0 0 0 0 0 0 0 0 0 0 0 1 1
2 2 3 4 4 5 6 8 10 13 12 11 9 6 7 11 14 14 11 8 6 6 4 4 4 6 6 6 4 1 0 0 0 0 0 0 0 0 0 0 0 0 0
2 2 3 3 3 2 2 3 6 7 7 6 5 4 4 6 8 9 6 4 2 2 1 1 2 3 3 3 3 2 1 0 0 0 0 0 0 0 0 0 0 0 0
3 3 3 3 3 2 1 2 4 4 4 4 3 3 3 4 6 6 4 2 0 0 0 0 0 1 1 1 2 2 1 0 0 0 0 0 0 0 0 0 0 0 0

GEFSSE_con_prob3kmehi_120.txt.gz
EHI
11 12 13 13 24 49 74 85 87 89 89 86 80 65 44 26 15 9 5 1 0 0 0 0 0 0 0 0 0 0 0 0 0 0 0 0 0 1 2 1 0 1 1
20 18 17 19 30 50 71 82 87 88 87 85 80 69 51 32 18 10 6 3 1 0 0 0 0 0 0 0 0 0 0 0 0 1 1 0 0 1 2 1 0 0 1
36 29 25 29 40 53 65 76 83 85 83 81 78 71 58 40 24 13 8 6 3 1 0 0 0 0 0 0 0 0 0 0 0 1 1 0 0 1 1 1 0 0 0
49 38 34 41 49 56 63 68 73 75 74 73 71 67 57 44 29 18 12 7 5 2 1 0 0 0 0 0 0 0 0 0 0 1 1 0 0 0 0 0 0 0 0
54 45 43 51 56 58 61 62 61 62 63 62 61 57 49 41 34 25 16 10 6 4 2 2 1 0 0 0 0 0 0 0 0 0 0 0 0 0 0 0 0 0 0
55 50 50 59 63 61 60 57 53 52 52 51 48 43 38 34 31 25 17 12 9 6 5 6 5 3 1 1 0 0 0 0 0 0 0 0 0 0 0 0 0 0 0
60 56 56 64 69 66 60 54 48 44 41 38 35 31 29 27 24 21 16 12 10 8 9 10 9 7 5 3 1 0 0 0 0 0 0 0 0 0 0 0 0 0 0
67 66 66 68 70 68 61 52 45 39 34 29 25 23 21 18 16 16 13 8 6 6 8 10 10 10 9 5 2 1 1 0 0 0 0 0 0 1 0 0 0 0 0
68 71 73 71 70 68 61 50 42 36 29 22 17 15 12 9 8 9 9 5 2 2 4 6 8 9 9 6 4 3 2 1 0 0 0 0 0 1 1 0 0 0 1
62 66 69 71 71 70 63 50 39 30 23 15 11 8 6 4 3 3 3 2 1 0 1 2 4 6 7 6 5 5 4 2 0 0 0 0 1 2 2 2 1 2 3
53 55 59 63 67 68 62 50 38 28 20 14 9 7 5 3 1 1 0 0 0 0 1 1 2 3 3 5 6 6 5 3 1 0 0 0 2 3 3 4 4 4 4
45 44 46 51 56 58 55 46 39 31 22 16 11 9 6 2 1 1 0 0 1 1 1 2 1 1 2 3 4 5 5 3 1 0 0 0 1 2 3 4 4 4 4
39 37 36 41 46 47 44 41 37 30 22 15 12 9 4 1 0 1 1 1 2 2 2 2 1 2 2 1 1 2 2 2 1 0 0 0 1 1 3 4 4 3 3
32 31 31 33 35 35 34 35 32 25 16 10 8 6 2 0 0 0 1 2 2 2 3 3 3 3 2 1 0 0 0 0 0 0 0 1 1 2 3 4 4 3 3
22 23 24 24 23 23 25 25 23 18 11 7 6 3 1 0 0 0 1 2 2 2 2 4 4 4 3 2 0 0 0 0 0 0 0 1 2 5 5 5 6 5 4
13 14 15 15 14 14 15 16 15 12 8 6 4 2 1 1 1 1 1 2 2 1 2 3 4 4 4 3 1 0 0 0 0 0 0 1 3 6 6 6 7 7 5
9 9 9 8 7 7 8 8 7 7 6 4 2 1 2 2 2 1 1 1 2 1 2 3 3 3 4 3 1 0 0 0 0 0 0 1 2 4 5 5 6 7 7
9 6 5 4 4 5 6 5 3 3 3 2 1 1 2 2 1 1 0 1 2 1 1 2 2 3 3 2 1 0 0 0 0 0 0 0 1 1 2 4 5 6 6
6 4 2 2 3 5 6 5 3 1 1 1 1 1 2 1 1 1 1 1 1 1 0 1 1 1 2 2 1 0 0 0 0 0 0 0 0 0 1 2 3 3 3
2 2 2 2 3 4 4 4 4 2 2 2 3 3 2 1 1 1 1 1 0 0 0 0 0 0 1 1 0 0 0 0 0 0 0 0 0 0 0 1 1 1 1
0 1 1 1 1 2 2 3 3 3 2 2 3 2 2 1 1 1 1 1 0 0 0 0 0 0 0 0 1 1 0 0 0 0 0 0 0 0 0 0 0 0 0
0 0 0 0 0 1 1 1 1 1 1 1 1 1 1 2 3 2 1 1 0 0 0 0 0 0 0 0 1 2 1 0 0 0 0 0 0 0 0 0 0 0 0
0 0 0 0 0 0 0 0 0 0 0 0 0 0 0 1 2 2 1 1 0 0 0 0 0 0 1 1 2 2 1 0 0 0 0 0 0 0 0 0 0 0 0
0 0 0 0 0 0 0 0 0 0 0 0 0 0 0 0 1 1 1 0 0 0 0 0 0 0 1 2 2 1 1 0 0 0 0 0 0 0 0 0 0 0 0
0 0 0 0 0 0 0 0 0 0 0 0 0 0 0 0 0 0 0 0 0 0 0 0 0 0 1 1 1 1 1 0 0 0 0 0 0 0 0 0 0 0 0
0 0 0 0 0 0 0 0 0 0 0 0 0 0 0 0 0 0 0 0 0 0 0 0 0 0 0 0 0 1 1 0 0 0 0 0 0 0 0 0 0 0 0

GEFSSE_con_prob3kmehi_126.txt.gz
EHI
9 10 7 4 8 21 40 56 58 52 43 32 20 15 12 8 6 4 1 1 1 1 1 2 2 2 1 0 0 0 0 0 0 0 0 0 0 0 0 0 0 0 0
14 12 8 5 10 27 49 65 68 63 54 42 29 20 14 9 6 4 3 1 1 0 0 1 1 1 0 0 0 0 0 0 0 0 0 0 0 0 0 0 0 0 0
20 14 8 8 18 37 60 75 80 76 69 58 44 29 18 11 7 7 6 4 1 0 0 0 0 0 0 0 0 0 0 0 0 0 0 0 0 0 0 0 0 0 0
20 15 11 14 26 43 63 79 84 81 75 67 54 38 22 12 9 10 10 7 3 1 0 0 0 0 0 0 1 1 1 0 0 0 0 0 0 0 0 0 0 0 0
16 17 18 22 30 43 60 74 80 79 75 68 58 41 25 15 12 13 13 9 5 1 0 1 1 1 1 0 1 1 1 0 0 0 0 0 0 0 0 0 0 0 0
16 19 23 28 33 42 55 66 72 74 72 66 56 40 26 18 15 15 15 12 8 4 2 1 2 2 1 0 0 0 0 0 0 0 0 0 0 0 0 0 0 0 0
20 21 24 27 33 42 49 55 62 67 68 63 52 38 27 21 18 17 16 13 10 8 5 3 2 2 1 0 0 0 0 0 0 0 0 0 0 0 0 0 0 0 0
24 26 28 26 28 36 42 45 52 60 62 58 48 36 28 23 19 17 15 13 11 10 8 4 1 1 0 0 0 0 0 0 0 0 0 0 0 0 0 0 0 0 0
27 33 34 27 23 29 34 38 44 52 54 52 44 34 27 22 16 12 11 11 11 11 8 4 1 1 0 0 0 0 0 0 0 0 0 1 2 1 0 0 0 0 0
30 35 37 30 23 23 27 32 38 43 45 44 39 29 21 15 9 5 6 9 10 8 6 4 3 2 1 1 0 0 0 0 0 0 1 2 3 1 0 0 0 0 0
36 35 35 31 25 22 24 29 31 33 35 34 28 20 11 6 3 3 6 9 8 5 4 3 3 3 2 1 0 0 0 0 1 1 2 4 3 1 0 0 0 0 0
41 37 33 31 29 27 31 33 30 28 28 25 19 12 6 2 1 5 10 9 5 4 3 3 3 2 2 2 2 1 1 1 1 1 3 4 4 2 1 0 0 0 0
40 37 34 34 32 33 38 40 37 33 29 24 18 14 9 7 4 5 8 7 3 2 1 2 2 2 2 3 3 2 1 1 1 1 1 2 2 2 2 1 1 1 1
31 32 35 36 35 36 41 46 45 42 36 30 25 20 15 10 6 5 6 5 3 2 2 2 2 2 3 3 3 2 1 0 0 0 0 0 0 1 2 2 2 3 3
24 27 32 35 36 39 44 46 44 43 39 34 30 23 16 11 7 6 7 6 3 3 4 3 3 4 4 4 3 2 1 0 0 0 0 1 1 0 1 2 3 4 4
19 22 27 32 36 39 40 38 36 34 32 29 28 22 15 11 9 8 7 5 4 4 4 2 2 4 5 4 3 3 1 0 0 0 0 1 1 0 0 1 2 3 3
12 15 21 26 30 32 31 28 25 23 23 24 24 21 15 12 12 12 9 6 7 7 4 2 2 3 4 3 3 3 2 1 0 0 0 1 1 0 0 0 1 1 1
7 10 15 20 23 24 25 23 19 18 20 23 23 20 17 15 17 17 12 10 11 10 7 5 4 5 4 3 2 2 2 2 1 0 0 0 0 0 0 0 1 0 0
7 8 12 16 19 20 21 20 17 16 18 21 21 20 19 18 18 18 16 15 13 12 9 7 7 7 4 2 1 1 1 3 3 1 1 1 1 0 0 0 1 0 0
11 11 13 16 18 18 17 16 15 15 15 17 19 20 19 16 16 17 17 16 14 13 11 8 7 6 4 2 1 1 1 3 4 3 3 2 1 0 0 1 1 1 0
15 14 16 19 19 16 14 14 13 13 15 15 18 20 18 14 15 16 15 15 14 15 13 10 7 5 4 4 3 3 2 3 4 4 3 2 0 0 0 1 2 1 0
16 16 17 19 18 15 12 11 12 13 14 14 16 17 16 13 16 17 17 17 16 16 15 13 9 6 5 6 6 6 4 3 3 3 2 1 0 0 1 2 2 1 1
15 15 15 15 14 13 12 10 11 11 12 12 13 13 11 11 13 15 17 19 18 17 16 15 11 8 8 9 9 9 7 6 6 3 1 0 0 1 2 2 2 1 0
13 12 11 10 10 11 12 11 10 10 9 9 10 9 8 7 7 9 13 16 16 15 15 14 11 9 9 10 10 9 8 8 7 4 2 1 1 2 3 3 2 1 1
9 8 7 6 7 10 10 9 9 8 7 7 9 7 6 5 3 4 8 11 10 10 11 11 9 8 8 9 9 8 7 6 6 4 3 2 2 2 3 4 4 3 2
6 6 5 5 6 9 8 6 6 6 6 7 7 7 6 4 3 3 6 8 7 6 7 7 7 6 7 8 8 7 6 5 5 4 3 2 2 2 2 4 4 3 2

GEFSSE_con_prob3kmehi_132.txt.gz
EHI
46 46 46 33 12 2 0 0 0 0 0 0 0 0 0 1 3 6 5 2 0 0 0 0 0 0 0 0 0 0 0 1 4 6 8 9 8 6 3 2 1 0 0
48 49 49 39 20 6 1 1 1 0 0 0 0 0 0 0 1 3 3 1 0 0 0 0 0 0 0 0 0 0 0 0 1 3 3 4 4 3 3 3 2 1 0
44 44 45 42 31 16 6 4 3 2 1 1 1 0 0 0 0 1 1 1 0 0 0 0 0 0 0 0 0 0 0 0 0 0 0 0 0 1 2 3 2 1 0
35 39 43 45 40 28 15 8 7 5 4 3 2 1 1 1 0 1 2 1 0 0 0 0 0 0 0 0 0 0 0 0 1 2 2 2 2 2 2 3 2 1 0
35 43 51 52 46 35 22 13 10 8 6 5 5 3 2 2 2 3 3 2 1 1 0 0 0 0 0 0 0 0 0 0 2 5 4 4 6 6 3 2 2 1 0
45 50 57 58 51 39 28 20 14 11 9 9 8 5 4 4 4 4 4 2 1 0 0 0 0 0 0 0 0 0 0 2 5 7 6 8 10 8 4 1 1 0 0
52 51 55 59 56 45 36 30 25 21 20 19 14 8 7 8 6 4 3 2 1 0 0 0 0 0 0 0 0 0 1 5 9 9 9 13 14 12 7 2 0 0 0
52 48 48 53 53 48 43 41 40 39 38 34 26 17 13 12 8 4 2 1 0 0 0 0 0 0 0 0 0 0 2 7 9 8 9 13 18 19 12 4 1 1 0
47 42 38 39 41 41 42 45 49 50 48 42 32 22 16 10 6 3 2 2 1 0 0 0 0 0 0 0 0 0 2 5 6 5 6 11 20 22 15 7 4 2 1
46 40 34 32 32 31 34 41 46 47 45 40 29 19 12 6 2 2 4 6 4 1 0 0 0 0 0 0 0 0 1 3 2 2 5 14 23 23 15 9 5 2 1
51 42 33 30 27 24 27 35 38 37 38 34 25 16 10 5 2 4 11 16 10 3 1 1 0 0 0 0 1 1 1 1 1 3 10 23 31 25 15 8 4 1 1
51 42 33 28 25 25 29 34 32 32 34 29 22 18 12 7 7 13 25 28 18 7 3 2 1 1 1 2 3 4 2 0 2 6 18 36 41 29 15 8 5 3 2
46 41 35 31 31 34 38 36 31 32 35 31 26 24 17 12 16 24 32 33 21 9 5 4 4 3 2 3 5 5 2 0 2 8 23 41 46 32 15 8 6 5 3
45 43 39 39 43 48 46 39 32 33 37 38 36 32 23 17 20 27 32 31 20 9 7 7 5 4 4 4 4 4 3 2 4 10 22 36 39 30 18 9 6 6 5
48 46 43 44 52 58 55 45 35 34 36 38 38 32 25 21 22 26 29 27 19 11 11 10 6 5 5 5 4 5 6 6 8 11 17 25 29 27 20 13 9 8 8
51 49 46 48 56 62 60 49 38 35 35 33 32 28 24 25 27 29 28 25 19 16 18 15 10 9 8 5 4 6 9 10 12 13 14 17 20 21 21 17 13 11 11
53 50 47 46 50 57 58 49 39 34 34 34 32 30 28 29 32 33 31 26 22 23 26 22 16 13 8 5 4 5 8 12 16 16 14 13 12 14 17 17 14 13 12
53 52 47 42 44 50 53 49 41 35 35 37 35 33 32 32 33 33 32 29 26 26 27 23 17 12 8 6 6 5 9 14 17 15 12 9 8 9 12 12 11 10 10
52 51 47 45 46 46 46 45 41 37 35 35 34 31 29 30 32 31 31 30 26 25 23 19 15 13 12 11 7 5 9 15 16 13 11 8 8 9 8 8 8 7 6
51 49 48 48 48 45 43 41 38 35 33 31 30 27 25 27 29 28 28 28 27 25 21 17 15 16 18 15 7 3 7 13 15 14 12 9 8 8 7 7 7 7 6
51 50 47 46 44 43 41 38 33 32 30 27 27 25 23 24 24 24 25 26 27 25 21 18 16 16 18 17 10 5 6 9 11 13 13 11 8 7 6 7 10 10 8
53 50 45 43 41 39 37 33 28 27 25 24 25 24 22 21 20 21 23 24 24 22 19 17 15 13 14 14 11 8 7 7 6 8 11 10 7 7 6 7 10 11 10
50 48 44 42 41 37 33 30 27 26 23 22 22 22 21 18 17 17 19 20 21 18 15 14 12 11 10 9 9 9 8 6 5 5 7 7 7 7 6 6 8 9 9
45 44 43 42 41 38 34 33 30 26 23 21 20 19 18 17 15 15 15 16 17 15 12 11 10 9 8 7 7 8 8 6 6 6 5 4 5 6 6 6 7 7 7
41 41 40 39 38 35 33 32 30 27 24 21 17 15 14 15 14 12 13 14 14 13 11 10 9 9 8 7 6 6 5 5 5 5 3 2 2 3 5 6 6 5 5
38 37 36 36 35 31 29 28 28 27 25 20 15 11 11 12 12 11 12 14 13 13 12 10 9 9 9 7 5 5 4 4 5 3 1 0 0 1 3 5 6 5 4

GEFSSE_con_prob3kmehi_138.txt.gz
EHI
7 9 15 18 15 11 10 10 9 8 11 16 24 34 42 45 43 38 30 21 12 4 1 0 0 0 0 1 1 2 7 10 9 5 3 2 2 4 8 9 4 1 0
19 18 22 26 21 14 11 10 9 8 9 14 20 28 35 36 32 27 21 14 9 3 0 0 0 0 0 1 1 2 4 6 7 4 2 1 2 3 7 8 4 1 0
43 34 32 34 29 19 12 10 10 8 7 10 15 20 22 21 17 13 10 8 4 2 0 0 0 0 0 0 0 1 1 3 4 3 1 1 1 4 8 8 4 1 0
55 44 38 41 37 25 15 10 8 8 7 7 10 12 12 11 9 7 5 4 2 1 0 0 0 0 0 0 0 0 1 2 3 2 1 0 1 5 9 8 3 0 0
53 47 45 50 47 34 20 10 7 6 5 5 7 8 8 8 7 5 2 1 1 1 0 0 0 0 0 0 0 1 2 3 3 2 1 0 1 5 9 6 2 0 0
54 49 50 57 56 43 28 16 9 5 4 4 5 7 8 7 5 3 1 1 1 1 0 0 0 0 0 0 0 1 3 4 3 2 1 0 1 4 7 6 2 0 0
59 55 55 63 63 50 36 25 15 9 7 7 7 8 9 7 4 2 1 1 2 1 1 0 0 0 0 0 1 3 4 4 2 1 1 1 1 4 7 6 3 1 0
62 59 57 60 61 54 43 35 27 19 15 13 11 10 9 6 4 2 1 2 3 3 2 1 0 0 0 1 2 4 5 3 1 1 1 1 3 6 9 8 4 2 1
58 56 51 48 48 46 42 39 35 29 23 19 15 12 9 5 2 2 2 3 3 3 3 2 1 0 0 2 4 4 3 2 1 0 0 0 2 7 10 9 5 2 1
48 45 42 37 34 34 33 32 31 29 25 19 14 11 9 6 3 2 3 4 4 4 4 4 3 1 1 2 4 3 1 1 0 0 0 1 4 8 11 10 7 4 2
37 35 34 33 30 29 28 25 23 23 20 15 10 9 9 7 5 3 3 4 4 3 4 6 6 3 2 2 2 1 0 0 0 0 0 3 8 12 14 14 11 7 4
32 29 27 29 30 29 27 24 20 18 15 11 8 8 7 6 4 4 3 3 4 4 5 7 7 4 2 1 1 0 0 0 0 0 1 6 13 16 18 17 13 8 6
29 25 22 24 26 26 24 22 18 15 12 10 8 7 6 4 3 3 3 4 5 6 6 7 6 4 2 0 0 0 0 0 0 0 2 8 13 18 21 19 13 8 5
27 22 18 18 20 20 18 15 13 12 10 9 8 7 6 5 3 3 3 4 5 5 5 5 5 3 1 0 0 0 0 0 0 0 3 7 11 18 23 20 15 9 5
27 22 16 14 14 13 10 9 9 8 8 6 5 6 6 5 3 2 3 3 4 3 3 3 2 1 0 0 0 0 0 0 0 0 2 5 8 15 21 20 16 11 7
29 24 18 15 14 10 8 7 6 6 5 3 3 3 4 3 2 2 2 2 2 2 2 2 1 1 0 0 0 0 0 0 0 0 1 2 5 10 15 15 13 9 6
30 28 24 22 18 14 11 9 7 6 4 2 2 3 2 2 1 2 2 2 1 1 1 1 2 1 0 0 0 0 0 0 0 0 0 0 1 4 8 10 9 6 5
31 29 27 26 22 17 14 11 9 7 4 3 3 3 2 2 2 3 4 3 2 1 0 1 1 1 0 0 0 0 0 0 0 0 0 0 0 1 3 5 6 5 5
27 27 25 24 21 17 15 12 9 7 5 3 3 3 2 3 3 4 6 6 5 2 0 0 0 0 0 0 0 0 0 0 0 0 1 0 0 0 0 2 3 3 4
24 25 24 22 19 16 14 12 9 6 4 4 4 2 2 3 4 5 6 6 5 2 0 0 0 0 0 0 0 0 0 0 0 0 0 0 0 0 0 0 1 1 1
23 23 23 21 18 14 12 11 9 6 4 4 4 3 3 3 3 4 5 4 3 1 0 0 0 0 0 0 0 0 0 0 0 0 0 0 0 1 0 0 0 0 0
21 19 18 18 16 12 12 11 9 7 5 4 4 3 3 3 3 4 4 4 3 2 1 1 0 0 0 0 0 0 0 0 0 0 0 0 0 0 0 0 0 0 0
16 15 14 15 13 11 11 12 12 10 7 5 3 2 1 1 2 3 3 3 3 3 3 2 1 0 0 0 0 0 0 0 0 0 0 0 0 0 0 0 0 0 0
15 14 14 13 12 9 10 12 12 8 5 3 2 1 0 0 1 1 1 3 3 3 3 2 1 0 0 0 0 0 0 0 0 0 0 0 0 0 0 0 0 0 0
17 16 16 14 11 9 9 10 8 4 2 2 1 0 0 0 0 0 1 2 3 3 2 2 1 0 0 0 0 0 0 0 0 0 0 0 0 0 0 0 0 0 0
19 19 18 16 12 9 9 8 5 2 2 3 1 0 0 0 0 0 1 2 3 2 1 1 0 0 0 0 0 0 0 0 0 0 0 0 0 0 0 0 0 0 0

GEFSSE_con_prob3kmehi_144.txt.gz
EHI
1 1 1 5 14 27 36 43 51 62 73 77 74 65 53 42 28 13 3 0 0 0 0 0 1 2 2 3 3 4 4 3 2 1 0 0 0 0 0 0 0 0 0
7 5 4 7 16 29 38 43 49 58 66 72 70 62 51 39 27 15 6 2 0 0 0 1 2 2 2 2 3 4 4 3 1 0 0 0 0 0 0 0 0 0 0
19 12 7 10 20 32 38 43 46 50 57 62 62 55 45 36 26 16 9 4 1 1 0 1 2 2 1 1 2 3 3 2 1 0 0 0 0 0 0 0 0 0 0
26 17 12 17 27 34 38 42 44 44 48 54 54 47 38 31 23 15 9 5 3 1 0 0 1 1 1 2 2 1 1 1 0 0 0 0 0 1 1 0 0 0 0
24 18 18 28 36 38 38 40 41 40 42 46 47 41 34 27 20 12 6 4 3 2 0 0 1 1 2 3 2 1 1 0 0 0 0 0 0 1 1 1 0 0 0
21 18 22 35 43 42 40 39 37 37 39 39 38 34 30 26 20 12 5 3 2 2 0 0 1 1 3 4 3 3 2 1 1 2 1 0 0 1 1 1 1 1 0
25 22 26 38 46 45 44 40 36 36 38 35 30 25 23 22 19 14 9 5 3 1 1 0 0 2 4 6 5 4 3 2 2 2 1 0 0 1 1 1 2 1 0
35 30 31 39 45 46 46 42 38 35 35 33 27 20 16 16 18 16 13 9 4 2 2 2 1 1 3 5 5 3 3 3 1 1 1 0 0 1 2 2 2 1 0
38 37 37 40 42 43 42 40 37 34 31 29 24 18 13 13 14 15 13 10 6 2 2 3 2 1 1 2 2 2 3 2 1 0 0 0 0 1 2 2 2 1 0
34 36 38 39 38 36 33 31 30 28 24 22 20 14 10 9 9 11 11 10 6 3 1 1 1 0 0 0 0 1 2 2 1 0 0 0 0 0 1 2 1 0 0
32 32 32 34 34 31 26 23 22 20 16 14 13 10 7 6 5 6 8 7 5 3 1 1 1 0 0 0 0 1 1 1 0 0 0 0 0 0 0 1 1 0 0
33 30 27 28 28 25 21 18 16 13 10 9 8 7 6 4 4 5 4 4 3 2 3 4 3 2 1 1 1 1 0 0 0 0 0 1 2 2 2 2 2 1 0
32 30 29 26 24 21 17 16 15 12 10 9 8 7 6 5 4 4 2 1 1 2 4 6 6 5 3 1 0 0 0 0 0 0 1 3 6 6 5 5 5 3 1
28 28 28 25 22 19 17 16 16 14 12 11 9 8 8 6 4 2 0 0 1 3 4 5 7 6 3 1 0 0 0 0 0 0 1 4 7 7 6 5 5 4 2
25 25 24 22 20 19 19 18 16 14 11 9 8 8 8 7 3 1 0 0 1 2 3 4 6 6 4 1 0 0 0 0 0 0 0 2 3 4 3 3 3 3 3
25 23 21 19 17 17 17 16 14 10 8 7 7 7 8 6 2 0 0 0 0 1 2 3 4 5 4 2 0 0 0 0 0 0 0 0 1 1 1 1 0 1 3
21 19 17 14 13 12 11 10 10 7 5 5 5 5 5 3 1 0 0 0 0 0 1 2 3 3 3 1 0 0 0 0 0 0 0 0 0 0 0 0 0 1 2
13 12 11 10 9 8 6 6 6 4 3 3 2 2 1 0 0 0 0 0 0 0 0 1 1 1 1 0 0 0 0 0 0 0 0 0 0 0 0 0 0 0 1
7 7 9 9 7 5 4 3 3 2 1 1 0 0 0 0 0 0 0 0 0 0 0 0 0 0 0 0 0 0 0 0 0 0 0 0 0 0 0 0 0 0 0
5 8 10 9 6 4 3 2 1 1 0 0 0 0 0 0 0 0 0 0 0 0 1 0 0 0 0 0 0 0 0 0 0 0 0 0 0 0 0 0 0 0 0
7 8 9 7 5 5 5 3 2 1 0 0 0 0 0 0 0 0 0 0 0 0 0 0 0 0 0 0 0 0 0 0 0 0 0 0 0 0 0 0 0 0 0
9 8 7 6 6 6 6 4 2 2 1 0 0 0 0 0 0 0 0 0 0 0 0 0 0 0 0 0 0 0 0 0 0 0 0 0 0 0 0 0 0 0 0
9 9 8 6 5 5 5 3 3 2 1 0 0 0 0 0 0 0 0 0 0 0 0 0 0 0 0 0 0 0 0 0 0 0 0 0 0 0 0 0 0 0 0
10 9 8 6 5 4 3 2 2 1 0 0 0 0 0 0 0 0 0 0 0 0 0 0 0 0 0 0 0 0 0 0 0 0 0 0 0 0 0 0 0 0 0
10 9 7 5 4 3 2 1 1 0 0 0 0 0 0 0 0 0 0 0 0 0 0 0 0 0 0 0 0 0 0 0 0 0 0 0 0 0 0 0 0 0 0
10 8 6 6 4 2 1 0 0 0 0 0 0 0 0 0 0 0 0 0 0 0 0 0 0 0 0 0 0 0 0 0 0 0 0 0 0 0 0 0 0 0 0

GEFSSE_con_prob3kmehi_150.txt.gz
EHI
6 7 7 5 7 17 33 49 60 64 60 49 38 28 17 9 6 4 3 3 1 0 0 0 1 1 0 0 0 0 0 0 0 0 0 0 0 0 0 0 0 1 1
12 11 8 5 8 20 37 54 65 69 64 56 46 36 22 11 6 4 3 3 2 1 1 1 2 1 0 0 0 0 0 0 0 0 0 0 0 0 0 0 0 0 1
17 14 9 6 10 21 38 54 65 70 70 63 53 43 28 13 6 4 3 4 3 2 2 2 2 1 0 0 0 0 0 0 0 0 0 0 0 0 0 0 0 0 0
16 13 9 9 12 21 35 49 58 64 68 62 52 41 30 17 8 4 3 3 2 1 1 1 1 0 0 0 0 0 0 0 0 0 0 0 0 0 0 0 0 0 0
10 10 11 11 13 21 33 44 52 57 59 57 49 39 30 21 12 5 2 1 1 0 0 0 0 0 0 0 0 0 0 0 0 0 0 0 0 0 0 0 0 0 0
7 8 11 11 12 20 30 41 49 54 55 54 49 40 30 22 13 6 3 1 0 0 0 0 0 0 0 0 0 0 0 0 0 0 0 0 0 0 0 0 0 0 0
5 7 11 11 11 18 27 38 46 51 53 53 47 38 29 20 12 6 3 1 0 0 0 1 1 1 0 0 1 1 0 0 1 1 1 1 1 1 0 0 0 0 0
7 9 13 12 12 17 25 33 40 44 47 46 40 32 25 17 10 5 4 3 1 0 0 1 2 1 0 0 1 1 1 1 1 2 1 1 3 3 1 0 0 0 0
12 14 15 13 13 15 20 27 32 36 37 34 29 24 19 14 9 6 5 4 3 1 0 1 1 0 0 0 1 1 1 1 1 1 1 2 3 3 1 0 0 0 0
19 20 19 18 14 11 13 19 23 26 27 23 20 17 14 9 6 5 6 8 6 2 0 0 1 1 0 0 0 0 0 0 0 0 0 2 3 2 0 0 0 0 0
27 26 25 24 19 11 9 13 15 17 16 15 13 11 8 5 4 5 10 12 9 3 1 1 2 1 0 0 0 0 0 0 0 0 2 5 5 2 0 0 0 0 0
35 31 29 29 25 18 15 16 14 13 12 10 9 8 5 4 4 5 11 12 8 4 2 2 2 1 0 1 1 0 0 0 0 1 5 10 7 2 1 1 1 1 0
37 34 32 32 30 26 25 23 20 17 14 11 10 8 6 5 4 5 7 7 5 4 3 3 2 1 0 1 2 1 0 0 1 2 8 11 7 3 2 2 2 1 1
35 33 34 34 32 30 29 27 24 22 20 19 16 12 8 6 6 6 7 6 5 4 4 3 3 1 0 1 2 1 0 1 1 3 7 8 5 2 2 2 2 2 1
33 33 35 36 34 31 29 27 25 25 26 25 21 16 11 10 10 11 13 12 8 6 5 4 4 3 3 3 2 2 2 2 2 2 4 4 2 1 0 1 1 1 2
34 35 38 39 37 33 28 25 24 25 28 27 23 18 14 12 12 12 14 14 12 9 8 7 6 7 8 7 5 5 5 4 2 2 2 1 0 0 0 0 0 1 1
35 37 39 38 35 33 29 27 23 23 26 26 23 19 15 12 12 13 13 12 12 12 12 10 9 10 11 11 9 9 9 6 3 2 1 1 0 0 0 0 0 1 2
36 39 40 36 33 34 35 32 25 21 22 21 19 17 15 13 12 14 13 10 10 10 10 10 11 13 13 12 11 11 10 7 3 1 1 2 2 2 1 1 1 2 3
36 39 39 37 35 37 39 34 25 19 15 13 12 11 11 12 12 11 9 7 6 6 6 7 11 14 13 10 9 9 10 8 5 2 1 2 3 4 3 2 2 3 3
34 36 37 38 38 39 37 31 24 16 10 8 8 7 7 8 9 7 5 4 4 4 4 6 8 10 9 8 6 6 8 7 6 5 3 2 3 3 2 2 3 4 3
32 34 35 37 38 37 34 29 21 14 9 9 9 8 5 4 4 5 4 2 2 4 5 5 6 6 5 5 6 6 6 5 5 5 4 3 2 2 1 1 3 5 5
31 32 34 36 36 33 30 26 20 14 12 12 13 10 5 2 2 2 2 1 2 4 5 5 5 5 4 4 6 6 4 3 3 3 3 3 3 2 1 1 2 4 5
27 29 33 35 32 28 25 21 18 14 13 14 14 11 6 4 2 1 1 1 1 2 4 5 5 4 3 3 6 6 4 3 3 2 2 3 4 3 2 0 0 1 2
22 25 30 32 28 23 21 18 15 13 11 11 11 10 8 6 4 2 1 1 2 3 4 4 3 2 1 2 4 6 6 5 4 2 2 3 3 3 3 2 1 0 0
19 21 25 26 23 19 18 16 14 11 9 8 8 8 8 7 6 5 3 1 2 3 3 3 2 1 0 0 2 4 5 5 4 1 1 3 3 3 4 4 4 2 1
18 19 21 22 19 17 16 15 14 11 8 7 6 7 7 6 6 6 4 1 1 1 2 2 1 0 0 0 1 2 4 4 2 1 1 2 3 4 4 5 5 3 2

GEFSSE_con_prob3kmehi_156.txt.gz
EHI
35 36 39 32 19 12 8 5 4 4 3 3 3 3 4 7 11 13 13 11 7 4 3 3 3 3 3 3 3 3 3 3 4 5 7 6 5 5 6 6 5 4 3
37 37 39 35 23 14 9 7 5 4 4 4 3 3 4 5 8 10 10 8 5 3 3 3 3 3 3 3 3 3 3 3 3 4 5 4 4 4 5 6 6 4 3
36 35 36 35 27 18 12 9 8 7 6 6 4 3 3 4 6 7 6 4 3 3 3 3 3 3 3 3 3 3 3 3 3 3 3 3 4 4 4 4 5 4 3
29 29 33 34 28 20 15 12 10 9 8 8 5 4 3 4 5 6 4 3 3 4 3 3 3 3 3 3 3 3 3 3 4 4 4 4 6 6 5 3 4 4 4
25 27 34 37 29 21 17 14 12 9 9 8 7 5 4 4 6 6 5 4 4 5 4 4 4 4 3 3 3 3 3 3 5 6 6 7 10 10 6 4 4 4 5
31 30 34 37 31 23 19 15 13 11 10 10 9 7 5 5 6 6 6 6 6 6 5 5 6 6 4 3 3 3 3 4 7 8 7 9 14 14 9 6 5 4 4
40 33 32 35 30 23 19 18 16 16 15 13 13 11 8 7 8 7 6 6 6 5 4 5 7 7 4 3 3 3 3 4 7 8 8 12 18 18 12 8 6 5 4
44 34 30 32 28 22 21 22 23 22 21 19 18 15 11 8 7 6 5 5 6 4 3 4 6 6 4 3 3 3 3 5 6 7 10 16 21 21 16 10 7 5 4
44 34 26 25 24 22 22 25 26 26 25 24 22 18 13 9 6 4 4 4 5 4 3 3 4 4 3 3 3 3 4 5 5 6 9 18 25 24 17 11 7 5 3
47 36 24 21 21 20 21 24 25 26 26 26 23 18 13 8 5 4 5 7 7 4 3 3 3 4 4 4 4 4 4 4 4 5 10 22 32 28 18 11 8 4 2
53 41 28 21 19 19 20 22 23 24 24 22 20 16 12 7 5 6 14 21 17 10 8 7 7 7 6 5 5 6 5 5 4 6 17 31 39 33 21 13 9 5 2
55 46 34 27 23 22 26 27 23 21 21 17 15 16 13 8 7 13 28 36 28 17 14 13 13 11 7 5 7 9 8 6 6 11 25 39 41 33 25 18 13 8 5
55 49 41 37 34 33 37 34 24 21 22 18 19 22 19 14 14 22 35 39 29 18 15 16 17 14 8 6 8 10 8 7 8 15 31 42 40 32 26 22 17 13 9
55 51 48 48 48 48 49 42 29 28 31 30 33 35 28 23 23 29 37 37 27 19 16 17 18 17 12 9 8 8 6 6 9 16 30 41 40 32 27 23 18 14 12
60 57 54 56 60 63 63 55 44 44 46 47 49 48 38 35 35 37 42 40 29 23 22 21 22 23 21 16 12 9 8 8 10 15 25 36 39 35 28 22 16 13 13
69 66 61 63 69 72 71 67 59 56 57 57 57 53 45 43 43 44 46 42 32 26 28 27 27 27 25 20 15 13 13 13 13 17 23 30 35 35 31 26 20 16 15
74 72 66 66 72 75 71 68 63 60 60 59 57 54 48 43 42 43 43 40 34 30 31 31 30 26 20 16 15 14 15 17 17 17 21 26 30 33 34 33 29 23 17
74 74 70 68 72 73 69 65 62 59 60 59 58 56 48 39 35 35 36 38 36 31 29 28 26 22 16 11 11 11 14 19 19 17 19 25 29 32 33 33 30 24 18
74 74 72 70 71 69 66 64 62 59 60 60 59 55 46 34 28 27 31 35 33 28 24 21 21 20 15 10 8 8 12 17 18 17 20 26 30 32 31 27 23 19 17
71 71 70 69 67 65 62 61 61 60 58 57 54 49 40 30 23 20 24 29 27 23 19 16 16 15 13 9 7 6 8 12 16 19 23 25 28 30 27 23 19 15 14
65 65 65 65 63 60 58 57 58 58 54 50 46 41 33 25 19 16 18 22 23 21 18 14 12 11 9 8 6 5 4 7 12 19 22 22 21 22 22 19 18 15 12
54 56 58 59 57 55 55 55 56 55 49 43 40 36 29 21 16 14 15 18 20 21 18 14 11 9 7 6 7 6 4 5 9 14 18 17 15 15 15 14 13 13 12
44 48 52 53 52 50 52 53 53 51 45 38 36 35 29 21 16 15 16 18 20 20 18 15 13 10 6 6 9 8 6 5 5 8 11 12 12 10 9 8 8 9 10
37 41 46 48 46 44 45 46 45 43 40 35 33 33 29 22 18 17 18 19 20 20 18 15 14 12 8 6 8 10 8 6 4 4 5 7 8 7 7 6 5 5 6
33 35 39 43 43 40 39 39 37 36 35 32 29 28 27 24 21 18 18 18 18 18 19 16 14 12 8 6 6 7 8 6 4 3 2 3 3 3 5 6 5 4 4
30 31 35 39 41 39 38 37 34 32 31 30 26 24 24 24 22 17 16 16 14 16 20 18 12 9 7 6 5 5 6 5 4 2 1 1 1 2 4 6 6 5 4

GEFSSE_con_prob3kmehi_162.txt.gz
EHI
12 26 48 58 52 42 32 25 22 20 19 19 20 22 25 28 30 30 30 25 18 12 6 2 1 0 0 1 2 2 1 0 1 2 3 3 2 4 7 9 5 2 2
22 32 50 59 55 48 38 29 23 20 19 18 17 17 19 22 23 24 24 20 16 10 5 2 0 0 0 0 1 2 2 1 2 3 3 3 3 5 7 6 3 1 1
39 43 53 61 61 54 44 34 26 20 17 14 12 11 12 14 16 18 18 15 10 6 3 1 0 0 0 0 2 4 4 4 4 3 2 2 3 5 6 5 3 1 0
48 47 54 65 67 59 49 39 29 21 15 11 9 8 8 10 11 13 13 10 6 3 1 0 0 0 0 1 3 5 5 5 4 2 1 0 2 4 7 6 4 2 1
46 46 54 69 72 64 55 45 34 24 16 11 9 8 8 8 8 8 9 6 3 1 0 0 0 0 0 1 2 4 5 4 3 1 0 0 2 4 7 8 6 4 3
43 44 56 71 73 67 60 50 40 29 20 13 10 9 8 9 8 6 6 4 2 1 0 0 0 0 0 0 1 2 4 3 1 0 0 0 3 6 8 9 8 5 3
42 45 56 69 71 66 60 51 43 35 25 15 10 8 8 9 8 7 5 3 2 1 0 0 0 0 0 0 0 2 3 2 1 0 0 0 4 8 10 9 8 5 2
42 47 55 62 65 63 57 50 44 36 27 18 12 9 9 9 8 7 6 4 4 3 1 0 0 0 0 0 1 2 4 3 1 0 0 0 4 10 12 10 7 4 3
42 46 50 52 56 56 51 46 40 34 26 20 14 10 9 8 7 7 6 5 5 4 2 0 0 0 0 0 1 3 5 4 2 0 0 1 5 10 12 12 9 6 5
41 44 46 45 47 47 44 39 35 30 25 19 13 10 8 5 4 4 4 5 5 3 1 0 1 1 0 0 1 2 3 3 1 0 0 1 4 7 11 13 11 9 7
38 40 41 40 39 39 37 35 31 27 23 19 12 9 6 3 1 2 2 3 4 2 1 1 2 2 1 0 1 2 1 1 0 0 0 2 4 5 8 11 11 10 10
31 29 30 32 32 32 33 32 30 26 21 17 12 8 5 3 2 2 1 2 4 4 4 5 5 3 2 2 2 2 1 0 0 0 1 3 4 5 6 7 10 11 10
26 24 23 24 25 25 26 29 27 24 19 15 11 8 6 4 3 2 1 2 5 6 7 9 7 5 3 3 1 1 0 0 0 0 2 5 7 8 7 7 9 11 11
29 29 26 25 25 23 23 26 26 22 18 14 11 8 6 5 4 2 1 3 6 7 8 9 8 4 2 1 0 0 0 0 0 0 2 8 12 14 13 11 10 12 13
36 35 34 33 31 29 27 28 27 21 15 11 9 7 7 6 5 3 3 4 5 5 6 7 6 3 1 0 0 0 0 0 0 0 2 9 15 18 18 15 12 12 13
41 40 40 38 36 35 34 31 27 21 15 10 9 8 8 8 7 5 5 5 4 3 3 3 2 1 0 0 0 0 0 0 0 0 1 6 14 20 21 17 12 12 12
46 47 45 41 37 37 37 32 27 23 18 13 11 12 12 12 11 9 9 6 3 1 1 0 0 0 0 0 0 0 0 0 0 0 0 2 8 15 19 18 15 13 13
50 51 49 44 40 39 37 33 30 27 24 19 17 17 17 16 14 11 8 5 2 0 0 0 0 0 0 0 0 0 0 0 0 0 0 0 2 7 12 15 16 14 12
51 50 47 44 41 40 37 36 34 33 29 25 22 20 17 15 13 9 5 3 1 1 0 0 0 0 0 0 0 0 0 0 0 0 0 0 0 2 4 8 11 12 11
45 44 42 40 39 39 40 39 38 35 31 27 23 20 16 14 11 6 3 3 3 2 1 0 0 0 0 0 0 0 0 0 0 0 0 0 0 1 1 3 6 8 8
35 36 35 34 33 36 40 40 38 35 30 25 22 20 17 15 10 5 4 5 5 3 2 1 1 0 0 0 0 0 0 0 0 0 0 0 0 1 1 2 2 3 4
31 31 29 28 27 30 35 36 34 31 28 23 20 18 15 13 9 5 4 5 6 5 3 3 1 0 0 0 0 0 0 0 0 0 0 0 0 1 2 2 1 1 1
29 28 26 24 24 26 28 28 27 24 24 21 17 14 12 11 9 5 4 5 6 6 5 4 3 1 0 0 0 0 0 0 0 0 0 0 0 0 1 1 0 0 1
25 25 24 24 25 24 23 23 22 20 19 17 13 9 8 9 8 5 5 5 6 6 5 4 2 1 0 0 0 0 0 0 0 0 0 0 0 0 0 1 1 0 1
23 23 24 24 24 23 22 21 19 17 15 12 8 6 5 6 6 5 5 5 4 4 3 1 1 1 0 0 0 0 0 0 0 0 0 0 0 0 0 1 1 0 0
23 23 23 24 23 23 22 20 18 16 14 10 6 4 4 4 4 4 5 5 4 3 1 0 0 0 0 0 0 0 0 0 0 0 0 0 0 0 0 0 1 0 0

GEFSSE_con_prob3kmehi_168.txt.gz
EHI
8 20 37 43 40 39 42 47 54 61 65 67 68 67 63 58 52 43 32 21 12 9 7 5 4 2 2 2 2 1 1 2 2 1 0 0 0 0 0 0 0 0 0
16 27 42 49 48 46 47 47 49 55 60 62 63 62 59 55 52 45 33 21 13 8 6 5 3 2 1 1 1 0 0 1 1 1 0 0 0 0 0 0 0 0 0
30 36 48 57 58 55 51 48 47 50 53 54 53 52 50 48 47 41 30 19 12 6 4 3 2 1 0 0 0 0 0 0 0 1 0 0 0 0 0 0 0 0 0
39 42 50 60 64 61 54 50 49 48 49 49 46 42 40 39 37 32 24 16 10 6 4 3 2 1 0 0 0 0 0 0 0 0 0 0 0 0 0 0 0 0 0
41 44 52 62 68 67 60 53 50 48 48 46 41 36 33 31 28 24 19 14 9 6 4 4 2 1 0 0 1 0 0 0 0 0 0 0 0 0 0 0 0 0 0
38 42 52 64 71 71 64 54 49 48 47 43 36 30 28 26 23 19 15 11 7 5 4 3 3 1 1 1 1 0 1 1 0 0 0 0 0 0 0 0 1 1 0
38 41 51 64 71 69 62 55 50 48 45 41 34 29 26 23 19 16 12 9 6 5 4 3 3 3 2 2 1 1 2 2 1 0 0 0 0 1 0 0 1 2 1
40 42 49 59 65 64 59 55 51 47 44 40 36 31 26 20 15 12 10 8 6 6 5 4 4 4 3 2 1 1 2 2 1 0 0 0 1 1 1 1 2 2 3
39 42 44 48 53 56 55 52 49 45 43 42 39 33 25 17 12 9 7 6 6 6 6 5 5 5 4 4 2 2 2 1 0 0 0 1 2 3 3 2 2 2 4
36 36 37 39 43 47 48 46 45 44 42 41 38 33 24 16 11 8 6 5 4 4 4 5 5 4 5 5 3 2 1 0 0 0 0 1 2 3 4 2 1 2 3
31 31 33 35 38 42 44 42 42 42 39 36 33 29 22 15 11 8 6 5 4 3 4 4 4 4 3 3 3 1 0 0 0 0 0 0 1 2 2 1 1 1 1
27 28 31 33 36 41 41 38 36 36 35 32 28 25 21 14 9 7 6 4 3 3 4 5 6 5 2 1 1 1 0 0 0 0 0 1 2 1 0 1 2 2 1
24 27 29 31 34 37 37 35 32 30 30 28 25 23 19 13 8 7 6 5 4 3 5 7 8 6 3 1 1 0 0 0 0 0 0 2 3 1 0 1 2 3 3
22 25 29 30 30 30 32 32 30 28 26 24 22 19 16 11 7 6 6 6 4 4 6 7 7 5 2 1 0 0 0 0 0 0 0 1 2 1 0 1 2 3 4
20 22 26 27 26 26 27 28 28 26 24 22 18 14 12 8 4 4 4 4 4 4 5 6 4 3 2 0 0 0 0 0 0 0 0 0 0 0 0 1 2 3 3
17 20 23 23 22 22 24 24 24 23 22 19 14 10 8 5 3 2 1 1 1 2 3 3 2 1 1 0 0 0 0 0 0 0 0 0 0 0 1 1 2 3 3
19 19 20 21 20 19 20 21 21 20 17 13 9 8 7 5 2 0 0 0 0 0 1 1 0 1 1 1 0 0 0 0 0 0 0 0 0 1 1 1 2 3 3
23 20 19 21 20 17 17 20 20 17 13 9 6 6 7 5 1 0 0 0 0 0 0 0 0 1 1 1 0 0 0 0 0 0 0 0 0 0 0 0 1 2 3
24 20 18 20 19 17 17 19 18 14 10 6 4 5 6 6 2 0 0 0 0 0 0 0 0 0 0 0 0 0 0 0 0 0 0 0 0 0 0 0 0 1 2
20 17 16 17 17 16 17 17 16 12 7 4 3 4 5 6 4 1 0 0 0 0 0 0 0 0 0 0 0 0 0 0 0 0 0 0 0 0 0 0 0 0 1
17 16 15 16 16 17 17 16 15 12 6 4 3 4 5 5 4 1 0 0 0 0 0 0 0 0 0 0 0 0 0 0 0 0 0 0 0 0 1 1 0 0 0
17 18 18 17 18 18 16 15 13 9 6 5 4 4 5 5 3 1 0 1 0 0 0 1 0 0 0 0 0 0 0 0 0 0 0 0 0 0 1 1 0 0 0
16 18 19 19 19 18 15 12 10 7 5 5 5 5 5 5 3 1 0 0 0 0 0 0 0 0 0 0 0 0 0 0 0 0 0 0 0 0 1 1 0 0 0
14 16 18 19 20 18 15 13 10 7 6 5 5 4 4 4 3 1 0 0 0 0 0 0 0 1 1 0 0 0 0 0 0 0 0 0 0 0 0 0 0 0 0
11 12 15 17 19 18 17 13 10 8 7 6 6 5 4 2 2 1 0 0 0 0 0 0 1 2 2 1 0 0 0 0 0 0 0 0 0 0 0 0 0 0 0
8 10 14 16 17 18 17 13 10 8 7 6 6 6 4 2 1 1 1 0 0 0 0 1 2 3 3 2 1 0 0 0 0 0 0 0 0 0 0 0 0 0 0

GEFSSE_con_prob3kmehi_174.txt.gz
EHI
20 37 49 40 28 22 22 28 38 50 58 57 51 42 34 27 21 14 8 7 6 4 3 1 1 1 1 1 1 0 0 0 0 0 0 0 0 0 0 0 0 1 3
28 43 51 42 33 28 27 33 43 53 60 61 57 51 46 39 30 19 11 8 7 5 3 2 1 1 1 1 1 0 0 0 0 0 0 0 0 0 0 0 0 1 3
37 46 50 45 41 37 36 42 52 59 63 64 65 64 59 52 43 30 18 11 8 5 3 2 1 2 2 1 1 1 0 0 0 0 0 0 1 2 1 0 0 0 1
38 43 47 48 47 44 44 48 56 62 63 63 66 67 63 57 51 40 26 16 11 7 4 1 0 1 1 1 0 0 0 0 0 0 0 0 1 2 1 0 0 0 0
34 39 46 50 49 48 48 50 57 61 61 60 61 61 60 57 52 43 30 20 14 10 6 2 1 1 0 0 0 0 0 0 0 0 0 0 1 2 1 0 0 0 0
29 34 44 50 49 48 47 50 55 59 59 59 59 58 56 53 49 41 30 20 14 11 7 5 4 2 1 0 0 0 0 0 0 0 0 0 2 3 2 0 0 0 0
29 33 42 48 46 42 41 46 51 55 56 58 58 56 53 49 45 38 28 19 13 10 7 6 6 5 2 1 0 0 0 0 0 0 0 0 3 5 3 1 0 0 0
31 36 43 46 42 38 38 42 46 49 51 54 54 52 48 44 39 33 25 18 13 10 8 6 6 6 5 3 1 0 0 0 0 0 0 2 5 5 3 1 0 0 0
34 37 41 42 40 38 38 40 42 44 46 47 47 44 41 37 31 26 22 17 13 11 9 8 7 7 6 5 2 0 0 0 0 0 0 3 7 5 1 0 0 0 0
38 37 38 38 36 36 37 39 40 41 43 42 39 36 32 28 23 20 17 15 13 11 10 9 8 7 5 3 1 0 0 0 0 0 1 6 9 6 1 0 0 0 0
43 40 37 35 33 31 34 39 40 39 40 36 32 30 26 20 17 16 17 17 14 11 8 8 8 7 4 1 0 0 0 0 0 1 4 10 12 7 2 1 0 0 0
47 44 39 36 32 31 34 38 39 39 38 33 29 28 24 19 16 17 21 21 15 9 7 6 8 7 3 1 0 0 0 0 0 1 7 14 12 6 2 1 0 0 1
49 48 44 39 35 33 35 39 41 42 41 36 32 31 27 25 24 23 24 23 16 10 8 9 8 6 3 2 1 1 0 0 0 1 8 14 9 3 2 1 0 0 1
49 49 46 43 41 38 39 41 42 42 42 41 38 35 32 31 30 28 26 22 18 16 16 16 12 7 5 4 2 1 0 0 0 2 7 10 6 2 2 2 1 1 1
47 46 44 45 45 44 43 41 38 38 38 39 40 39 35 34 33 29 24 21 19 19 21 20 15 10 7 6 3 1 0 0 1 2 5 7 4 1 1 2 2 1 1
41 40 41 44 45 45 42 38 33 31 31 31 35 37 35 35 36 32 24 20 18 18 19 19 17 12 10 8 4 1 1 1 1 2 3 5 3 1 1 1 2 3 3
35 35 36 37 39 40 39 35 31 27 25 25 28 30 30 31 35 33 25 19 18 18 20 20 19 15 12 10 7 4 3 2 2 2 2 3 3 2 2 3 4 4 4
34 34 32 30 31 36 37 35 32 28 24 23 23 24 25 27 30 29 22 19 21 23 23 21 19 16 13 11 9 7 6 5 4 3 1 1 2 2 3 5 5 4 3
34 34 30 26 27 31 34 34 32 29 25 22 22 23 24 25 26 23 18 19 24 27 25 21 19 17 14 12 9 7 6 7 6 3 0 1 2 2 3 5 5 3 2
33 32 30 27 27 30 31 30 29 27 24 22 23 23 23 23 22 19 17 19 23 25 24 21 17 15 15 13 7 5 5 5 5 3 1 1 2 2 2 2 3 2 2
32 31 31 30 30 32 32 30 28 26 23 23 24 22 19 18 18 17 16 18 20 21 21 19 14 11 12 12 8 5 4 3 2 2 1 0 1 1 0 0 2 2 2
28 27 28 29 30 31 31 29 29 27 25 24 23 20 16 14 15 15 17 20 21 20 18 16 13 9 8 9 8 5 4 2 1 1 0 0 0 0 0 0 2 2 2
21 20 21 24 26 27 26 24 24 25 24 22 20 17 14 13 14 16 19 22 23 20 18 17 15 11 9 9 7 4 3 2 1 1 0 0 1 1 1 1 2 3 2
16 16 17 21 24 24 22 19 18 19 20 19 18 16 14 12 12 14 17 20 21 20 19 18 17 14 13 10 5 3 2 2 2 2 1 1 1 2 3 4 4 5 5
11 12 15 19 21 21 19 17 16 17 18 18 17 16 15 13 10 10 13 16 18 19 19 19 17 15 12 8 5 4 3 3 3 2 1 1 1 1 3 5 5 5 4
7 10 14 16 18 19 17 15 16 17 18 18 17 16 15 13 10 8 9 13 16 17 18 17 15 12 9 7 6 5 4 3 2 1 1 0 0 1 3 4 4 4 2

GEFSSE_con_prob3kmehi_180.txt.gz
EHI
48 51 60 60 46 31 20 13 7 3 2 4 4 3 2 3 4 6 10 12 10 6 2 0 0 0 0 0 0 1 2 3 4 6 9 14 19 20 17 11 7 8 10
55 56 61 60 48 34 21 13 8 3 2 3 4 5 5 5 6 7 7 8 7 4 1 0 0 0 0 0 0 0 1 1 2 2 5 8 12 13 12 8 6 7 8
58 58 59 59 51 38 25 17 12 8 6 7 8 8 7 7 7 8 6 5 5 2 0 0 0 0 0 0 0 0 0 0 0 0 1 2 4 5 6 5 5 6 6
53 54 57 60 55 42 29 21 17 14 13 14 14 12 10 10 9 8 6 5 5 3 1 0 0 0 0 0 0 0 0 0 0 0 0 1 4 7 8 6 5 5 5
49 54 62 65 58 45 32 23 18 16 18 21 21 18 17 16 13 10 8 6 6 5 4 2 1 1 1 0 0 0 0 0 0 1 1 4 11 17 15 9 5 4 4
54 59 67 69 61 47 33 23 18 17 20 24 26 26 26 24 20 15 11 8 7 6 6 5 4 3 2 1 0 0 0 0 2 3 3 8 22 30 22 11 6 4 3
60 62 65 68 63 48 34 24 19 19 21 25 29 32 32 31 28 22 14 10 9 9 8 8 8 6 4 2 0 0 0 1 3 4 4 14 32 39 29 16 9 6 5
62 62 60 61 60 49 36 27 21 19 20 24 30 33 33 32 30 25 18 13 12 11 10 10 10 8 5 4 2 1 1 1 3 3 5 18 38 44 34 22 14 10 7
60 60 54 52 52 45 37 31 26 22 21 25 29 31 30 27 25 22 20 18 13 12 12 11 10 8 7 5 3 1 1 1 1 2 6 22 41 46 37 27 19 12 8
55 55 51 47 45 40 35 35 34 29 26 27 28 29 27 22 18 17 19 19 15 12 12 12 11 10 7 4 2 1 0 0 0 1 8 26 44 47 39 31 21 10 6
49 50 47 44 40 33 32 37 40 37 32 29 27 26 23 19 15 14 18 25 24 18 15 13 12 10 8 5 2 1 1 0 1 3 14 34 49 48 40 32 20 9 4
47 46 43 40 38 32 33 40 43 41 39 33 28 27 24 20 16 15 23 35 37 29 21 14 11 10 7 5 5 6 4 1 1 6 22 42 52 47 39 31 20 9 4
44 44 41 40 40 39 41 46 46 45 45 40 34 33 30 24 20 20 30 43 44 36 25 16 12 9 6 4 6 8 6 2 1 7 25 43 49 45 38 30 20 9 4
44 44 44 44 46 49 52 52 48 47 48 47 43 40 35 29 25 25 35 44 43 37 28 20 15 11 8 6 5 7 6 3 2 8 22 37 43 40 36 29 21 11 6
48 49 50 52 55 58 59 57 51 49 49 49 49 47 41 34 29 30 37 44 42 37 32 24 17 15 14 12 8 7 7 6 6 12 21 29 33 32 29 27 24 17 11
53 55 57 59 62 64 63 60 57 54 52 52 53 52 48 40 35 34 38 43 42 36 30 25 20 20 21 17 13 12 12 11 13 18 24 27 26 24 25 29 29 23 16
56 59 61 63 65 66 63 61 59 57 55 56 54 52 48 43 40 38 38 43 43 34 25 23 24 25 24 19 16 16 16 14 16 21 26 26 21 18 21 28 32 26 20
57 61 62 61 64 64 62 61 59 56 54 54 52 49 45 42 42 40 38 41 40 31 22 21 24 25 23 19 16 15 14 13 13 15 18 19 16 14 17 22 27 26 23
58 60 60 59 60 60 59 59 57 52 48 47 46 46 43 41 40 39 39 39 36 29 23 22 23 22 20 18 13 10 9 9 8 8 9 10 11 13 13 14 18 21 20
57 58 59 58 56 55 55 55 53 47 43 41 41 42 41 39 38 38 38 36 32 28 25 25 25 22 18 14 9 5 4 5 6 5 5 5 6 9 9 9 12 13 13
53 53 54 54 52 50 51 52 48 41 38 37 36 37 37 36 35 35 35 33 30 27 26 26 25 22 17 13 8 4 1 2 3 4 5 4 2 3 4 7 10 9 7
47 46 47 48 47 46 47 47 41 36 33 33 33 34 33 32 32 32 32 32 29 27 26 26 24 20 16 13 11 6 2 1 1 3 5 4 1 0 2 5 9 10 9
41 42 43 44 42 40 40 38 35 33 33 34 35 34 31 30 30 31 31 31 29 28 27 26 23 19 14 12 11 9 4 2 1 4 6 4 2 2 2 3 5 8 10
36 39 42 43 39 35 33 32 31 32 33 34 35 34 32 31 30 30 30 29 28 27 26 25 22 18 13 10 10 9 6 3 2 3 4 4 4 4 4 2 2 4 7
33 36 39 39 35 31 29 29 28 28 28 28 30 32 32 31 29 28 27 26 24 21 21 22 20 17 13 11 10 10 7 4 3 2 2 3 3 4 3 2 0 2 5
32 34 35 34 30 27 26 26 26 25 24 24 26 31 32 30 27 26 25 23 20 17 18 18 17 16 14 12 11 10 8 5 3 2 2 2 2 1 1 1 0 2 4

GEFSSE_con_prob3kmehi_186.txt.gz
EHI
16 37 61 69 66 59 52 47 43 37 30 27 28 29 32 35 37 35 31 27 22 19 18 17 14 11 7 8 10 11 8 5 6 7 9 16 22 24 26 26 20 15 16
27 42 63 71 69 61 53 47 42 37 31 26 25 27 29 32 32 31 28 25 21 18 17 16 13 10 7 6 8 9 6 5 6 7 8 13 17 21 25 26 19 15 15
42 51 65 73 73 68 59 50 42 37 30 24 21 22 24 26 27 26 26 23 20 17 14 13 11 9 6 5 5 5 4 3 4 6 6 8 11 17 23 24 21 17 15
49 56 66 74 76 74 65 54 44 36 29 23 19 18 18 21 22 23 23 21 17 14 12 11 11 9 6 4 2 1 2 3 4 5 4 3 7 14 18 19 20 18 14
46 54 65 73 76 75 68 55 44 35 28 23 18 15 14 16 18 18 17 15 13 11 10 11 12 11 7 4 1 0 1 3 4 4 2 1 5 11 12 13 16 17 15
40 47 59 69 74 73 67 56 45 36 29 23 18 14 13 14 16 15 11 10 8 8 8 9 11 12 9 4 1 1 2 3 3 2 1 0 3 8 9 10 14 17 16
37 41 52 65 70 69 65 59 51 42 34 28 23 20 18 17 18 15 11 7 5 5 5 7 9 10 9 5 3 3 3 3 2 1 1 0 3 8 12 13 16 17 18
35 39 48 57 62 64 64 61 56 48 41 36 32 28 25 23 20 16 11 8 5 4 4 4 5 7 7 5 3 3 3 4 3 2 1 1 3 10 17 18 18 18 18
36 39 44 47 52 57 59 58 57 51 44 40 37 32 28 24 19 14 10 8 7 5 3 2 2 4 4 4 3 2 3 5 4 3 2 1 3 10 17 20 20 19 18
37 38 41 43 44 46 48 50 52 48 43 41 39 33 27 22 17 12 9 9 9 7 5 3 2 3 4 3 3 1 2 3 4 3 3 3 4 9 15 21 23 21 19
36 36 37 39 38 37 38 41 42 40 39 39 38 34 29 23 17 12 9 9 10 9 7 6 6 6 6 4 3 2 2 3 3 3 3 5 8 12 18 25 27 26 22
31 31 30 30 31 32 35 36 33 31 32 33 32 31 28 22 17 12 9 8 10 10 10 9 10 10 9 7 4 2 2 4 4 3 2 6 12 16 22 29 32 30 28
28 27 24 23 24 27 31 34 31 28 28 27 26 26 24 21 17 13 10 8 9 12 13 12 12 12 11 8 5 2 2 5 6 3 2 6 12 17 23 31 35 33 31
28 27 25 22 21 22 25 30 31 30 28 25 23 23 22 20 17 13 12 12 13 15 16 14 12 11 9 6 3 1 1 3 5 3 2 5 11 17 22 28 33 34 33
30 29 28 25 23 23 24 27 28 28 26 22 21 22 22 21 18 15 15 16 17 18 17 15 12 10 6 3 0 0 0 1 2 2 2 5 12 17 20 23 27 30 31
32 32 31 29 27 25 25 25 25 23 21 20 19 20 21 20 18 17 16 16 17 18 17 13 11 8 4 1 0 0 0 0 1 2 2 5 11 15 16 18 20 22 24
35 34 31 28 27 26 24 22 22 21 19 18 17 18 18 18 17 15 14 13 15 16 14 10 8 5 2 1 0 0 0 0 0 1 1 4 7 9 11 14 16 18 18
35 34 29 26 25 24 22 20 21 21 19 17 16 16 18 19 17 14 11 11 12 13 12 9 6 3 2 1 1 1 0 0 0 0 0 1 2 4 6 9 13 15 16
32 31 28 25 22 21 20 19 20 20 19 18 16 16 17 19 18 15 12 12 12 12 10 7 4 3 3 2 2 1 0 0 0 0 0 0 0 1 2 4 8 12 15
28 27 25 22 19 17 18 19 19 18 18 16 15 14 14 16 17 16 15 14 13 11 9 6 3 2 2 2 1 0 0 0 0 0 0 0 0 0 1 2 4 8 11
23 21 18 16 15 15 15 17 16 15 14 14 13 13 14 15 16 16 16 15 13 10 8 6 3 1 1 1 1 1 1 0 0 0 0 0 0 0 0 1 2 3 5
19 16 12 11 12 12 11 12 12 11 11 11 12 13 14 15 16 16 14 12 12 10 8 7 4 1 1 2 4 3 2 1 0 0 0 0 0 0 0 0 0 1 1
13 11 10 9 9 9 9 10 10 9 9 9 10 11 13 14 16 16 13 11 11 11 10 8 6 3 2 3 5 5 3 1 0 0 0 0 0 0 0 0 0 0 0
7 8 8 8 7 7 7 8 9 9 9 8 7 9 10 11 12 13 12 10 11 11 10 9 8 6 4 4 5 5 2 0 0 0 0 0 0 0 0 0 0 0 0
5 6 7 7 6 5 5 6 7 7 7 6 6 7 8 8 8 9 9 8 7 9 9 9 9 7 6 4 4 4 3 1 1 1 0 0 0 0 0 0 0 0 0
4 6 6 6 6 4 4 5 6 6 4 4 3 5 6 6 5 6 7 6 4 5 7 9 9 8 7 5 4 4 3 2 2 2 1 0 0 0 0 0 0 0 0

GEFSSE_con_prob3kmehi_192.txt.gz
EHI
7 22 39 43 45 50 55 57 57 56 59 62 66 68 65 57 44 34 30 26 23 19 15 13 12 10 7 4 1 1 1 1 2 2 2 2 1 0 1 3 4 3 1
12 26 42 46 46 49 55 57 56 54 56 60 64 66 63 56 47 38 32 27 24 21 17 14 13 12 9 5 3 1 1 2 2 2 1 1 0 0 1 2 2 2 2
21 32 43 47 48 50 55 57 55 52 52 54 59 61 59 54 49 40 32 27 25 22 17 14 13 13 12 8 5 2 1 1 2 1 0 0 0 0 1 2 1 1 1
27 34 42 48 52 54 56 57 55 52 51 51 52 54 51 48 44 37 30 27 24 20 15 12 11 12 12 9 5 3 2 1 1 1 0 0 0 0 1 1 1 1 1
29 33 41 50 58 60 61 59 55 53 52 51 50 47 43 40 36 32 29 27 23 18 13 10 9 10 10 8 5 3 4 3 3 2 1 0 0 0 0 0 0 1 1
27 30 38 51 61 64 65 62 57 54 53 52 49 43 36 33 30 28 27 25 22 18 14 10 9 10 10 8 5 3 3 4 5 3 1 1 0 0 1 1 1 1 2
25 27 34 46 56 62 64 62 59 55 52 50 46 39 33 29 28 26 24 21 18 16 14 11 11 11 10 8 5 3 2 2 4 4 3 2 1 1 1 2 2 3 5
26 26 28 35 44 52 56 55 53 51 47 44 41 37 33 30 27 25 21 18 14 12 11 11 12 11 9 8 7 4 2 2 3 3 3 2 2 2 1 1 3 6 7
25 25 24 25 30 38 42 43 42 42 40 38 37 35 32 30 27 23 19 16 13 10 9 10 10 8 6 7 7 5 3 3 3 3 2 1 1 1 2 2 4 6 7
22 22 21 21 23 26 29 31 33 34 36 35 34 32 30 28 26 22 17 14 11 8 6 6 6 4 3 4 4 3 3 3 3 3 2 1 0 1 3 4 5 5 6
20 20 19 20 21 22 23 25 26 29 32 33 31 29 27 25 23 21 16 12 9 5 3 2 2 1 2 3 3 3 3 3 3 3 2 1 1 2 5 6 5 5 5
19 18 17 16 18 20 21 22 23 26 28 30 29 27 26 24 22 20 16 12 8 4 2 1 0 1 2 4 5 6 5 4 3 3 2 1 1 3 5 6 5 4 4
17 17 16 15 15 16 17 19 21 22 23 26 26 25 25 24 22 19 16 13 10 7 5 3 1 1 2 5 8 8 6 4 4 3 2 1 1 2 3 4 4 5 4
16 16 15 14 13 13 15 16 17 17 18 20 22 23 23 22 19 18 16 13 11 10 8 6 2 1 2 3 6 7 5 4 4 3 2 1 0 1 1 3 4 6 6
15 14 14 14 13 12 13 14 14 14 14 15 18 20 19 17 14 14 13 11 10 10 10 8 5 3 2 2 3 4 3 2 2 2 2 1 1 0 1 2 4 6 7
14 13 13 13 12 11 10 12 12 12 12 12 13 15 15 13 10 9 9 7 6 8 8 7 5 4 3 2 2 2 1 0 0 0 1 2 2 1 0 1 3 5 5
12 13 13 13 12 10 10 10 12 12 10 9 8 10 12 11 8 7 5 3 4 6 6 4 2 1 1 1 1 1 0 0 0 0 0 1 2 2 1 1 3 4 5
11 12 12 11 10 9 10 10 11 10 8 7 6 7 8 8 7 4 2 1 3 5 5 3 1 0 0 0 0 0 0 0 0 0 0 0 1 1 1 1 2 4 4
11 12 12 10 9 10 10 10 7 5 4 3 3 4 4 4 3 3 2 2 2 4 4 3 1 0 0 0 0 0 0 0 0 0 0 0 0 0 0 1 2 3 3
11 12 13 11 9 9 9 6 3 2 1 1 1 1 1 1 2 3 2 2 3 4 4 4 3 1 0 0 0 0 0 0 0 0 0 0 0 0 0 1 3 4 2
9 10 11 10 8 7 6 3 0 1 1 1 0 0 0 1 2 3 2 3 5 5 3 3 4 3 2 1 1 0 0 0 0 0 0 0 0 0 0 1 4 4 3
6 5 5 5 4 4 3 1 0 1 2 1 0 0 0 1 2 3 3 4 5 5 3 3 4 5 4 2 1 0 0 0 0 0 0 0 0 0 0 0 2 3 3
3 2 1 1 1 2 2 1 0 0 1 1 0 0 0 0 1 2 3 4 4 4 4 4 4 5 5 3 1 0 0 0 0 0 0 0 0 0 0 0 0 1 1
1 1 1 1 1 1 1 0 0 0 0 0 0 0 0 0 0 1 3 3 4 4 4 4 3 4 4 3 1 0 0 0 0 0 0 0 0 0 0 0 0 0 0
0 1 2 1 0 0 0 0 0 0 0 0 0 0 0 0 0 1 3 3 3 3 3 2 2 2 2 2 1 0 0 0 0 0 0 0 0 0 0 0 0 0 0
0 1 2 2 1 0 0 0 0 0 0 0 0 0 0 0 1 2 3 3 3 2 1 1 1 1 1 1 1 0 0 0 0 0 0 0 0 0 0 0 0 0 0

GEFSSE_con_prob3kmehi_198.txt.gz
EHI
20 35 47 44 37 33 32 35 38 41 46 48 44 38 33 30 30 32 33 30 26 22 17 11 7 4 4 3 3 3 1 0 1 1 1 0 0 0 1 1 1 4 7
23 36 47 46 41 36 33 34 38 42 47 50 49 44 39 34 32 32 31 29 26 22 17 11 7 5 4 3 4 4 2 1 0 0 0 0 0 0 0 1 2 5 7
26 35 44 47 45 39 34 34 39 44 48 51 52 50 44 38 34 31 29 25 23 20 15 9 7 5 4 4 5 5 3 1 1 0 0 0 0 1 1 1 2 4 4
23 30 39 46 46 41 37 38 41 45 47 49 51 51 47 39 32 28 26 23 20 18 15 11 7 5 5 4 5 5 4 3 3 1 0 0 2 3 3 1 1 2 2
18 25 34 42 44 41 39 41 44 44 44 45 46 48 46 40 32 28 26 23 19 16 16 14 10 7 6 5 5 5 6 6 4 1 0 0 4 7 5 1 1 2 3
16 22 31 38 41 41 39 41 44 43 42 42 42 44 44 41 35 30 26 22 17 14 14 13 11 8 6 5 5 6 7 6 3 0 0 1 6 12 8 2 1 3 4
19 22 28 34 37 38 37 39 41 42 41 41 41 42 42 40 35 30 26 21 16 12 10 10 9 7 6 6 6 6 6 4 1 0 0 2 8 13 9 4 3 4 4
22 23 26 30 32 33 33 35 38 41 41 41 41 42 41 38 33 28 23 19 16 13 11 9 9 8 6 6 6 5 4 2 1 0 1 3 8 10 9 5 5 4 4
22 23 25 27 27 28 28 29 33 37 40 40 39 38 37 34 30 25 22 19 16 15 13 12 11 8 6 5 4 3 1 1 0 0 1 3 6 8 6 5 4 4 3
22 23 24 25 25 24 23 25 28 32 36 37 35 32 30 28 25 22 20 20 18 16 14 13 11 8 4 3 2 2 1 0 0 1 2 4 7 7 5 4 4 3 2
23 23 23 23 23 21 21 22 24 25 26 27 26 24 21 18 17 15 17 21 20 16 13 11 10 7 3 1 1 2 2 1 1 2 5 9 11 8 5 4 3 2 1
22 22 21 20 20 19 19 20 20 18 17 16 17 19 17 13 11 11 16 21 19 14 11 11 9 7 3 1 0 2 3 3 3 4 8 14 13 7 3 3 3 2 1
19 19 17 18 19 18 17 18 19 18 16 16 20 22 20 17 14 14 18 19 15 11 11 12 11 7 3 1 0 2 3 5 6 5 8 13 11 4 1 2 3 2 1
17 16 15 17 20 21 20 20 22 22 21 24 29 30 27 23 20 19 20 17 14 13 13 13 12 9 7 4 2 2 3 5 5 5 6 9 6 2 0 1 2 2 1
17 16 16 19 24 24 25 25 23 22 23 27 32 32 28 26 23 20 18 15 14 14 14 13 12 12 10 7 5 4 3 3 3 3 4 5 4 2 1 1 1 1 1
19 18 18 21 23 24 25 26 22 19 21 25 28 27 27 26 24 19 15 14 14 13 14 14 13 13 11 9 6 4 3 2 2 2 2 2 4 3 3 3 3 2 1
18 18 19 19 19 20 22 22 20 18 19 21 22 23 23 24 24 21 16 14 14 15 17 16 14 12 12 10 6 4 4 4 3 2 2 2 3 3 3 4 5 3 2
15 17 19 17 17 19 19 19 18 18 17 16 17 19 19 20 21 21 17 14 15 16 17 16 13 11 11 11 7 5 6 6 4 3 3 3 3 3 4 4 4 4 3
14 16 17 16 16 19 20 19 18 17 15 13 12 13 15 15 16 16 13 12 13 15 14 13 12 10 9 9 7 5 6 6 5 4 3 3 4 4 4 4 4 4 4
15 16 16 15 16 20 22 21 18 14 12 11 9 9 10 11 11 10 10 11 12 14 13 12 12 10 8 8 6 4 4 5 5 4 3 3 3 4 3 3 5 5 4
16 15 15 15 17 20 21 19 16 11 9 9 7 6 7 7 6 6 8 11 14 14 13 12 12 10 8 8 7 5 4 4 4 3 3 3 3 3 2 3 4 5 5
14 13 13 15 17 17 17 17 14 10 8 7 6 5 5 4 4 4 5 10 13 15 13 13 14 11 8 8 9 7 6 5 3 2 3 4 2 1 1 1 2 3 4
12 11 12 14 15 13 14 13 11 8 6 5 5 4 4 4 5 5 6 8 11 13 13 14 15 14 10 8 9 8 6 5 3 3 3 3 2 0 0 0 0 1 2
10 10 10 12 12 10 10 9 8 6 3 2 2 2 3 4 6 7 7 8 9 10 11 12 12 14 11 8 7 6 4 4 4 4 3 3 2 1 1 1 1 2 4
6 6 7 9 10 7 6 5 6 5 2 0 1 1 1 4 6 6 7 9 9 9 9 9 10 11 10 8 6 5 2 2 3 4 3 2 1 1 2 3 4 6 8
3 4 5 7 8 6 4 4 5 4 2 1 1 1 1 2 4 5 7 10 10 9 8 8 8 8 8 9 7 5 2 1 2 3 3 2 1 0 2 5 6 7 9

GEFSSE_con_prob3kmehi_204.txt.gz
EHI
36 39 47 48 44 40 35 30 24 19 14 9 6 5 5 7 9 12 16 19 19 16 14 13 9 8 7 5 4 6 11 14 15 13 9 10 16 20 21 21 22 29 37
39 41 47 48 43 39 34 30 26 20 17 14 11 8 6 6 7 10 13 16 16 15 13 10 8 7 5 4 3 4 6 11 14 13 9 8 13 17 19 20 25 31 37
43 43 45 46 42 38 33 30 28 24 21 20 16 11 8 6 6 7 10 11 12 12 10 8 6 5 3 3 3 3 4 8 12 13 10 8 11 18 21 22 26 31 34
44 42 42 43 42 38 34 30 29 28 26 23 20 14 9 7 6 5 6 7 8 8 8 7 5 2 2 2 3 3 4 6 10 12 10 8 13 25 30 26 24 27 29
45 43 42 41 41 40 37 33 31 30 28 26 23 19 14 11 8 4 2 3 4 5 5 5 5 4 3 2 2 2 3 4 7 9 10 10 18 34 38 28 22 23 24
45 42 39 39 39 40 40 36 32 31 30 28 25 23 21 17 11 5 2 1 2 2 3 5 6 6 6 4 2 1 2 3 4 7 9 13 26 42 42 29 21 20 20
40 38 37 38 38 38 40 38 33 31 30 28 25 25 25 22 16 11 6 3 2 2 2 5 7 7 7 6 4 1 1 2 3 5 7 15 31 47 45 33 25 21 18
35 36 36 36 36 38 41 39 33 30 30 29 27 26 26 24 20 16 11 6 4 4 4 6 7 7 6 5 3 2 1 2 3 3 5 16 35 48 45 37 31 24 18
31 34 36 35 35 38 40 38 33 30 31 32 31 28 25 22 19 16 13 10 7 6 5 6 7 8 7 4 2 2 2 3 4 3 4 17 37 46 41 35 32 25 19
26 30 33 34 33 34 36 35 32 32 34 36 33 29 24 18 16 16 16 15 14 10 7 6 7 9 9 5 3 3 3 4 4 3 5 19 37 43 37 31 27 24 21
23 26 29 31 29 28 30 30 30 31 35 36 33 30 25 18 16 17 19 23 23 17 11 9 9 9 8 5 4 4 4 4 3 3 8 23 37 39 34 28 24 22 20
23 25 28 27 25 25 27 28 27 29 33 34 32 30 26 22 19 17 22 30 29 23 17 15 14 11 8 5 4 5 5 2 1 3 13 31 40 37 30 25 21 18 16
24 26 28 28 28 28 29 29 28 29 33 35 35 33 29 28 25 22 26 31 29 23 19 18 18 16 12 8 6 5 4 2 2 4 16 33 39 32 25 21 18 15 13
26 27 29 32 36 37 36 33 30 30 34 39 42 40 34 31 28 25 26 28 25 22 20 20 20 19 15 11 6 4 4 4 4 6 16 28 32 26 20 17 15 13 12
27 26 28 35 43 44 43 40 35 34 36 41 46 44 37 31 27 25 26 27 23 21 21 21 20 19 15 10 6 4 4 5 6 8 13 21 25 22 18 15 14 13 13
25 25 28 35 41 43 43 42 38 37 38 41 45 44 38 32 28 28 30 30 24 19 19 20 19 18 15 11 8 6 6 7 8 9 10 14 18 19 19 18 16 15 15
26 28 29 30 33 36 36 36 35 36 39 40 41 42 39 34 31 32 34 33 27 21 20 22 23 21 16 13 10 9 9 8 9 10 10 9 9 13 17 18 17 18 18
31 32 30 27 30 33 31 28 29 32 34 33 34 36 37 33 30 31 32 32 30 26 23 24 24 21 16 11 9 9 9 9 10 11 10 8 6 7 10 12 14 16 17
34 34 32 30 31 31 28 26 27 28 26 24 24 28 29 26 24 25 25 26 28 27 23 20 20 18 13 9 6 6 8 9 11 10 8 8 7 6 6 7 9 11 12
32 33 33 32 30 28 26 26 27 25 22 19 19 21 20 18 18 18 17 18 22 22 19 18 17 14 12 8 5 4 5 7 9 8 6 6 6 6 5 5 7 8 9
29 31 33 31 29 26 25 26 23 20 18 16 16 16 14 13 13 13 12 13 16 17 16 18 18 14 11 9 6 4 3 4 5 6 5 4 3 4 4 5 8 10 9
29 31 32 31 28 25 26 24 20 16 15 14 14 13 12 11 12 11 11 11 12 14 16 18 18 14 10 9 8 6 4 3 3 3 3 2 2 3 4 5 9 12 13
27 29 31 31 29 27 24 21 18 15 14 12 11 12 11 10 10 10 10 9 9 11 14 15 15 14 11 9 9 8 6 4 2 2 2 1 1 2 3 3 7 12 14
19 24 28 29 29 26 21 18 17 15 12 9 8 9 9 8 8 8 8 6 6 7 10 12 13 13 12 10 10 10 6 4 2 2 2 1 1 2 1 2 4 8 10
13 17 22 25 25 22 18 16 15 12 8 7 8 9 8 7 6 6 6 5 4 6 9 11 12 12 11 10 10 9 4 1 1 1 1 1 1 1 1 2 4 6 7
11 13 18 22 24 21 17 13 11 8 5 6 8 9 9 8 6 6 5 5 5 6 9 11 12 11 10 9 9 6 2 0 1 1 1 0 0 1 2 4 6 6 6

GEFSSE_con_prob3kmehi_210.txt.gz
EHI
12 21 32 38 39 39 38 37 36 35 31 27 26 29 32 32 31 31 30 26 19 14 13 12 10 8 7 9 11 11 8 6 5 4 2 1 3 8 12 14 14 19 26
14 22 31 37 40 39 38 37 35 34 31 26 25 27 30 30 26 23 23 21 16 12 10 10 9 7 5 6 10 9 7 5 4 4 4 2 3 8 12 14 15 20 26
19 22 29 36 41 40 37 36 34 32 29 25 22 22 25 26 22 18 16 15 12 9 7 7 8 6 4 4 5 5 4 3 3 4 4 2 2 7 13 14 16 21 25
22 22 27 36 41 41 37 33 31 30 26 22 19 18 18 19 19 16 13 11 9 6 4 5 6 6 4 3 3 3 2 2 3 3 2 1 2 7 14 16 17 20 22
20 20 27 38 44 43 37 31 29 27 22 18 16 14 13 14 15 14 11 9 6 4 2 2 4 4 4 4 3 2 1 3 3 1 0 0 2 8 16 21 22 21 20
17 18 27 40 47 46 40 34 30 26 21 17 13 11 10 10 11 12 11 8 4 2 1 1 2 3 5 5 4 1 1 1 1 0 0 0 2 10 18 23 25 25 23
16 18 26 38 45 45 42 39 35 28 22 19 14 11 9 8 10 11 11 8 5 2 2 2 2 2 4 5 4 1 0 0 0 0 0 0 2 9 19 23 25 25 24
18 18 22 30 37 38 38 39 36 30 24 21 17 12 9 9 9 10 10 9 5 3 3 2 1 1 3 3 3 1 0 0 0 0 0 0 3 9 18 22 22 21 21
20 17 16 20 24 27 31 33 32 29 25 22 19 14 11 10 9 9 9 9 6 4 3 3 1 1 3 3 2 1 0 0 0 0 0 0 3 9 15 18 19 19 18
17 14 11 11 11 16 22 25 25 24 24 22 19 16 14 13 10 9 9 9 7 4 3 3 3 3 3 3 2 1 1 1 0 0 0 0 3 9 14 17 18 18 18
12 9 7 7 6 9 16 19 18 19 21 20 18 17 17 16 14 11 9 9 7 4 3 5 5 4 4 4 3 3 3 1 0 0 0 1 4 11 16 18 18 19 20
7 6 6 7 7 8 11 14 15 17 19 18 16 15 15 17 16 14 11 9 7 5 5 6 5 4 4 3 3 4 3 1 0 0 1 2 6 13 18 20 20 19 20
7 8 9 9 8 8 9 11 13 15 17 17 16 14 13 15 16 15 13 9 7 7 7 6 4 3 3 2 2 2 1 0 0 0 1 3 7 13 18 19 18 16 16
10 10 10 9 9 8 8 9 11 12 13 15 14 13 13 15 14 13 11 9 8 9 9 6 3 3 2 2 1 0 0 0 0 0 1 4 9 14 18 17 15 13 11
10 9 8 8 8 7 6 7 7 7 9 11 11 11 12 12 10 9 8 7 6 8 8 5 3 2 2 2 1 0 0 0 0 0 1 4 10 15 17 17 15 12 10
9 8 8 8 8 7 6 5 5 4 5 6 7 8 7 6 6 6 6 4 3 3 4 2 1 1 1 1 1 0 0 0 0 0 0 3 8 13 16 18 16 14 12
9 9 10 9 9 9 9 8 5 3 3 3 4 4 3 3 2 3 3 1 0 0 1 1 0 0 0 0 0 0 0 0 0 0 0 1 3 7 12 16 16 14 12
11 10 11 12 13 12 11 10 6 4 3 3 2 2 2 1 1 2 1 0 0 0 0 0 0 0 0 0 0 0 0 0 0 0 0 0 0 2 5 9 12 12 11
11 10 10 13 15 13 11 9 6 4 3 3 3 3 3 1 1 1 1 0 0 0 0 0 0 0 0 0 0 0 0 0 0 0 0 0 0 0 1 3 6 8 7
10 8 7 9 11 11 10 9 7 5 4 4 4 3 2 1 0 0 0 0 0 0 0 0 0 0 0 0 0 0 0 0 0 0 0 0 0 0 0 0 2 3 3
9 6 5 6 7 8 9 9 7 6 5 4 3 2 1 0 0 0 0 0 0 0 0 0 0 0 0 0 0 0 0 0 0 0 0 0 0 0 0 0 0 0 0
9 8 6 5 5 7 8 8 7 6 5 3 2 1 0 0 0 0 0 0 0 0 0 0 0 0 0 0 0 0 0 0 0 0 0 0 0 0 0 0 0 0 0
10 10 9 7 6 6 6 6 6 6 4 3 1 1 1 1 0 0 0 0 0 0 0 0 0 0 0 0 0 0 0 0 0 0 0 0 0 0 0 0 0 0 0
11 11 9 7 5 4 4 4 4 4 3 2 1 1 1 2 1 0 0 0 0 0 0 0 0 0 0 0 0 0 0 0 0 0 0 0 0 0 0 0 0 0 0
9 9 8 6 4 3 3 2 1 1 1 1 1 0 1 1 1 0 0 0 0 0 0 0 0 0 0 0 0 0 0 0 0 0 0 0 0 0 0 0 0 0 0
8 9 9 7 4 3 2 1 0 0 0 0 0 0 0 1 0 0 0 0 0 0 0 0 0 0 0 0 0 0 0 0 0 0 0 0 0 0 0 0 0 0 0

GEFSSE_con_prob3kmehi_216.txt.gz
EHI
7 20 33 33 34 40 46 50 56 61 62 60 58 54 47 42 38 35 33 32 32 27 21 15 10 8 6 3 3 4 7 10 10 6 5 5 5 4 2 1 2 4 5
12 24 34 34 33 37 42 46 52 56 57 57 55 51 46 41 38 35 31 29 27 23 18 13 9 7 6 4 4 5 7 9 8 6 4 4 4 4 3 1 2 5 7
21 28 34 35 34 35 37 41 46 47 47 49 49 46 42 40 37 32 28 23 20 18 15 11 7 5 4 5 5 6 7 8 6 4 4 4 5 4 3 2 4 7 8
25 27 32 35 35 34 35 38 40 39 38 41 42 40 39 38 34 30 25 20 16 14 12 8 5 2 2 3 5 6 7 6 4 4 5 5 4 3 4 4 6 9 10
25 25 28 33 35 35 37 39 39 36 35 37 38 38 36 35 33 29 25 19 13 10 8 5 2 1 1 2 4 5 5 4 3 4 4 3 2 2 4 6 7 10 12
23 21 23 30 35 36 38 40 40 38 36 36 38 37 34 32 30 27 23 18 11 6 5 3 2 0 0 1 2 4 4 3 3 3 2 1 0 1 4 6 8 11 13
20 17 19 26 34 38 37 37 39 40 39 38 37 35 32 29 25 22 19 15 9 5 3 3 2 1 0 0 1 3 4 4 3 1 1 0 0 1 3 6 9 12 13
16 14 15 21 30 35 35 34 37 39 38 37 35 32 28 24 20 17 15 12 8 5 2 3 3 1 1 0 1 2 3 4 3 1 0 0 0 0 2 7 11 13 12
13 12 11 14 20 24 27 30 33 32 30 30 29 28 24 19 15 13 13 12 9 5 3 3 3 2 1 1 1 2 2 3 2 1 0 0 0 0 2 7 11 12 10
10 9 8 7 9 13 17 21 24 24 22 21 23 25 23 17 13 11 12 11 8 5 4 3 3 2 1 1 2 2 1 2 2 1 0 0 1 1 3 6 8 7 6
7 5 5 5 6 8 10 11 14 16 17 17 18 21 23 20 15 12 10 8 7 6 4 4 4 3 2 1 2 2 2 2 2 1 0 0 1 2 3 5 5 3 2
5 4 4 5 7 8 7 8 10 13 15 15 15 18 21 21 18 14 10 8 8 6 5 4 4 4 3 3 3 4 4 2 1 0 0 1 1 1 2 3 3 2 1
4 3 4 5 6 7 6 7 9 11 13 14 15 17 19 19 18 16 14 12 11 11 9 6 5 4 4 5 5 6 6 4 1 0 1 1 1 1 1 1 1 1 2
3 3 3 3 4 4 4 4 6 8 10 11 13 15 17 17 17 16 16 15 15 16 15 11 8 7 6 4 4 5 6 5 3 1 1 2 3 2 1 1 0 1 3
3 3 2 2 2 2 2 1 2 4 7 8 9 12 14 14 14 14 15 15 15 16 15 12 10 9 6 3 1 2 4 4 4 3 2 3 4 4 2 1 1 2 4
3 2 1 0 1 1 0 0 0 1 3 4 5 7 9 10 11 13 13 12 11 11 10 8 6 6 4 2 1 1 2 3 4 4 2 2 3 3 3 2 2 4 5
3 1 0 0 0 0 0 0 0 0 1 1 1 3 5 7 8 9 9 8 7 7 7 5 3 2 1 1 0 0 1 3 3 3 3 3 3 2 2 1 2 5 6
1 0 0 0 0 0 0 0 1 0 0 0 1 1 3 4 5 5 4 4 4 4 5 3 1 0 0 0 0 0 1 2 3 3 3 3 2 2 1 1 2 4 6
1 1 0 0 0 0 0 0 1 1 1 1 1 1 1 1 2 2 2 2 2 2 3 2 1 0 0 0 0 0 1 1 2 2 2 2 1 1 0 1 1 2 3
3 3 1 0 0 0 0 1 1 2 2 1 1 1 1 1 0 0 0 0 0 1 1 1 1 0 0 0 0 0 0 0 0 0 1 1 0 0 0 0 0 1 1
5 4 2 0 0 0 1 2 3 3 3 3 2 2 2 1 0 0 0 0 0 0 0 0 0 0 0 0 0 0 0 0 0 0 0 0 0 0 0 0 0 0 0
6 4 2 0 0 0 1 3 3 3 3 3 3 3 2 1 0 0 0 0 0 0 0 0 0 0 0 0 0 0 0 0 0 0 0 0 0 0 0 0 0 0 0
7 5 2 1 0 1 2 3 3 3 2 3 3 2 1 0 0 0 0 0 0 0 0 0 0 0 0 0 0 0 0 0 0 0 0 0 0 0 0 0 0 0 0
7 5 3 1 0 2 3 3 3 3 3 2 2 1 0 0 0 0 0 0 0 0 0 0 0 0 0 0 0 0 0 0 0 0 0 0 0 0 0 0 0 0 0
7 6 3 0 0 1 3 3 3 3 2 1 1 0 0 0 0 0 0 0 0 0 0 0 0 0 0 0 0 0 0 0 0 0 0 0 0 0 0 0 0 0 0
7 6 3 1 0 1 2 3 3 3 1 0 0 0 0 0 0 0 0 0 0 0 0 0 0 0 0 0 0 0 0 0 0 0 0 0 0 0 0 0 0 0 0

GEFSSE_con_prob3kmehi_222.txt.gz
EHI
15 27 38 35 28 24 25 27 30 34 37 40 42 42 40 33 28 28 27 24 23 25 24 21 17 15 13 11 11 10 8 7 9 10 10 10 10 10 11 10 7 8 11
19 29 37 35 29 26 26 28 31 34 36 38 39 39 38 35 30 28 27 24 22 21 21 19 16 14 12 10 10 10 8 7 7 8 8 9 9 10 10 9 9 11 15
20 28 34 33 29 25 26 29 33 36 39 39 37 37 38 38 34 30 29 26 20 18 17 15 13 12 11 9 8 9 8 7 6 5 6 6 8 10 11 9 9 12 15
17 23 30 32 28 23 25 29 33 38 42 41 39 38 40 40 37 34 32 27 20 16 14 12 10 10 10 9 9 9 8 7 5 4 4 4 8 13 14 11 9 8 9
14 19 27 31 28 23 24 28 33 37 41 42 43 43 41 39 36 34 30 25 21 17 14 10 8 8 8 9 10 10 9 7 4 2 2 4 9 14 14 11 9 7 7
13 18 25 29 27 23 24 28 31 34 38 41 43 44 41 37 33 30 26 23 20 18 14 10 8 7 7 7 7 8 9 8 4 1 1 4 9 13 11 8 8 8 9
13 17 23 27 25 23 25 28 28 28 32 37 40 40 38 34 29 25 22 19 17 15 13 10 7 6 6 6 5 5 7 7 4 1 1 2 7 11 9 7 6 8 10
11 14 19 21 20 19 21 24 24 24 26 30 33 34 33 30 26 23 19 15 12 10 10 9 8 7 6 5 4 4 4 4 3 1 1 3 7 10 9 8 8 8 8
7 9 11 12 13 13 14 17 18 18 20 23 25 26 26 25 24 21 17 13 10 9 7 7 7 7 5 4 3 4 4 4 2 1 1 5 10 11 9 9 10 8 6
5 5 6 6 6 8 10 11 11 12 13 16 17 19 18 18 18 17 15 12 10 8 7 5 6 5 4 3 3 4 4 4 3 1 2 7 11 9 7 8 9 7 5
6 5 5 5 4 5 7 8 8 8 9 11 12 13 11 10 11 12 13 13 10 8 6 5 4 4 4 4 3 3 4 3 3 3 6 10 10 6 5 6 7 5 4
8 7 6 5 4 4 5 7 8 9 9 10 9 10 10 10 11 12 15 16 13 9 7 6 4 4 5 6 5 4 4 3 4 6 9 10 9 5 5 6 6 5 5
7 7 6 5 4 4 5 7 9 10 12 12 11 11 13 16 17 17 19 20 17 13 11 9 6 5 6 6 6 5 4 3 5 6 9 10 7 5 5 6 6 6 7
8 8 7 5 5 5 6 7 8 9 11 12 12 13 15 19 21 21 22 22 19 17 16 13 8 5 5 5 5 4 2 2 3 4 8 10 7 4 4 4 5 6 7
9 9 8 6 6 7 7 7 6 7 8 8 10 12 13 16 18 19 19 19 17 15 15 14 9 6 6 5 3 2 1 1 1 2 5 8 7 5 3 2 2 3 4
8 8 7 7 7 7 8 7 5 4 5 5 7 9 10 12 14 14 13 14 13 11 11 12 11 9 7 5 3 1 1 1 1 1 2 3 5 5 4 2 1 0 1
11 10 8 7 8 9 9 7 5 5 5 5 6 7 7 8 10 11 10 10 10 10 10 11 11 10 7 4 2 2 3 4 4 2 1 0 2 3 4 4 3 1 1
17 15 11 9 10 11 11 9 7 8 7 6 6 6 5 5 7 9 10 9 7 8 10 11 11 10 6 4 4 5 8 9 6 3 1 1 2 3 4 5 5 3 2
18 18 16 14 14 15 14 12 10 10 10 8 5 4 4 5 5 7 8 8 8 7 8 10 11 10 8 5 4 6 10 11 8 4 2 4 5 5 5 6 5 4 3
17 19 19 19 19 20 18 16 12 11 10 8 5 4 5 5 4 5 6 8 9 9 9 10 10 9 9 7 5 6 9 10 9 7 5 6 7 6 6 6 4 3 2
18 19 20 20 21 21 20 18 15 11 9 7 5 5 5 4 4 4 5 7 8 9 10 9 9 9 9 8 7 7 8 10 9 8 7 6 4 4 4 4 3 2 1
16 18 19 18 18 18 18 16 14 11 8 6 6 6 5 4 3 3 4 6 7 8 8 7 7 8 8 8 8 7 7 8 7 6 5 3 2 2 2 2 2 1 2
13 14 16 17 18 17 16 14 12 11 8 7 6 6 6 5 4 3 4 5 6 6 6 5 5 6 8 8 7 5 5 6 6 5 2 1 1 3 2 1 1 1 1
12 13 14 17 18 18 16 14 12 12 10 8 7 7 7 6 4 3 3 4 4 4 4 4 4 5 7 8 6 4 4 4 4 4 3 3 3 3 3 2 1 1 0
14 15 17 18 18 17 15 14 14 13 11 9 7 7 7 7 5 4 3 3 3 3 3 4 3 4 6 7 6 5 5 5 3 3 4 4 5 4 3 3 2 1 0
15 17 20 20 18 14 13 15 15 13 11 9 8 7 7 7 6 4 3 3 3 3 4 4 4 4 4 5 7 7 6 5 4 3 4 5 6 5 4 4 4 2 1

GEFSSE_con_prob3kmehi_228.txt.gz
EHI
29 35 43 38 24 16 15 15 14 11 8 6 5 5 4 5 9 13 17 19 21 19 15 11 8 7 9 10 9 7 7 8 10 10 11 16 20 22 26 25 16 11 16
31 34 40 37 25 16 14 16 16 14 11 8 6 5 4 6 9 13 15 16 16 16 13 10 8 9 9 9 8 7 7 8 9 8 9 11 15 20 24 25 21 17 18
32 31 33 33 25 17 14 15 17 17 15 11 9 7 6 6 8 11 12 12 12 11 10 9 9 10 9 7 6 6 6 7 7 6 6 6 11 18 22 23 22 21 19
31 29 29 29 23 17 14 14 15 17 16 13 11 9 8 7 7 9 11 11 10 9 8 7 8 9 8 5 4 4 5 6 5 4 4 5 10 18 21 19 18 16 15
32 31 31 30 24 18 15 14 14 15 13 11 9 9 10 9 8 10 12 11 9 9 8 7 7 7 6 4 3 3 3 3 2 2 3 6 11 19 22 18 13 11 10
32 31 32 33 28 20 15 14 15 13 12 9 7 7 10 11 12 13 13 11 9 8 8 8 6 5 5 4 3 3 3 1 0 1 3 7 14 21 24 18 10 7 7
28 27 30 34 31 22 16 15 15 14 13 11 7 7 10 13 15 17 15 11 9 7 7 7 6 4 3 3 3 3 2 1 0 0 2 7 17 24 24 16 9 6 6
22 23 27 30 28 22 17 16 16 16 16 14 11 8 10 13 16 17 17 13 10 7 6 6 5 3 1 2 2 3 2 1 0 1 3 8 17 24 21 14 9 8 8
18 20 21 22 21 18 15 15 16 17 17 16 12 9 8 9 11 14 16 14 9 6 4 4 4 3 2 2 2 2 2 1 0 1 4 10 17 21 18 13 10 9 8
18 18 16 15 13 13 14 15 16 17 18 16 11 7 5 4 5 9 13 14 10 5 3 3 4 4 4 3 3 3 3 1 0 2 7 13 20 20 15 12 11 8 6
19 18 16 13 10 10 13 15 15 16 17 16 10 7 5 3 4 7 13 18 16 9 6 4 5 6 6 4 4 4 3 1 1 4 9 16 20 17 13 12 10 6 5
19 18 15 13 10 10 12 13 13 13 15 13 9 10 10 8 8 10 17 23 21 13 8 5 6 7 6 6 6 5 2 1 1 4 10 18 21 17 12 11 8 5 4
19 17 14 13 13 12 12 13 12 12 12 11 10 13 14 13 13 15 19 24 21 14 10 8 8 6 5 5 6 4 1 1 2 4 10 20 24 19 13 10 7 5 4
22 19 17 16 17 16 14 14 14 11 10 11 16 19 17 15 15 17 20 21 18 14 12 11 9 6 4 4 5 4 1 1 3 4 10 21 26 21 15 11 8 6 7
30 28 24 22 23 22 19 16 15 13 12 15 20 23 20 17 18 20 21 21 18 15 14 12 9 7 6 5 5 5 4 2 2 3 8 19 25 22 16 12 9 8 8
38 36 30 26 26 25 21 16 15 15 17 19 22 21 19 20 21 20 20 20 18 15 15 13 10 9 9 7 7 7 7 4 3 4 7 13 20 21 18 14 12 10 8
42 40 33 25 24 24 20 16 16 16 17 21 22 19 18 20 22 20 17 14 14 14 14 14 12 11 10 9 9 9 8 6 6 7 6 7 10 14 15 15 15 13 10
42 40 33 26 25 26 23 21 19 17 18 21 22 20 17 18 20 20 16 11 10 10 11 12 12 11 10 8 8 8 7 7 7 7 5 3 5 8 10 13 15 15 13
39 38 34 31 30 29 28 26 23 21 20 22 23 21 19 18 18 18 15 11 10 9 10 10 10 10 9 6 4 4 5 7 8 7 4 4 7 9 10 11 13 15 14
36 35 34 34 33 32 31 30 27 25 24 23 24 23 21 18 16 15 13 10 9 10 10 9 9 10 8 4 1 1 3 7 9 7 5 6 10 12 10 10 10 11 12
35 34 33 33 32 30 30 29 28 27 26 25 23 21 20 18 15 12 9 8 8 9 10 9 8 8 6 3 1 1 2 4 6 6 6 7 8 9 9 7 7 7 7
32 31 32 32 29 27 27 26 26 27 26 24 21 20 18 16 13 9 7 7 8 8 9 9 8 6 4 3 2 2 1 2 3 4 5 7 7 8 7 5 6 6 4
26 26 28 31 30 28 26 25 24 24 23 22 20 20 18 15 11 8 6 7 8 8 8 8 7 6 4 3 3 2 1 2 3 4 4 5 7 7 6 4 5 6 5
22 23 25 29 30 29 28 26 25 23 21 19 18 17 15 13 10 7 6 7 8 8 7 7 7 7 4 3 2 1 1 2 3 3 2 3 4 5 4 3 4 5 7
21 21 23 25 28 28 27 28 27 24 20 17 16 14 12 11 9 7 6 7 7 8 7 7 7 6 4 3 2 1 1 2 2 1 0 0 1 2 3 3 4 5 7
21 21 20 22 24 26 26 27 27 24 20 18 15 12 11 10 8 7 6 6 7 7 7 7 7 6 4 3 2 1 1 1 1 0 0 0 0 1 3 4 5 6 7

GEFSSE_con_prob3kmehi_234.txt.gz
EHI
7 17 34 43 43 38 33 31 29 26 21 20 21 23 27 29 29 29 25 19 15 13 11 10 10 10 11 12 12 10 6 3 4 6 7 8 11 14 15 14 11 8 9
8 17 32 41 42 40 34 30 28 25 21 19 20 22 25 27 27 25 22 18 15 13 11 9 9 8 9 10 10 8 5 3 3 5 6 7 10 13 15 15 13 11 10
11 16 28 37 42 41 36 30 27 25 20 17 17 17 21 24 23 20 17 15 13 12 10 9 8 7 7 8 9 7 4 2 3 5 6 5 8 13 15 16 16 15 13
11 15 25 35 40 40 37 32 28 26 21 16 13 13 17 21 20 18 14 11 10 9 8 8 6 5 5 6 8 7 4 2 4 5 4 3 5 10 14 15 17 16 14
10 15 25 35 38 37 35 31 28 24 20 15 11 10 13 17 18 17 13 9 7 7 6 4 3 3 4 4 6 6 4 4 4 3 1 1 3 7 11 13 13 13 13
8 15 26 35 38 35 31 28 25 22 19 16 12 9 9 10 12 13 11 9 7 6 4 2 1 1 2 3 4 5 5 5 4 2 0 0 1 5 9 11 10 10 10
9 15 26 35 38 34 28 24 22 20 18 18 14 9 6 4 5 9 10 9 7 6 4 1 1 1 2 3 3 3 4 4 3 1 0 0 1 5 9 11 10 8 8
15 17 23 30 32 30 24 20 19 19 19 19 16 10 5 3 3 7 10 9 6 5 4 1 2 3 4 4 3 3 3 3 2 1 0 0 2 7 11 11 9 7 8
17 19 21 21 22 21 19 16 16 17 17 17 16 12 8 4 3 6 10 8 6 4 3 3 3 4 4 4 3 4 5 3 1 0 0 0 3 8 13 14 9 7 7
14 16 17 14 13 13 14 13 14 14 14 14 14 13 9 5 4 6 8 7 6 4 3 3 3 4 5 5 5 6 6 4 1 0 0 1 5 10 14 14 10 6 6
9 10 12 10 9 10 11 13 13 12 12 12 14 12 8 4 3 3 6 7 7 5 4 4 4 5 5 6 5 5 4 2 0 0 0 3 8 12 13 12 10 7 6
5 6 6 7 8 9 10 11 12 11 9 11 11 9 5 2 1 1 4 7 8 7 6 5 5 4 3 3 2 1 1 0 0 0 1 5 10 13 11 9 8 8 8
6 4 4 5 7 7 7 8 8 7 6 5 6 5 3 2 1 1 2 4 7 8 8 7 6 4 2 1 0 0 0 0 0 0 1 5 11 13 11 7 6 8 9
9 7 4 4 5 5 5 5 5 4 3 2 1 1 2 2 2 2 1 1 4 8 9 7 5 3 2 1 0 0 0 0 0 0 1 5 11 13 10 5 5 8 10
13 10 6 4 4 4 5 6 5 4 2 1 0 0 1 1 2 3 2 1 3 6 8 7 4 3 3 2 1 0 0 0 0 0 1 4 9 11 9 6 6 9 12
16 13 9 6 4 4 6 6 6 4 3 2 1 0 1 1 1 2 2 2 2 4 6 6 4 3 3 2 1 0 0 0 0 0 0 2 6 9 10 9 8 11 14
17 16 14 10 7 6 6 7 6 5 3 3 1 1 2 2 1 1 1 1 1 2 3 3 3 3 2 3 2 1 0 0 0 0 0 0 2 4 8 10 11 12 13
18 18 16 14 10 8 9 9 9 7 5 4 3 3 3 3 2 1 1 1 1 1 1 1 1 2 3 3 2 1 0 0 0 0 0 0 0 1 4 8 10 11 11
20 20 19 16 13 12 12 13 12 11 8 7 6 5 5 5 4 3 2 2 2 2 1 0 0 1 2 2 1 1 0 0 0 0 0 0 0 0 1 4 6 8 9
21 22 21 18 17 16 16 16 15 13 10 9 9 8 8 7 6 4 3 3 3 3 2 1 0 0 1 1 0 0 0 0 0 0 0 0 0 0 0 1 3 5 6
21 21 21 20 19 19 18 17 16 13 11 10 10 10 9 8 6 5 4 4 4 4 3 2 1 0 0 0 0 0 0 0 0 0 0 0 0 0 0 0 1 2 3
19 19 19 19 19 19 18 18 16 13 11 10 10 10 9 8 6 6 5 5 5 4 4 3 1 1 1 0 0 0 0 0 0 0 0 0 0 0 0 0 0 0 1
17 17 17 17 17 17 16 16 15 13 11 9 9 9 9 7 6 6 6 5 4 4 3 3 3 2 2 1 0 0 0 0 0 0 0 0 0 0 0 0 0 0 0
15 17 17 16 16 16 15 14 14 12 10 8 8 7 7 6 5 6 5 4 3 3 3 3 3 3 3 2 1 0 0 0 0 0 0 0 0 0 0 0 0 0 0
16 18 18 17 16 16 15 14 13 11 9 7 7 6 4 3 3 4 4 3 3 3 3 2 3 3 3 3 2 1 0 0 0 0 0 0 0 0 0 0 0 0 0
17 18 19 17 16 16 15 14 12 10 8 7 6 5 3 2 2 3 3 3 3 3 2 2 2 3 3 3 2 1 0 0 0 0 0 0 0 0 0 0 0 0 0

GEFSSE_con_prob3kmehi_240.txt.gz
EHI
4 13 25 29 30 35 42 49 54 54 47 41 38 36 33 28 24 24 22 19 16 13 9 8 8 7 7 10 13 14 14 14 14 13 12 13 13 12 11 10 9 10 11
8 15 24 27 28 33 39 45 49 51 48 42 37 34 31 26 23 22 21 18 15 12 9 8 8 7 8 12 14 13 12 13 14 13 12 11 12 11 10 10 10 10 11
12 16 22 25 27 30 33 36 40 44 45 42 37 33 30 27 22 19 18 16 14 12 10 8 7 7 9 12 13 11 10 11 12 12 12 11 11 10 9 11 11 11 10
12 15 20 24 27 29 30 30 32 35 36 35 34 31 28 26 22 18 16 14 13 12 11 8 6 6 8 10 11 10 10 10 10 10 10 11 12 11 11 11 12 11 10
12 15 20 25 28 29 30 28 27 27 27 27 27 26 24 22 20 18 15 12 11 11 11 8 5 5 6 7 8 9 10 10 9 9 8 9 11 11 11 10 9 9 9
13 15 21 28 30 29 29 28 25 23 22 20 20 22 21 20 18 16 14 11 9 10 9 7 5 5 5 5 7 9 9 9 8 7 7 7 8 9 9 7 7 7 8
13 14 20 29 32 29 27 27 24 21 19 18 18 19 19 19 17 14 12 9 7 7 7 6 5 5 6 6 6 7 8 7 6 6 6 6 7 7 7 7 7 8 8
12 13 16 23 27 27 26 25 22 19 18 17 17 17 15 15 14 11 8 7 6 5 5 6 5 6 7 7 6 6 6 6 4 4 5 6 6 7 8 8 9 9 8
10 9 10 12 16 20 22 21 20 17 15 13 13 13 12 10 8 7 6 7 6 4 4 5 5 5 5 5 4 4 5 5 4 3 4 4 5 7 9 10 9 8 8
7 6 5 5 6 10 13 15 17 14 11 9 9 9 9 7 5 5 7 9 8 5 5 5 5 4 4 3 3 4 5 5 4 3 2 3 4 7 10 11 9 8 7
4 4 4 3 4 5 6 8 11 10 8 7 6 6 7 7 6 6 8 9 8 5 4 4 4 4 4 4 3 4 5 5 3 1 1 2 4 7 10 12 10 9 8
2 3 3 3 4 5 5 4 5 5 5 5 5 5 5 6 8 8 9 10 10 7 5 4 4 6 7 5 4 3 3 3 1 0 0 1 3 6 9 11 11 10 10
2 3 4 4 3 4 4 4 4 4 3 3 4 4 4 5 7 8 10 12 12 11 8 7 7 9 9 6 3 2 1 1 0 0 0 1 2 4 7 9 10 11 10
3 5 6 5 3 3 3 4 4 4 4 4 4 4 3 4 4 5 7 9 11 12 11 10 10 9 8 5 3 1 0 0 0 0 0 0 1 3 4 6 8 9 9
4 4 5 4 3 3 3 3 4 4 4 4 4 4 4 4 3 2 4 5 8 10 11 11 11 8 6 5 3 1 0 0 0 0 0 0 1 2 3 4 5 7 8
4 4 3 2 2 3 3 3 3 3 3 3 4 5 5 5 4 2 2 3 5 7 9 10 9 7 5 4 3 1 0 0 0 0 0 0 1 2 3 4 5 7 7
5 4 3 1 1 1 2 1 1 2 2 2 3 4 5 5 4 2 1 1 3 4 6 7 7 6 5 3 2 1 0 0 0 0 0 0 0 2 3 4 5 7 7
7 5 3 2 0 0 0 0 0 1 1 2 3 3 4 4 3 2 1 1 2 3 3 3 4 4 4 3 2 1 1 1 0 0 0 0 0 1 3 3 4 5 5
9 6 3 1 0 0 0 0 1 2 2 3 3 3 3 3 3 3 2 2 2 2 2 1 2 3 4 4 3 2 1 0 0 0 0 0 0 1 1 2 2 3 3
10 9 5 2 1 1 1 1 2 3 3 3 3 3 3 3 3 3 3 3 3 3 2 2 2 2 3 3 3 2 1 0 0 0 0 0 0 0 0 0 1 2 2
11 10 8 5 4 4 4 4 3 3 3 3 3 2 2 2 2 2 2 2 2 2 2 2 2 2 1 2 2 1 0 0 0 0 0 0 0 0 0 0 0 1 1
9 11 11 8 6 6 6 5 4 3 3 2 1 1 1 1 1 1 1 1 1 1 1 1 1 1 1 0 0 0 0 0 0 0 0 0 0 0 0 0 0 0 0
8 11 12 9 6 6 6 5 4 3 2 1 1 0 0 1 1 0 0 0 1 1 1 1 2 2 2 1 0 0 0 0 0 0 0 0 0 0 0 0 0 0 0
8 9 9 7 6 6 6 6 5 4 3 2 2 1 1 2 2 1 1 1 2 2 2 2 2 3 3 1 1 0 0 0 0 0 0 0 0 0 0 0 0 0 0
7 6 5 5 5 6 8 8 7 5 4 3 3 1 1 2 2 2 2 3 3 3 3 3 3 3 3 3 2 1 1 1 1 0 0 0 0 0 0 0 0 0 0
5 5 5 4 4 7 10 10 8 6 4 3 3 2 2 1 2 3 3 3 3 3 3 3 3 3 3 3 3 2 2 2 2 1 0 0 0 0 0 0 0 0 0

GEFSSE_con_prob3kmehi_246.txt.gz
EHI
14 21 30 30 24 19 17 18 21 26 29 26 21 17 16 15 14 11 6 4 4 2 1 3 5 7 9 8 5 3 2 3 4 3 3 5 7 9 9 7 6 6 6
15 20 28 28 23 18 17 19 21 23 25 23 19 18 18 16 14 12 7 4 3 2 1 2 4 4 5 6 5 3 2 2 2 2 2 3 6 9 8 8 8 7 5
16 18 24 27 23 18 17 19 22 21 19 17 17 18 19 18 16 12 8 6 5 3 1 1 1 1 2 3 4 4 3 1 1 1 1 2 4 6 6 6 7 7 5
14 16 22 28 26 21 19 20 23 21 16 14 16 18 19 18 16 12 10 10 8 4 1 0 0 1 1 2 4 5 5 3 1 1 1 2 3 4 3 3 4 4 4
10 14 23 27 25 23 23 22 22 22 17 14 16 20 20 19 17 13 12 12 11 6 3 1 1 2 4 5 5 5 5 4 2 1 1 4 6 6 4 2 2 3 4
6 12 21 25 22 20 21 21 21 22 19 16 16 20 22 21 19 16 13 11 11 8 4 1 1 4 6 6 4 3 3 3 2 1 1 4 8 8 5 2 1 1 2
4 9 17 20 17 14 14 16 18 20 21 18 17 20 20 20 20 17 12 9 9 8 6 2 2 5 7 6 4 3 2 1 1 1 2 3 7 8 6 3 1 0 1
4 7 12 14 14 11 9 9 14 18 20 20 18 17 16 15 15 13 9 8 9 9 8 4 3 5 6 6 4 3 3 1 0 1 1 3 6 7 6 4 2 1 1
5 6 8 9 9 8 5 7 12 16 18 18 16 14 12 10 8 8 8 9 10 11 9 5 3 2 3 4 3 3 2 1 0 1 1 2 5 6 5 4 3 2 2
6 6 5 5 6 5 4 7 10 12 12 12 10 10 8 5 4 5 7 9 9 9 8 6 3 2 1 2 3 2 1 0 0 0 1 2 5 5 4 4 4 4 4
6 5 4 4 5 4 4 5 6 6 5 5 5 4 4 3 2 3 4 6 6 6 6 7 7 4 2 2 3 2 1 0 0 0 1 3 4 4 4 5 6 5 5
6 6 4 4 5 4 4 4 3 2 1 1 1 1 2 3 3 3 3 5 5 5 5 8 8 5 2 1 2 2 1 0 0 0 1 3 3 2 3 5 5 6 6
6 5 4 5 5 4 4 3 2 0 0 0 0 1 3 5 5 5 6 6 6 5 5 6 7 5 2 1 1 1 0 1 1 1 3 5 4 2 1 2 3 4 5
5 4 3 5 7 6 4 2 1 0 0 0 0 1 2 4 4 5 7 6 5 5 5 5 6 6 3 1 0 0 0 1 2 3 5 6 4 1 0 0 1 2 4
5 5 6 8 9 8 6 3 1 1 1 0 0 0 1 2 2 3 5 5 4 4 5 4 5 6 5 4 3 3 2 2 2 3 4 4 2 0 0 0 0 1 2
7 8 10 12 13 11 8 6 3 2 1 0 0 0 1 1 1 2 4 4 3 3 4 4 5 6 6 7 6 6 6 4 3 3 2 1 0 0 0 0 0 1 1
8 9 11 13 14 12 9 6 3 1 1 1 1 2 3 3 3 4 5 4 3 2 3 5 5 6 7 7 7 6 6 4 3 3 2 1 0 0 0 0 0 0 1
11 11 11 11 12 11 9 7 5 3 3 3 3 4 6 6 7 7 6 5 4 4 4 6 6 6 6 6 6 5 4 4 4 4 4 2 1 0 0 1 1 1 2
11 13 13 11 11 10 10 9 9 7 6 4 4 6 7 9 10 9 8 8 7 6 5 6 6 7 7 7 6 6 5 5 5 6 5 4 2 1 0 1 1 2 2
11 14 16 16 15 15 14 13 12 11 8 6 5 7 8 10 11 11 10 9 9 7 7 6 5 6 7 7 7 7 7 6 6 6 6 4 2 1 0 1 1 2 2
14 17 21 23 25 25 21 17 14 12 10 7 7 9 9 9 12 12 11 10 9 9 8 6 5 6 7 7 8 9 9 6 5 6 6 5 3 1 1 0 0 1 1
16 19 23 27 30 30 25 19 15 12 10 8 8 10 9 9 10 11 10 9 8 8 6 4 4 5 7 7 8 10 9 6 5 6 6 6 5 4 3 2 1 1 1
16 18 22 27 30 31 27 21 15 11 9 8 11 13 12 10 8 8 7 6 5 4 3 3 3 5 6 7 7 8 7 6 5 5 6 7 8 6 5 5 3 3 2
15 17 21 27 31 31 27 22 17 11 8 8 12 15 15 11 8 6 5 4 3 2 3 3 3 4 5 7 6 6 6 5 4 5 6 8 8 7 7 7 6 6 5
18 19 22 26 29 30 27 24 19 13 9 10 12 14 13 10 8 6 5 5 4 3 4 4 3 3 4 5 6 5 5 4 4 4 6 6 6 6 7 8 7 6 5
19 21 23 25 27 28 26 24 20 15 11 11 11 12 11 8 7 6 6 5 4 4 5 5 4 3 4 5 5 5 4 3 3 4 5 4 4 5 7 8 7 5 5